[[{"header":{"parameterUnit":"m.s-1","parameterCategory":1,"la1":30.6,"la2":29.2853,"lo1":-89.7004,"lo2":-87.6739,"dy":0.0162,"dx":0.0183,"nx":112,"ny":82,"refTime":"2026-03-17T00:00:00:Z","depth":0,"parameterNumber":2,"parameterNumberName":"U-component_of_WINDS"},"data":[0.0,0.0,0.0,0.0,0.0,0.0,0.0,0.0,0.0,0.0,0.0,0.0,0.0,0.0,0.0,0.0,0.0,0.0,0.0,0.0,0.0,0.0,0.0,0.0,0.0,0.0,0.0,0.0,0.0,0.0,0.0,0.0,0.0,0.0,0.0,0.0,0.0,0.0,0.0,0.0,0.0,0.0,0.0,0.0,0.0,0.0,0.0,0.0,0.0,0.0,0.0,0.0,0.0,0.0,0.0,0.0,0.0,0.0,0.0,0.0,0.0,0.0,0.0,0.0,0.0,0.0,0.0,0.0,0.0,0.0,0.0,0.0,0.0,0.0,0.0,0.0,0.0,0.0,0.0,0.0,0.0,0.0,0.0,0.0,0.0,0.0,0.0,0.0,0.0,0.0,0.0184,0.0147,-0.0042,-0.0132,-0.0085,-0.0211,-0.0359,-0.0418,0.0,0.0,0.0,0.0,0.0,0.0,0.0,0.0,0.0,0.0,0.0,0.0,0.0,0.0,0.0,0.0,0.0,0.0,0.0,0.0,0.0,0.0,0.0,0.0,0.0,0.0,0.0,0.0,0.0,0.0,0.0,0.0,0.0,0.0,0.0,0.0,0.0,0.0,0.0,0.0,0.0,0.0,0.0,0.0,0.0,0.0,0.0,0.0,0.0,0.0,0.0,0.0,0.0,0.0,0.0,0.0,0.0,0.0,0.0,0.0,0.0,0.0,0.0,0.0,0.0,0.0,0.0,0.0,0.0,0.0,0.0,0.0,0.0,0.0,0.0,0.0,0.0,0.0,0.0,0.0,0.0,0.0,0.0,0.0,0.0,0.0,0.0,0.0,0.0,0.0,0.0,0.0,0.0,0.0,0.0,0.0,0.0,0.0,0.0,0.0,0.0,0.0,0.0,0.0,0.0232,0.0363,0.0216,0.0089,-0.0,-0.0,-0.0164,-0.054,0.0,0.0,0.0,0.0,0.0,0.0,0.0,0.0,0.0,0.0,0.0,0.0,0.0,0.0,0.0,0.0,0.0,0.0,0.0,0.0,0.0,0.0,0.0,0.0,0.0,0.0,0.0,0.0,0.0,0.0,0.0,0.0,0.0,0.0,0.0,0.0,0.0,0.0,0.0,0.0,0.0,0.0,0.0,0.0,0.0,0.0,0.0,0.0,0.0,0.0,0.0,0.0,0.0,0.0,0.0,0.0,0.0,0.0,0.0,0.0,0.0,0.0,0.0,0.0,0.0,0.0,0.0,0.0,0.0,0.0,0.0,0.0,0.0,0.0,0.0,0.0,0.0,0.0,0.0,0.0,0.0,0.0,0.0,0.0,0.0,0.0,0.0,0.0,0.0,0.0,0.0,0.0,0.0,0.0,0.0,0.0,0.0,0.0,0.0,0.0,0.0,0.0,0.0,0.0708,0.0863,0.1075,0.1003,0.0895,0.076,0.0731,0.0535,0.0118,0.0034,0.0,0.0,0.0,0.0,0.0,0.0,0.0,0.0,0.0,0.0,0.0,0.0,0.0,0.0,0.0,0.0,0.0,0.0,0.0,0.0,0.0,0.0,0.0,0.0,0.0,0.0,0.0,0.0,0.0,0.0,0.0,0.0,0.0,0.0,0.0,0.0,0.0,0.0,0.0,0.0,0.0,0.0,0.0,0.0,0.0,0.0,0.0,0.0,0.0,0.0,0.0,0.0,0.0,0.0,0.0,0.0,0.0,0.0,0.0,0.0,0.0,0.0,0.0,0.0,0.0,0.0,0.0,0.0,0.0,0.0,0.0,0.0,0.0,0.0,0.0,0.0,0.0,0.0,0.0,0.0,0.0,0.0,0.0,0.0,0.0,0.0,0.0,0.0,0.0,0.0,0.0,0.0,0.0,0.0,0.0,0.0,0.0,0.0,0.0,0.0,0.0,0.0,0.1357,0.1504,0.1776,0.1758,0.1658,0.1523,0.1377,0.1153,0.0788,0.0645,0.0,0.0,0.0,0.0,0.0,0.0,0.0,0.0,0.0,0.0,0.0,0.0,0.0,0.0,0.0,0.0,0.0,0.0,0.0,0.0,0.0,0.0,0.0,0.0,0.0,0.0,0.0,0.0,0.0,0.0,0.0,0.0,0.0,0.0,0.0,0.0,0.0,0.0,0.0,0.0,0.0,0.0,0.0,0.0,0.0,0.0,0.0,0.0,0.0,0.0,0.0,0.0,0.0,0.0,0.0,0.0,0.0,0.0,0.0,0.0,0.0,0.0,0.0,0.0,0.0,0.0,0.0,0.0,0.0,0.0,0.0,0.0,0.0,0.0,0.0,0.0,0.0,0.0,0.0,0.0,0.0,0.0,0.0,0.0,0.0,0.0,0.0,0.0,0.0,0.0,0.0,0.0,0.0,0.0,0.0,0.0,0.0,0.0,0.0,0.0,0.0,0.0,0.1544,0.178,0.2125,0.2061,0.1928,0.1794,0.1723,0.1485,0.1025,0.0918,0.0,0.0,0.0,0.0,0.0,0.0,0.0,0.0,0.0,0.0,0.0,0.0,0.0,0.0,0.0,0.0,0.0,0.0,0.0,0.0,0.0,0.0,0.0,0.0,0.0,0.0,0.0,0.0,0.0,0.0,0.0,0.0,0.0,0.0,0.0,0.0,0.0,0.0,0.0,0.0,0.0,0.0,0.0,0.0,0.0,0.0,0.0,0.0,0.0,0.0,0.0,0.0,0.0,0.0,0.0,0.0,0.0,0.0,0.0,0.0,0.0,0.0,0.0,0.0,0.0,0.0,0.0,0.0,0.0,0.0,0.0,0.0,0.0,0.0,0.0,0.0,0.0,0.0,0.0,0.0,0.0,0.0,0.0,0.0,0.0,0.0,0.0,0.0,0.0,0.0,0.0,0.0,0.0,0.0,0.0,0.0,0.0,0.0,0.0,0.0,0.0,0.0,0.1614,0.181,0.0,0.2154,0.2064,0.1928,0.1901,0.1722,0.1287,0.0,0.0,0.0,0.0,0.0,0.0,0.0,0.0,0.0,0.0,0.0,0.0,0.0,0.0,0.0,0.0,0.0,0.0,0.0,0.0,0.0,0.0,0.0,0.0,0.0,0.0,0.0,0.0,0.0,0.0,0.0,0.0,0.0,0.0,0.0,0.0,0.0,0.0,0.0,0.0,0.0,0.0,0.0,0.0,0.0,0.0,0.0,0.0,0.0,0.0,0.0,0.0,0.0,0.0,0.0,0.0,0.0,0.0,0.0,0.0,0.0,0.0,0.0,0.0,0.0,0.0,0.0,0.0,0.0,0.0,0.0,0.0,0.0,0.0,0.0,0.0,0.0,0.0,0.0,0.0,0.0,0.0,0.0,0.0,0.0,0.0,0.0,0.0,0.0,0.0,0.0,0.0,0.0,0.0,0.0,0.0,0.0,0.0,0.0,0.0,0.0,0.0,0.1487,0.1669,0.1863,0.0,0.2155,0.2101,0.1984,0.1912,0.1771,0.1469,0.0,0.0,0.0,0.0,0.0,0.0,0.0,0.0,0.0,0.0,0.0,0.0,0.0,0.0,0.0,0.0,0.0,0.0,0.0,0.0,0.0,0.0,0.0,0.0,0.0,0.0,0.0,0.0,0.0,0.0,0.0,0.0,0.0,0.0,0.0,0.0,0.0,0.0,0.0,0.0,0.0,0.0,0.0,0.0,0.0,0.0,0.0,0.0,0.0,0.0,0.0,0.0,0.0,0.0,0.0,0.0,0.0,0.0,0.0,0.0,0.0,0.0,0.0,0.0,0.0,0.0,0.0,0.0,0.0,0.0,0.0,0.0,0.0,0.0,0.0,0.0,0.0,0.0,0.0,0.0,0.0,0.0,0.0,0.0,0.0,0.0,0.0,0.0,0.0,0.0,0.0,0.0,0.0,0.0,0.0,0.0,0.0,0.0,0.0,0.0,0.0,0.0,0.1594,0.1846,0.2015,0.2015,0.2017,0.198,0.1888,0.1761,0.1669,0.0,0.0,0.0,0.0,0.0,0.0,0.0,0.0,0.0,0.0,0.0,0.0,0.0,0.0,0.0,0.0,0.0,0.0,0.0,0.0,0.0,0.0,0.0,0.0,0.0,0.0,0.0,0.0,0.0,0.0,0.0,0.0,0.0,0.0,0.0,0.0,0.0,0.0,0.0,0.0,0.0,0.0,0.0,0.0,0.0,0.0,0.0,0.0,0.0,0.0,0.0,0.0,0.0,0.0,0.0,0.0,0.0,0.0,0.0,0.0,0.0,0.0,0.0,0.0,0.0,0.0,0.0,0.0,0.0,0.0,0.0,0.0,0.0,0.0,0.0,0.0,0.0,0.0,0.0,0.0,0.0,0.0,0.0,0.0,0.0,0.0,0.0,0.0,0.0,0.0,0.0,0.0,0.0,0.0,0.0,0.0,0.0,0.0,0.0,0.0,0.0,0.0,0.0,0.1507,0.1699,0.1811,0.1915,0.1921,0.1911,0.1884,0.1856,0.175,0.1533,0.0,0.0,0.0,0.0,0.0,0.0,0.0,0.0,0.0,0.0,0.0,0.0,0.0,0.0,0.0,0.0,0.0,0.0,0.0,0.0,0.0,0.0,0.0,0.0,0.0,0.0,0.0,0.0,0.0,0.0,0.0,0.0,0.0,0.0,0.0,0.0,0.0,0.0,0.0,0.0,0.0,0.0,0.0,0.0,0.0,0.0,0.0,0.0,0.0,0.0,0.0,0.0,0.0,0.0,0.0,0.0,0.0,0.0,0.0,0.0,0.0,0.0,0.0,0.0,0.0,0.0,0.0,0.0,0.0,0.0,0.0,0.0,0.0,0.0,0.0,0.0,0.0,0.0,0.0,0.0,0.0,0.0,0.0,0.0,0.0,0.0,0.0,0.0,0.0,0.0,0.0,0.0,0.0,0.0,0.0,0.0,0.0,0.0,0.0,0.0,0.0,0.0,0.1521,0.1721,0.1821,0.188,0.1915,0.1907,0.1833,0.1827,0.1713,0.1443,0.0,0.0,0.0,0.0,0.0,0.0,0.0,0.0,0.0,0.0,0.0,0.0,0.0,0.0,0.0,0.0,0.0,0.0,0.0,0.0,0.0,0.0,0.0,0.0,0.0,0.0,0.0,0.0,0.0,0.0,0.0,0.0,0.0,0.0,0.0,0.0,0.0,0.0,0.0,0.0,0.0,0.0,0.0,0.0,0.0,0.0,0.0,0.0,0.0,0.0,0.0,0.0,0.0,0.0,0.0,0.0,0.0,0.0,0.0,0.0,0.0,0.0,0.0,0.0,0.0,0.0,0.0,0.0,0.0,0.0,0.0,0.0,0.0,0.0,0.0,0.0,0.0,0.0,0.0,0.0,0.0,0.0,0.0,0.0,0.0,0.0,0.0,0.0,0.0,0.0,0.0,0.0,0.0,0.0,0.0,0.0,0.0,0.0,0.0,0.0,0.0,0.0,0.1597,0.1833,0.1964,0.189,0.1956,0.1897,0.1735,0.1713,0.1603,0.1355,0.0,0.0,0.0,0.0,0.0,0.0,0.0,0.0,0.0,0.0,0.0,0.0,0.0,0.0,0.0,0.0,0.0,0.0,0.0,0.0,0.0,0.0,0.0,0.0,0.0,0.0,0.0,0.0,0.0,0.0,0.0,0.0,0.0,0.0,0.0,0.0,0.0,0.0,0.0,0.0,0.0,0.0,0.0,0.0,0.0,0.0,0.0,0.0,0.0,0.0,0.0,0.0,0.0,0.0,0.0,0.0,0.0,0.0,0.0,0.0,0.0858,0.0,0.0,0.0,0.0,0.0,0.0,0.0,0.0,0.0,0.0,0.0,0.0,0.0,0.0,0.0,0.0,0.0,0.0,0.0,0.0,0.0,0.0,0.0,0.0,0.0,0.0,0.0,0.0,0.0,0.0,0.0,0.0,0.0,0.0,0.0,0.0,0.0,0.0,0.0,0.0,0.0,0.1588,0.1687,0.1785,0.1876,0.1899,0.1895,0.1856,0.1749,0.1655,0.1527,0.1488,0.0,0.0,0.0,0.0,0.0,0.0,0.0,0.0,0.0,0.0,0.0,0.0,0.0,0.0,0.0,0.0,0.0,0.0,0.0,0.0,0.0,0.0,0.0,0.0,0.0,0.0,0.0,0.0,0.0,0.0,0.0,0.0,0.0,0.0,0.0,0.0,0.0,0.0,0.0,0.0,0.0,0.0,0.0,0.0,0.0,0.0,0.0,0.0,0.0,0.0,0.0,0.0,0.0,0.0,0.0,0.0,0.0,0.0,0.0,0.0,0.1554,0.0,0.0,0.0,0.0,0.0,0.0,0.0,0.0,0.0,0.0,0.0,0.0,0.0,0.0,0.0,0.0,0.0,0.0,0.0,0.0,0.0,0.0,0.0,0.0,0.0,0.0,0.0,0.0,0.0,0.0,0.0,0.0,0.0,0.0,0.0,0.0,0.0,0.0,0.0,0.0,0.1621,0.1755,0.1855,0.1942,0.1986,0.2036,0.1952,0.1903,0.1761,0.1619,0.1609,0.0,0.0,0.0,0.0,0.0,0.0,0.0,0.0,0.0,0.0,0.0,0.0,0.0,0.0,0.0,0.0,0.0,0.0,0.0,0.0,0.0,0.0,0.0,0.0,0.0,0.0,0.0,0.0,0.0,0.0,0.0,0.0,0.0,0.0,0.0,0.0,0.0,0.0,0.0,0.0,0.0,0.0,0.0,0.0,0.0,0.0,0.0,0.0,0.0,0.0,0.0,0.0,0.0,0.191,0.2029,0.1794,0.1794,0.1997,0.2392,0.2391,0.2447,0.2558,0.0,0.0,0.0,0.0,0.0,0.0,0.0,0.0,0.0,0.0,0.0,0.0,0.0,0.0,0.0,0.0,0.0,0.0,0.0,0.0,0.0,0.0,0.0,0.0,0.0,0.3245,0.3333,0.0,0.0,0.0,0.0,0.0,0.0,0.0,0.0,0.0,0.0,0.0,0.0,0.1739,0.1883,0.2023,0.204,0.2153,0.2169,0.2048,0.2027,0.1921,0.1695,0.1699,0.1627,0.0,0.0,0.0,0.0,0.0,0.0,0.0,0.0,0.0,0.0,0.0,0.0,0.0,0.0,0.0,0.0,0.0,0.0,0.0,0.0,0.0,0.0,0.0,0.0,0.0,0.0,0.0,0.0,0.0,0.0,0.0,0.0,-0.0558,-0.0569,0.0,0.0,0.0,0.0,0.0,0.0,0.0,0.0,0.0,0.0,0.0,0.0,0.0,0.0,0.0982,0.1625,0.1917,0.1926,0.242,0.2816,0.2958,0.2958,0.316,0.3493,0.3492,0.0,0.2563,0.2214,0.0,0.0,0.0,0.0,0.0,0.0,0.0,0.0,0.0,0.0,0.0,0.0,0.0,0.0,0.0,0.0,0.0,0.0,0.0,0.0,0.0,0.0,0.295,0.2558,0.3071,0.3467,0.0,0.2838,0.2696,0.2316,0.0,0.0,0.0,0.0,0.0,0.0,0.0,0.0,0.1909,0.2003,0.2048,0.2174,0.2192,0.2194,0.2182,0.2064,0.2003,0.1966,0.1901,0.1813,0.1661,0.1593,0.0,0.0,0.0,0.0,0.0,0.0,0.0,0.0,0.0,0.0,0.0,0.0,0.0,0.0,0.0,0.0,0.0,0.0,0.0,0.0,0.0,0.0,0.0,0.0,0.0,0.0,0.0,0.0,0.0,-0.0571,-0.0605,-0.0608,-0.0635,-0.0637,0.0,0.0,0.0,0.0,0.0,0.0,0.0,0.0,0.0,0.096,0.1191,0.158,0.1992,0.2535,0.2722,0.2656,0.3107,0.3445,0.3517,0.3517,0.3585,0.3725,0.3725,0.3515,0.3047,0.2734,0.2633,0.2684,0.0,0.0,0.0,0.0,0.0,0.2632,0.268,0.2627,0.0,0.0,0.0,0.0,0.0,0.0,0.0,0.0,0.0,0.0,0.0,0.0,0.0,0.303,0.3294,0.3577,0.35,0.3349,0.3104,0.0,0.2347,0.2039,0.1678,0.0,0.0,0.0,0.0,0.2013,0.2084,0.218,0.2258,0.2297,0.2256,0.2271,0.2271,0.219,0.2072,0.2021,0.2029,0.2011,0.1827,0.1831,0.1748,0.0,0.0,0.0,0.0,0.0,0.0,0.0,0.0,0.0,0.0,0.0,0.0,0.0,0.0,0.0,0.0,0.0,0.0,0.0,0.0,0.0,0.0,0.0,0.0,0.0,0.0,0.0,0.0,-0.0626,-0.0646,-0.0662,-0.0703,-0.071,0.0,0.0,0.0,0.0,0.0,0.0,-0.0,0.0551,0.111,0.1718,0.1976,0.236,0.298,0.3349,0.3405,0.3281,0.3664,0.3858,0.3858,0.3858,0.3858,0.3858,0.3858,0.377,0.3573,0.3274,0.3143,0.3068,0.2858,0.2826,0.2836,0.2928,0.298,0.2938,0.3076,0.3017,0.2942,0.2863,0.0,0.2701,0.2451,0.0,0.0,0.0,0.0,0.2728,0.274,0.2868,0.3095,0.3332,0.3507,0.364,0.3647,0.3528,0.3273,0.0,0.2576,0.2252,0.1895,0.0,0.0,0.0,0.0,0.2266,0.2274,0.2336,0.2417,0.2417,0.2356,0.2315,0.2315,0.2258,0.2182,0.2091,0.215,0.2149,0.1923,0.1982,0.1901,0.1613,0.0,0.0,0.0,0.0,0.0,0.0,0.0,0.0,0.0,0.0,0.0,0.0,0.0,0.0,0.0,0.0,0.0,0.0,0.0,0.0,0.0,0.0,0.0,0.0,0.0,0.0,0.0,0.0,0.0,-0.0808,-0.0834,0.0,0.0,0.0,0.0,-0.0802,-0.0828,-0.0592,-0.0061,0.0566,0.1181,0.1879,0.2646,0.3143,0.3387,0.3623,0.3785,0.3873,0.3965,0.4008,0.4008,0.4008,0.4008,0.4008,0.4008,0.3959,0.385,0.3632,0.3539,0.3595,0.3632,0.3659,0.3604,0.3571,0.3533,0.3531,0.3407,0.334,0.3336,0.3395,0.3205,0.303,0.2848,0.2797,0.0,0.0,0.2872,0.2997,0.3001,0.3247,0.3496,0.3129,0.3317,0.3498,0.3125,0.3074,0.3064,0.0,0.2785,0.2532,0.2287,0.0,0.2264,0.2256,0.227,0.2311,0.2393,0.2411,0.2417,0.2417,0.2413,0.2409,0.2409,0.2407,0.2364,0.2274,0.2272,0.2197,0.2017,0.2015,0.1889,0.1705,0.1617,0.0,0.0,0.0,0.0,0.0,0.0,0.0,0.0,0.0,0.0,0.0,0.0,0.0,0.0,0.0,0.0,0.0,0.0,0.0,0.0,0.0,0.0,0.0,0.0,0.0,0.0,0.0,0.0,-0.0849,-0.0896,0.0,0.0,-0.0881,-0.0914,-0.0923,-0.068,-0.039,-0.0201,0.0689,0.1504,0.2109,0.2187,0.2626,0.3566,0.2613,0.2387,0.2824,0.2428,0.2184,0.2184,0.2184,0.2184,0.2184,0.2184,0.2175,0.2153,0.2564,0.3073,0.3595,0.3576,0.3542,0.3547,0.3509,0.352,0.352,0.345,0.3452,0.3442,0.3383,0.3279,0.3177,0.3173,0.3173,0.3185,0.3244,0.3283,0.3305,0.3305,0.3442,0.3511,0.3374,0.3396,0.34,0.3207,0.3109,0.3086,0.3038,0.2858,0.2672,0.254,0.2507,0.2488,0.2378,0.2468,0.2536,0.2509,0.2558,0.2593,0.2593,0.254,0.2505,0.2505,0.2452,0.2378,0.2287,0.228,0.2229,0.2155,0.2151,0.2048,0.1883,0.1888,0.1754,0.0,0.0,0.0,0.0,0.0,0.0,0.0,0.0,0.0,0.0,0.0,0.0,0.0,0.0,0.0,0.0,0.0,0.0,0.0,0.0,0.0,0.0,0.0,0.0,0.0,0.0,-0.0894,-0.0924,-0.0973,-0.0987,-0.0947,-0.0989,-0.1022,-0.1032,-0.0748,-0.0496,-0.0291,0.0672,0.1388,0.1765,0.1847,0.2209,0.2888,0.1785,0.145,0.189,0.146,0.1288,0.1288,0.1288,0.1288,0.1288,0.1288,0.1288,0.1287,0.1705,0.2399,0.3243,0.348,0.3605,0.3681,0.3681,0.3681,0.3681,0.3681,0.3681,0.3667,0.3573,0.3503,0.3454,0.3452,0.3452,0.3458,0.3491,0.3499,0.3499,0.3499,0.3499,0.3499,0.3499,0.3454,0.3393,0.3332,0.3246,0.3164,0.3168,0.297,0.2832,0.2765,0.2745,0.2724,0.2607,0.2701,0.2758,0.2753,0.2799,0.2768,0.274,0.2683,0.2634,0.2657,0.2544,0.2458,0.2334,0.2327,0.2276,0.2205,0.2201,0.2155,0.2019,0.1986,0.1882,0.1699,0.0,0.0,0.0,0.0,0.0,0.0,0.0,0.0,0.0,0.0,0.0,0.0,0.0,0.0,0.0,0.0,0.0,0.0,0.0,0.0,0.0,0.0,0.0,-0.0908,-0.0908,-0.0958,-0.0989,-0.1069,-0.11,-0.1044,-0.1117,-0.1156,-0.1127,-0.1181,-0.0921,-0.0393,0.0482,0.0904,0.084,0.1683,0.1872,0.1305,0.1219,0.1231,0.1345,0.1345,0.1345,0.1345,0.1345,0.1345,0.1345,0.1344,0.1344,0.1343,0.1229,0.1653,0.2428,0.3306,0.3783,0.3952,0.4036,0.4036,0.4036,0.4036,0.4036,0.4022,0.3932,0.3903,0.3871,0.3691,0.3638,0.3622,0.354,0.3518,0.3516,0.3514,0.3514,0.3511,0.3507,0.3505,0.3503,0.3503,0.3432,0.3438,0.3438,0.322,0.303,0.302,0.3018,0.3015,0.3015,0.3015,0.0,0.3015,0.3015,0.2921,0.284,0.2832,0.2795,0.2703,0.2695,0.2615,0.2429,0.2417,0.234,0.2211,0.2205,0.2161,0.2027,0.1933,0.1886,0.1886,0.0,0.0,0.0,0.0,0.0,0.0,0.0,0.0,0.0,0.0,0.0,0.0,0.0,0.0,0.0,0.0,0.0,0.0,0.0,0.0,0.0,0.0,-0.0918,-0.0918,-0.0988,-0.105,-0.1081,-0.1125,-0.1147,-0.1132,-0.1172,-0.1205,-0.1219,-0.1256,-0.121,-0.1073,-0.0415,0.0084,0.0258,0.0258,0.0525,0.109,-0.0091,-0.0459,0.0094,-0.0469,-0.0656,-0.0656,-0.0656,-0.0656,-0.0749,-0.0738,-0.074,-0.0655,-0.0183,0.0273,0.0814,0.2315,0.3275,0.3783,0.395,0.4036,0.4036,0.4036,0.4036,0.4032,0.4006,0.3997,0.3989,0.3938,0.3924,0.3918,0.3895,0.3889,0.3873,0.3808,0.3789,0.3773,0.3705,0.364,0.3591,0.3591,0.3524,0.3462,0.3462,0.3401,0.3287,0.3087,0.3059,0.3015,0.3015,0.3015,0.0,0.3015,0.3015,0.3007,0.2921,0.2919,0.2885,0.2797,0.2789,0.2683,0.2434,0.2417,0.2366,0.2299,0.2292,0.2236,0.2209,0.2058,0.198,0.0,0.0,0.0,0.0,0.0,0.0,0.0,0.0,0.0,0.0,0.0,0.0,0.0,0.0,0.0,0.0,0.0,0.0,0.0,0.0,0.0,0.0,-0.0931,-0.1003,-0.0952,-0.1062,-0.111,-0.1154,-0.1186,-0.1209,-0.1222,-0.1251,-0.1276,-0.1294,-0.1322,-0.1347,-0.1365,-0.0774,-0.0434,-0.0616,-0.0444,-0.0271,-0.0092,-0.1026,-0.132,-0.0858,-0.1335,-0.1526,-0.1526,-0.1526,-0.1526,0.0,-0.1507,-0.151,-0.143,-0.1036,-0.0562,0.0,0.0,0.0,0.0,0.0,0.406,0.4146,0.4146,0.4146,0.4146,0.4146,0.4146,0.4138,0.4104,0.4093,0.4085,0.4046,0.4036,0.4024,0.3971,0.3957,0.3932,0.3842,0.3779,0.373,0.3691,0.3614,0.3552,0.3552,0.3524,0.0,0.3289,0.3187,0.3191,0.3191,0.3093,0.3068,0.3068,0.3068,0.3054,0.3015,0.3074,0.2977,0.2887,0.2848,0.0,0.0,0.0,0.2434,0.2342,0.2338,0.0,0.0,0.0,0.0,0.0,0.0,0.0,0.0,0.1905,0.1831,0.0,0.0,0.0,0.0,0.0,0.0,0.0,0.0,0.0,0.0,0.0,0.0,0.0,0.0,0.0,0.0,-0.101,-0.1097,-0.1127,-0.1137,-0.116,-0.1211,-0.1244,-0.1274,-0.1305,-0.1335,-0.1353,-0.1353,-0.1379,-0.1395,-0.1395,0.0,0.0,0.0,0.0,-0.0836,-0.1491,-0.1517,-0.1533,-0.1536,-0.1536,-0.1536,-0.1536,-0.1536,-0.1536,-0.1536,-0.1532,-0.1533,-0.1536,-0.1532,-0.1148,-0.0477,0.056,0.1557,0.2435,0.343,0.3882,0.4148,0.4238,0.0,0.0,0.433,0.433,0.4314,0.4228,0.4202,0.4183,0.4091,0.4065,0.4063,0.4055,0.405,0.4028,0.3936,0.3916,0.3889,0.3797,0.3714,0.3652,0.3644,0.3581,0.353,0.353,0.3446,0.3379,0.3379,0.3301,0.3242,0.3242,0.3232,0.3195,0.3113,0.0,0.0,0.3038,0.2841,0.2696,0.2599,0.2518,0.2442,0.2313,0.236,0.2501,0.2638,0.263,0.2624,0.2624,0.2624,0.263,0.2632,0.2238,0.2168,0.0,0.0,0.0,0.0,0.0,0.0,0.0,0.0,0.0,0.0,0.0,0.0,0.0,0.0,0.0,-0.0999,-0.1087,-0.1159,-0.1189,-0.1236,-0.1263,-0.125,-0.1275,-0.1306,-0.1336,-0.1365,-0.1382,-0.1382,-0.141,-0.1427,-0.1427,-0.1364,0.0,-0.1472,-0.1313,-0.1338,-0.1553,-0.156,-0.1575,-0.1599,0.0,0.0,-0.1599,-0.1599,-0.1599,-0.1598,-0.1573,-0.1577,-0.1597,-0.1573,-0.1465,-0.1169,0.0382,0.1227,0.1599,0.2542,0.3011,0.3384,0.3951,0.433,0.452,0.452,0.452,0.4504,0.4412,0.4385,0.0,0.4273,0.4249,0.4232,0.4165,0.4146,0.4124,0.4032,0.401,0.3985,0.3893,0.3859,0.3824,0.3752,0.3724,0.3714,0.3714,0.3581,0.3475,0.3475,0.3395,0.3338,0.3338,0.3273,0.322,0.3203,0.3201,0.3164,0.3071,0.2541,0.2105,0.1929,0.1794,0.1726,0.1828,0.2288,0.2642,0.2774,0.2703,0.2664,0.2664,0.2664,0.2703,0.2768,0.2552,0.2509,0.0,0.0,0.0,0.0,0.0,0.0,0.0,0.0,0.0,0.0,0.0,-0.2214,0.0,0.0,-0.1029,-0.109,-0.1151,-0.1205,-0.1251,-0.1284,-0.1297,-0.1281,-0.132,-0.1352,-0.1367,-0.1395,-0.1412,-0.1412,-0.1441,-0.1458,-0.1458,-0.1487,-0.1503,-0.1503,-0.1533,-0.1556,-0.1571,-0.1586,-0.1602,-0.1617,-0.1617,-0.1617,-0.1617,-0.1617,-0.1617,-0.1616,-0.16,-0.1603,-0.1615,-0.16,-0.1594,-0.1493,-0.0689,0.0097,0.0667,0.1523,0.2188,0.2855,0.3425,0.3996,0.4381,0.4571,0.4573,0.4563,0.4518,0.4504,0.4493,0.4449,0.4404,0.4357,0.4316,0.4271,0.4214,0.4126,0.4104,0.4079,0.3987,0.3967,0.3955,0.391,0.3863,0.3832,0.3832,0.372,0.3616,0.3571,0.3489,0.3432,0.3432,0.3391,0.3346,0.3301,0.3295,0.3121,0.2701,0.1882,0.139,0.1267,0.1203,0.1323,0.1625,0.2047,0.241,0.2715,0.2787,0.2821,0.2821,0.2821,0.287,0.2958,0.2913,0.2866,0.0,0.0,0.0,0.0,0.0,0.0,0.0,0.0,-0.3755,-0.3974,-0.3307,-0.2748,-0.2901,-0.2046,-0.1397,-0.1459,-0.1356,-0.1247,-0.1296,-0.1312,-0.132,-0.132,-0.1361,-0.1393,-0.1398,-0.1421,-0.1438,-0.1444,-0.1467,-0.1483,-0.1489,-0.1519,-0.1535,-0.1535,-0.1564,-0.158,-0.158,-0.1605,-0.1617,-0.1617,-0.1617,-0.1617,-0.1617,-0.1617,-0.1617,-0.1617,-0.1617,-0.1617,-0.1617,-0.1617,-0.1617,-0.1617,-0.1617,-0.1091,-0.0289,0.0481,0.1348,0.2119,0.2501,0.3078,0.3754,0.414,0.414,0.4043,0.4411,0.4214,0.4019,0.4387,0.433,0.4181,0.4276,0.4302,0.4308,0.424,0.421,0.4173,0.4081,0.4063,0.4057,0.4038,0.3975,0.3926,0.3926,0.385,0.3759,0.3667,0.3579,0.3524,0.3524,0.3509,0.3471,0.3399,0.3248,0.2792,0.1831,0.1128,0.0646,0.0439,0.0501,0.0815,0.1253,0.163,0.2069,0.2573,0.2882,0.3015,0.3097,0.3097,0.3081,0.3171,0.3246,0.3191,-0.5768,-0.472,0.0,-0.3922,-0.3774,-0.3773,0.0,0.0,-0.4081,-0.4021,-0.4031,-0.3939,-0.3447,-0.2767,-0.2319,-0.2332,-0.1724,-0.1295,-0.1301,-0.1348,-0.138,-0.138,-0.1386,-0.14,-0.1427,-0.1433,-0.1446,-0.1474,-0.1478,-0.1493,-0.1519,-0.155,-0.1566,-0.1566,-0.1596,-0.1611,-0.1611,-0.1615,-0.1617,-0.1617,-0.1617,-0.1617,-0.1617,-0.1617,-0.1617,-0.1617,-0.1617,-0.1617,-0.1617,-0.1617,-0.1617,-0.1617,-0.1617,-0.1512,-0.1305,-0.0502,-0.0,0.0401,0.1102,0.1603,0.2004,0.2803,0.2503,0.2197,0.3535,0.3028,0.2141,0.3543,0.3518,0.3317,0.4078,0.4301,0.4418,0.4408,0.4344,0.4261,0.4175,0.4157,0.4134,0.405,0.4028,0.402,0.402,0.3944,0.3852,0.3763,0.3671,0.3612,0.3612,0.3546,0.3495,0.3485,0.2827,0.1792,0.0349,0.0139,-0.0206,-0.0867,-0.0466,-0.0067,0.02,0.1132,0.1797,0.2261,0.2727,0.3102,0.3386,0.3386,0.3365,0.3454,0.3465,0.3416,-0.6474,0.0,0.0,0.0,-0.4569,-0.4517,-0.4787,-0.4783,-0.472,-0.4801,-0.461,-0.4365,-0.4217,-0.3691,-0.3047,0.0,-0.2244,-0.1886,-0.1432,-0.1374,-0.139,-0.139,-0.1406,-0.1421,-0.1433,-0.1436,-0.1448,-0.1478,-0.1497,-0.1521,-0.1551,-0.1581,-0.1598,-0.1598,-0.161,-0.1617,-0.1617,-0.1635,-0.1635,-0.1617,-0.1652,-0.1659,-0.1643,-0.166,-0.1667,-0.1667,-0.1667,-0.1667,-0.1667,-0.1667,-0.1667,-0.1667,-0.1667,-0.1667,-0.1664,-0.1222,-0.0707,-0.0202,0.0302,0.0907,0.1412,0.1915,0.1915,0.1711,0.2397,0.2092,0.1691,0.2369,0.2344,0.2225,0.2516,0.2958,0.3376,0.3429,0.3763,0.4172,0.4265,0.4246,0.4234,0.4197,0.4148,0.4116,0.4116,0.4038,0.3965,0.3928,0.3799,0.3705,0.3705,0.3675,0.3481,0.291,0.1689,0.058,-0.0,-0.043,-0.0856,-0.1129,-0.0917,-0.0635,-0.0282,0.0282,0.0987,0.1903,0.2324,0.2762,0.3299,0.3371,0.3462,0.3501,0.355,0.3552,-0.668,0.0,0.0,-0.5258,-0.5213,-0.5174,-0.5214,-0.5192,-0.5301,-0.5456,-0.5224,-0.4979,-0.509,-0.4545,0.0,-0.3381,-0.2935,-0.2408,-0.1899,-0.1563,-0.139,-0.139,-0.1402,-0.1414,-0.1422,-0.143,-0.1451,-0.149,-0.1513,-0.1543,-0.1582,-0.1605,-0.1617,-0.1617,-0.1625,-0.1629,-0.1629,-0.1659,-0.1662,-0.1641,-0.1684,-0.1693,-0.1675,-0.1695,-0.1704,-0.1704,-0.1704,-0.1704,-0.1704,-0.1704,-0.1704,-0.1704,-0.1704,-0.1704,-0.1699,-0.1656,-0.1227,-0.0713,-0.0508,-0.0101,0.0504,0.0908,0.0908,0.0807,0.121,0.1109,0.0807,0.121,0.1198,0.1185,0.1383,0.185,0.2296,0.2452,0.2899,0.3333,0.372,0.3884,0.3969,0.4125,0.4251,0.4208,0.4208,0.4132,0.4073,0.4073,0.3691,0.3588,0.3803,0.362,0.3036,0.1836,0.0676,-0.0148,-0.0369,-0.0884,-0.1175,-0.1167,-0.1166,-0.1021,-0.0656,-0.0364,0.0219,0.1166,0.1748,0.2338,0.2945,0.3316,0.3475,0.3573,0.3636,0.3665,0.0,0.0,-0.5385,-0.5385,-0.5395,-0.5434,-0.5653,-0.5625,-0.5652,-0.5744,-0.5882,-0.5942,-0.5952,-0.5381,-0.4961,-0.5084,-0.3716,-0.262,-0.2767,-0.1996,-0.139,-0.139,-0.1367,-0.1361,0.0,-0.1418,-0.146,-0.152,-0.1525,-0.1552,-0.1612,-0.1616,-0.1617,-0.1617,-0.1645,-0.1661,-0.1661,-0.1689,-0.1703,-0.1701,-0.1703,-0.1704,-0.1703,-0.1704,-0.1704,-0.1704,-0.1704,-0.1704,-0.1704,-0.1704,-0.1704,-0.1704,-0.1704,-0.1704,-0.1704,-0.1702,-0.1684,-0.1661,-0.1661,-0.1641,-0.1415,-0.0606,-0.0909,-0.1212,0.0303,-0.0303,-0.1212,0.0403,0.0403,0.0201,0.1007,0.139,0.1566,0.1566,0.1446,0.1607,0.2411,0.2677,0.303,0.3782,0.4121,0.4295,0.4295,0.4224,0.4169,0.4169,0.3318,0.2908,0.3824,0.3102,0.1881,0.0235,-0.0,-0.031,-0.1137,-0.1211,-0.1198,-0.1168,-0.1166,-0.1166,-0.1166,-0.0656,-0.0291,-0.0073,0.1093,0.1918,0.2417,0.3023,0.3444,0.3754,0.3759,0.3759,0.0,0.0,-0.5767,-0.588,-0.5833,-0.5824,-0.6102,-0.594,-0.5751,-0.5983,-0.5953,-0.5878,-0.5878,-0.5777,-0.5334,-0.4266,-0.3718,-0.3059,-0.203,-0.1597,-0.1406,-0.1367,-0.1388,0.0,0.0,0.0,0.0,-0.152,-0.1526,-0.1553,-0.1613,-0.1617,-0.1617,-0.1617,-0.1647,-0.1662,-0.1662,-0.171,-0.1724,-0.1705,-0.1725,-0.1745,-0.1765,-0.1765,-0.1765,-0.1765,-0.1765,-0.1765,-0.1765,-0.1765,-0.1765,-0.1765,-0.1765,-0.1765,-0.1765,-0.1765,-0.1746,-0.1718,-0.1697,-0.1683,-0.157,-0.1361,-0.1465,-0.1569,-0.1046,-0.1245,-0.1544,-0.1029,-0.0917,-0.101,-0.0707,-0.0201,0.0299,0.0393,0.078,0.1254,0.1608,0.179,0.1873,0.2203,0.2284,0.2365,0.2332,0.276,0.3089,0.3044,0.2775,0.2455,0.2113,0.1352,0.0627,0.0078,-0.0549,-0.0939,-0.1243,-0.1242,-0.1238,-0.1304,-0.1304,-0.1304,-0.1304,-0.1074,-0.0537,0.0383,0.0919,0.1767,0.2868,0.3254,0.3579,0.3765,0.3826,0.3852,0.0,-0.6143,-0.6038,-0.6346,-0.6278,-0.621,-0.6431,-0.6318,-0.608,-0.6073,-0.6019,-0.5858,-0.5803,-0.5847,-0.5591,-0.4683,-0.4405,-0.3787,-0.2552,-0.2126,-0.1756,-0.1367,-0.1387,0.0,0.0,0.0,0.0,-0.1519,-0.1526,-0.1553,-0.1613,-0.1617,-0.1617,-0.1617,-0.1656,-0.1677,-0.1677,-0.1736,-0.1756,-0.1737,-0.1757,-0.1776,-0.1795,-0.1795,-0.1795,-0.1795,-0.1795,-0.1795,-0.1795,-0.1795,-0.1795,-0.1795,-0.1795,-0.1795,-0.1795,-0.1795,-0.1782,-0.1761,-0.1731,-0.1713,-0.1704,-0.1704,-0.1704,-0.1704,-0.1704,-0.1692,-0.1677,-0.1677,-0.1656,-0.1633,-0.1633,-0.1218,-0.0805,-0.0696,-0.0198,0.0197,0.058,0.0769,0.0861,0.1218,0.1306,0.1391,0.1362,0.1799,0.196,0.1583,0.1616,0.1409,0.0823,0.0325,-0.0161,-0.0402,-0.0966,-0.1285,-0.1274,-0.1273,-0.1269,-0.1336,-0.1335,-0.1335,-0.1335,-0.1335,-0.0943,-0.0079,0.0471,0.1333,0.2431,0.3084,0.357,0.3814,0.3906,0.3948,-0.6143,-0.6096,-0.6322,-0.6611,-0.6696,-0.6696,-0.6708,-0.6604,-0.6472,-0.616,-0.6062,-0.6001,0.0,0.0,-0.5878,-0.6186,-0.5498,-0.4692,-0.4136,-0.3299,-0.2432,0.0,0.0,0.0,0.0,0.0,0.0,-0.1522,0.0,-0.1553,-0.1613,-0.1617,-0.1617,-0.1617,-0.1673,-0.1704,-0.1704,-0.1765,-0.1795,-0.1795,-0.1795,-0.1795,-0.1795,-0.1795,-0.1795,-0.1795,-0.1795,-0.1795,-0.1795,-0.1795,-0.1795,-0.1795,-0.1795,-0.1795,-0.1795,-0.1795,-0.1795,-0.1791,-0.1762,-0.1733,-0.1709,-0.1709,-0.1709,-0.1709,-0.1709,-0.1707,-0.1707,-0.1707,-0.1686,-0.1664,-0.1662,-0.1641,-0.1619,-0.1617,-0.1617,-0.1408,-0.0691,-0.0295,0.0098,0.0765,0.1047,0.123,0.1299,0.1272,0.0986,0.009,-0.0088,-0.0086,-0.0169,-0.0168,-0.042,-0.1179,-0.1263,-0.1337,-0.1307,-0.1305,-0.1292,-0.1264,-0.1262,-0.1262,-0.1262,-0.1262,-0.1262,-0.1262,-0.0,0.0866,0.1337,0.2654,0.3498,0.391,0.3999,0.4042,-0.6301,-0.6371,-0.6566,-0.6672,-0.6696,-0.6729,-0.6859,-0.6479,-0.6106,-0.6145,-0.5758,-0.5315,0.0,0.0,0.0,-0.4921,-0.4365,0.0,-0.3102,-0.2288,0.0,0.0,0.0,-0.1441,-0.1425,-0.1465,0.0,0.0,-0.1539,-0.1553,-0.1613,-0.1617,-0.1617,-0.1617,-0.1673,-0.1704,-0.1704,-0.1765,-0.1795,-0.1795,-0.1795,-0.1795,-0.1795,-0.1795,-0.1795,-0.1795,-0.1795,-0.1795,-0.1795,-0.1795,-0.1795,-0.1795,-0.1795,-0.1795,-0.1795,-0.1795,-0.1795,-0.1794,-0.1787,-0.1778,-0.1772,-0.1772,-0.1772,-0.1772,-0.1772,-0.1756,-0.1738,-0.1738,-0.1716,-0.1689,-0.1668,-0.1656,-0.1645,-0.1622,-0.1617,-0.1413,-0.0602,-0.0401,-0.0299,-0.0098,-0.0481,-0.0571,-0.0,-0.0372,-0.0642,-0.0367,-0.0721,-0.1059,-0.1036,-0.102,-0.1094,-0.1263,-0.1263,-0.1261,-0.1337,-0.1337,-0.1333,-0.1325,-0.1325,-0.1325,-0.1325,-0.1325,-0.1076,-0.0661,0.0248,0.1156,0.2061,0.2905,0.3582,0.4004,0.4095,0.4138,-0.6438,-0.6473,-0.6704,-0.679,-0.681,-0.6794,-0.6733,-0.6418,-0.6101,-0.5962,-0.5536,0.0,0.0,0.0,0.0,0.0,0.0,0.0,-0.3227,-0.2548,-0.1875,0.0,-0.1452,0.0,-0.1457,-0.1498,-0.1538,0.0,-0.1555,-0.1566,-0.1614,-0.1617,-0.1617,-0.1617,-0.1673,-0.1717,-0.1744,-0.1778,-0.1795,-0.1795,-0.1795,-0.1795,-0.1795,-0.1795,-0.1795,-0.1795,0.0,-0.1795,-0.1795,-0.1795,-0.1795,-0.1795,-0.1795,-0.1795,-0.1795,-0.1795,-0.1795,-0.1795,-0.1795,-0.1795,-0.1795,-0.1795,-0.1795,-0.1795,-0.1795,-0.1783,-0.177,-0.177,-0.1748,-0.172,-0.1705,-0.169,-0.1673,-0.1643,-0.1637,-0.1429,-0.0607,-0.0303,-0.0101,0.0199,-0.0391,-0.0869,-0.0483,-0.1045,-0.1407,-0.0938,-0.1198,-0.1449,-0.1432,-0.1404,-0.1386,-0.1386,-0.1386,-0.1381,-0.1367,-0.1367,-0.1361,-0.1264,-0.1263,-0.1263,-0.1263,-0.1263,-0.1179,-0.0841,0.0168,0.1092,0.1846,0.2968,0.3666,0.4097,0.4274,0.4406,-0.6563,-0.6554,-0.6733,-0.695,-0.697,-0.6802,-0.6489,-0.6347,-0.6144,-0.5673,0.0,0.0,-0.5056,0.0,-0.5203,-0.5511,0.0,-0.4434,-0.3912,-0.3131,-0.2412,-0.1524,-0.1466,-0.1487,-0.1487,-0.1518,-0.1549,-0.1576,-0.1577,-0.1589,-0.1615,-0.1617,-0.162,-0.1628,-0.1677,-0.1733,-0.1794,-0.1795,-0.1795,-0.1795,-0.1795,-0.1795,-0.1795,-0.1795,-0.1795,-0.1795,0.0,0.0,-0.1795,-0.1795,-0.1795,-0.1795,-0.1795,-0.1795,-0.1795,-0.1795,-0.1795,-0.1795,-0.1795,-0.1795,-0.1795,-0.1795,-0.1795,-0.1795,-0.1795,-0.1795,-0.1795,-0.1795,-0.1776,-0.1755,-0.175,-0.173,-0.1703,-0.1675,-0.1665,-0.1448,-0.0407,0.0101,0.0504,0.131,0.0498,-0.0197,-0.0296,-0.0873,-0.1436,-0.1532,-0.1506,-0.1485,-0.1481,-0.1454,-0.1436,-0.1436,-0.1436,-0.1425,-0.1398,-0.1396,-0.1385,-0.1276,-0.1274,-0.1274,-0.1274,-0.1274,-0.1274,-0.1274,-0.0,0.0932,0.1356,0.2764,0.3751,0.428,0.4532,0.475,-0.6689,-0.6554,-0.67,-0.6717,-0.6619,-0.6497,-0.6432,-0.59,0.0,0.0,0.0,-0.4728,-0.4645,-0.4782,0.0,-0.5352,0.0,0.0,0.0,0.0,-0.1583,0.0,0.0,0.0,0.0,0.0,0.0,0.0,0.0,0.0,-0.1616,-0.1617,-0.1639,-0.1687,-0.1699,-0.1733,-0.1794,-0.1795,-0.1795,-0.1795,-0.1795,-0.1795,-0.1795,-0.1795,-0.1795,-0.1795,-0.1795,0.0,-0.1795,-0.1795,-0.1795,-0.1795,-0.1795,-0.1795,-0.1795,-0.1795,-0.1795,-0.1795,-0.1795,-0.1795,-0.1795,-0.1795,-0.1795,-0.1795,-0.1795,-0.1795,-0.1795,-0.1795,-0.1791,-0.1781,-0.1756,-0.1746,-0.1734,-0.1704,-0.1679,-0.1245,0.031,0.1325,0.2117,0.2417,0.1608,0.0702,-0.0,-0.0395,-0.0782,-0.1465,-0.1538,-0.1509,-0.1484,-0.1454,-0.1436,-0.1436,-0.1436,-0.1433,-0.1428,-0.1427,-0.1425,-0.1421,-0.1421,-0.1421,-0.1421,-0.1421,-0.1421,-0.1421,-0.0,0.0886,0.1416,0.2847,0.3924,0.4636,0.4652,0.4748,-0.6751,-0.6627,-0.6692,-0.668,-0.6546,-0.6371,-0.6185,0.0,0.0,0.0,0.0,-0.4507,-0.4487,0.0,0.0,0.0,0.0,0.0,0.0,0.0,0.0,0.0,0.0,0.0,0.0,0.0,0.0,0.0,0.0,0.0,-0.1617,-0.1617,-0.1643,-0.1703,-0.1704,-0.1733,-0.1794,-0.1795,-0.1795,-0.1795,-0.1795,-0.1795,-0.1795,-0.1795,-0.1795,-0.1795,-0.1795,0.0,-0.1795,-0.1795,-0.1795,-0.1795,-0.1795,-0.1795,-0.1795,-0.1795,-0.1795,-0.1795,-0.1795,-0.1795,-0.1795,-0.1795,-0.1795,-0.1795,-0.1795,-0.1795,-0.1795,-0.1795,-0.1795,-0.1791,-0.1777,-0.1774,-0.1655,-0.1192,-0.0317,0.0414,0.1126,0.2132,0.3128,0.3528,0.272,0.1914,0.131,0.0801,0.0299,-0.0299,-0.0294,-0.0386,-0.086,-0.0844,-0.1011,-0.1349,-0.1436,-0.1436,-0.1436,-0.1436,-0.1436,-0.1436,-0.1436,-0.1256,-0.0897,-0.0897,-0.0718,-0.0359,0.0718,0.1524,0.197,0.3133,0.4121,0.475,0.4926,0.5104,-0.671,-0.6607,-0.6635,-0.6623,-0.6489,-0.6278,-0.5961,-0.5579,0.0,0.0,0.0,-0.4363,-0.4371,0.0,0.0,0.0,0.0,0.0,0.0,0.0,0.0,0.0,0.0,0.0,0.0,0.0,0.0,0.0,0.0,0.0,-0.1617,-0.1617,-0.1643,-0.1703,-0.1704,-0.1733,-0.1794,-0.1795,-0.1795,-0.1795,-0.1795,-0.1795,-0.1795,-0.1795,-0.1795,-0.1795,-0.1795,0.0,0.0,-0.1795,-0.1795,-0.1795,-0.1795,-0.1795,-0.1795,-0.1795,-0.1795,-0.1795,-0.1795,-0.1795,-0.1795,-0.1795,-0.1795,-0.1795,-0.1795,-0.1795,-0.1795,-0.1795,-0.1795,-0.1795,-0.1795,-0.1683,-0.1339,-0.0546,0.0745,0.1762,0.1622,0.2522,0.3533,0.4237,0.3527,0.2719,0.252,0.1916,0.1411,0.1008,0.0995,0.0788,0.0098,-0.0194,-0.0473,-0.1095,-0.1358,-0.1442,-0.1436,-0.1436,-0.1436,-0.1436,-0.1256,-0.0987,-0.0628,-0.0359,0.009,0.0538,0.1435,0.2152,0.2686,0.3582,0.4297,0.4839,0.5193,0.546,-0.6485,-0.6319,-0.6444,-0.644,-0.6306,-0.6182,-0.5933,0.0,0.0,0.0,-0.4308,-0.4105,-0.4062,0.0,0.0,0.0,0.0,0.0,0.0,0.0,0.0,0.0,0.0,0.0,0.0,0.0,0.0,0.0,0.0,0.0,0.0,-0.1617,-0.1643,-0.1703,-0.1704,-0.1733,-0.1794,-0.1795,-0.1795,-0.1795,-0.1795,-0.1795,-0.1795,-0.1795,-0.1795,-0.1795,-0.1795,0.0,0.0,-0.1795,-0.1795,-0.1795,-0.1795,-0.1795,-0.1795,-0.1795,-0.1795,-0.1795,-0.1795,-0.1795,-0.1795,-0.1795,-0.1795,-0.1795,-0.1795,-0.1795,-0.1795,-0.1795,-0.1795,-0.1795,-0.1795,-0.1121,-0.0556,-0.043,0.0213,0.0947,0.1524,0.2118,0.2925,0.4135,0.3527,0.282,0.2719,0.2719,0.2417,0.1613,0.151,0.1399,0.1178,0.0489,-0.0097,-0.038,-0.1026,-0.1466,-0.1438,-0.1436,-0.1436,-0.1436,-0.0807,-0.0718,-0.1256,-0.009,0.0448,0.009,0.1613,0.2686,0.313,0.4119,0.4837,0.5371,0.5371,0.5463,-0.6416,-0.626,-0.6254,-0.6254,-0.612,-0.5917,-0.5632,0.0,0.0,-0.4405,-0.4094,-0.3873,-0.3975,0.0,0.0,0.0,0.0,0.0,0.0,0.0,0.0,0.0,0.0,0.0,0.0,0.0,0.0,0.0,0.0,0.0,0.0,-0.1617,-0.1636,-0.1677,-0.1695,-0.1725,-0.1767,-0.1786,-0.1795,-0.1795,-0.1795,-0.1795,-0.1795,-0.1795,-0.1795,-0.1795,-0.1795,0.0,0.0,-0.1795,-0.1795,-0.1795,-0.1795,-0.1795,-0.1795,-0.1795,-0.1795,-0.1795,-0.1795,-0.1795,-0.1795,-0.1795,-0.1795,-0.1795,-0.1795,-0.1795,-0.1795,-0.1795,-0.1795,-0.1683,-0.1121,-0.0336,0.0222,-0.0322,0.0532,0.1687,0.2235,0.2723,0.3331,0.4237,0.4033,0.3729,0.3527,0.3629,0.3629,0.3126,0.3025,0.2814,0.2293,0.1794,0.1287,0.068,-0.0191,-0.0751,-0.0745,-0.0736,-0.0548,-0.0091,-0.0271,-0.009,0.0538,0.1076,0.1614,0.2151,0.2778,0.3494,0.4119,0.4654,0.5102,0.5371,0.5552,0.5644,-0.6096,-0.6051,-0.6133,-0.6133,-0.5977,-0.5731,0.0,0.0,-0.4531,-0.4222,-0.3904,-0.3736,-0.3904,-0.39,-0.4026,0.0,0.0,0.0,0.0,0.0,0.0,0.0,0.0,0.0,0.0,0.0,0.0,0.0,0.0,0.0,0.0,-0.1617,-0.163,-0.1661,-0.1682,-0.171,-0.1749,-0.1771,-0.1786,-0.1795,-0.1795,-0.1795,-0.1795,-0.1795,-0.1795,-0.1795,0.0,0.0,0.0,-0.1795,-0.1795,-0.1795,-0.1795,-0.1795,-0.1795,-0.1795,-0.1795,-0.1795,-0.1795,-0.1795,-0.1795,-0.1795,-0.1795,-0.1795,-0.1458,-0.157,-0.1795,-0.1458,-0.1346,-0.1121,0.0112,0.0673,0.0778,0.043,0.1277,0.2319,0.2741,0.3126,0.3531,0.4237,0.4236,0.4033,0.4135,0.4336,0.4437,0.4234,0.4234,0.4031,0.3325,0.2923,0.2407,0.178,0.1074,0.0482,0.0191,0.0094,0.0277,0.0925,0.0544,0.0806,0.1613,0.2152,0.2778,0.3585,0.3853,0.4302,0.4928,0.5102,0.5282,0.5463,0.5644,0.5733,-0.5353,-0.562,-0.5892,-0.5892,-0.5828,-0.5608,0.0,-0.4942,-0.4569,-0.4098,-0.3855,-0.3701,-0.3811,-0.3917,-0.4114,0.0,0.0,0.0,0.0,0.0,0.0,0.0,0.0,0.0,0.0,0.0,0.0,0.0,0.0,0.0,0.0,-0.1617,-0.163,-0.1661,-0.1662,-0.169,-0.1749,-0.175,-0.1765,-0.1795,-0.1795,-0.1795,-0.1795,-0.1795,-0.1795,0.0,0.0,0.0,0.0,-0.1795,-0.1795,-0.1795,-0.1795,-0.1795,-0.1795,-0.1795,-0.1795,-0.1795,-0.1795,-0.1795,-0.1795,-0.1795,-0.1795,-0.1683,-0.0673,-0.1009,-0.157,-0.0673,-0.0449,-0.0,0.168,0.1569,0.1112,0.1934,0.2342,0.2527,0.2741,0.282,0.3123,0.4236,0.3729,0.3426,0.4236,0.4636,0.4834,0.4834,0.4834,0.4736,0.4438,0.3729,0.3123,0.2819,0.2819,0.238,0.1337,0.0935,0.0925,0.12,0.1811,0.197,0.1431,0.2953,0.3758,0.3578,0.4474,0.5099,0.5371,0.5555,0.5733,0.5733,0.5733,0.5733,-0.5288,-0.534,-0.5494,-0.5368,-0.5314,-0.5167,-0.4754,-0.4503,-0.4257,-0.3887,-0.3694,-0.3664,-0.3765,-0.3751,-0.3883,-0.4436,0.0,0.0,0.0,0.0,0.0,0.0,0.0,0.0,0.0,0.0,0.0,0.0,0.0,0.0,0.0,-0.1617,-0.1622,-0.163,-0.1652,-0.168,-0.1718,-0.1739,-0.1765,-0.1795,-0.1795,-0.1795,-0.1795,-0.1795,0.0,0.0,0.0,0.0,0.0,-0.1795,-0.1795,-0.1795,-0.1795,-0.1795,-0.1795,-0.1795,-0.1795,-0.1795,-0.1795,-0.1795,-0.1795,-0.1795,-0.1795,-0.1458,-0.0,-0.0112,-0.0673,0.0224,0.1121,0.1681,0.1567,0.1998,0.2409,0.2675,0.2741,0.2906,0.375,0.3729,0.3729,0.4338,0.4236,0.4135,0.4338,0.4636,0.4834,0.4834,0.4834,0.4734,0.4636,0.4334,0.4033,0.3932,0.3729,0.331,0.2377,0.2211,0.2359,0.2925,0.2831,0.2776,0.3132,0.376,0.4297,0.4561,0.483,0.5191,0.5644,0.5644,0.5733,0.5733,0.5733,0.5773,0.0,-0.496,-0.5019,-0.4956,-0.4856,-0.4677,-0.4348,-0.4157,-0.3965,-0.3712,-0.3619,-0.3605,-0.3693,-0.3683,-0.3799,-0.4226,0.0,0.0,0.0,0.0,0.0,0.0,0.0,0.0,0.0,0.0,0.0,0.0,0.0,0.0,0.0,0.0,-0.1617,-0.1617,-0.1635,-0.1659,-0.1688,-0.1718,-0.1748,-0.1778,-0.1789,-0.1789,-0.1778,-0.1778,0.0,0.0,0.0,0.0,0.0,-0.179,-0.1795,-0.1795,-0.1795,-0.1795,-0.1795,-0.1795,-0.1795,-0.1795,-0.1346,-0.1234,-0.1234,-0.0897,-0.0561,-0.0112,0.1233,0.1233,0.0896,0.1569,0.2241,0.28,0.2574,0.2986,0.3481,0.342,0.3463,0.3609,0.4253,0.4336,0.4334,0.4537,0.4537,0.4537,0.4537,0.4736,0.4834,0.4834,0.4834,0.4834,0.4834,0.4636,0.4537,0.4537,0.4535,0.4232,0.3726,0.343,0.3562,0.4142,0.3802,0.3908,0.4398,0.4604,0.4942,0.534,0.53,0.5371,0.5733,0.5776,0.5776,0.5735,0.5776,0.5812,0.0,-0.4479,-0.4515,-0.4515,-0.4326,-0.415,-0.4001,-0.3882,0.0,-0.3609,-0.3581,-0.3588,-0.3609,-0.371,-0.3849,0.0,0.0,0.0,0.0,0.0,0.0,0.0,0.0,0.0,0.0,0.0,0.0,0.0,0.0,0.0,0.0,0.0,-0.1617,-0.1617,-0.1617,-0.1632,-0.1662,-0.1688,-0.1716,-0.1747,-0.1775,-0.1774,-0.1746,-0.1746,0.0,0.0,0.0,0.0,0.0,-0.1779,-0.1792,-0.1792,-0.1794,-0.1795,-0.1795,-0.1795,-0.1795,-0.1683,-0.0673,-0.0336,-0.0224,0.0673,0.1569,0.2352,0.2688,0.28,0.2801,0.3137,0.3249,0.3473,0.4257,0.4422,0.4348,0.4384,0.4409,0.4534,0.4455,0.4636,0.4834,0.4834,0.4834,0.4834,0.4834,0.4834,0.4834,0.4834,0.4834,0.4834,0.4834,0.4834,0.4834,0.4834,0.5037,0.524,0.524,0.4757,0.4508,0.4698,0.4819,0.5037,0.5419,0.5415,0.5623,0.5915,0.5812,0.5754,0.5746,0.5852,0.5844,0.5735,0.5841,0.5833,-0.3747,0.0,-0.3893,-0.3893,-0.3858,-0.3802,0.0,-0.3802,0.0,0.0,0.0,0.0,0.0,0.0,0.0,0.0,0.0,0.0,0.0,0.0,0.0,0.0,0.0,0.0,0.0,0.0,0.0,0.0,0.0,0.0,0.0,0.0,-0.1617,-0.1617,-0.1617,-0.1632,-0.1662,-0.1669,-0.1686,-0.1715,-0.1722,-0.1722,-0.1715,-0.1715,0.0,0.0,0.0,0.0,-0.1717,-0.1748,-0.1761,-0.1763,-0.1786,-0.1795,-0.1795,-0.1795,-0.1795,-0.1683,-0.0673,-0.0224,0.0112,0.1232,0.2128,0.2912,0.3246,0.3585,0.3811,0.4033,0.4369,0.4482,0.4706,0.4822,0.4921,0.4902,0.4778,0.476,0.474,0.4734,0.4834,0.4834,0.4834,0.4834,0.4834,0.4834,0.4834,0.4834,0.4834,0.4834,0.4834,0.4834,0.4834,0.5039,0.514,0.524,0.5536,0.5349,0.5291,0.5291,0.5456,0.5484,0.5608,0.5842,0.6015,0.6043,0.6015,0.5956,0.5863,0.589,0.5844,0.5733,0.576,0.576,-0.3183,-0.3453,-0.3701,-0.3701,-0.3684,-0.3677,0.0,0.0,0.0,0.0,0.0,0.0,0.0,0.0,0.0,0.0,0.0,0.0,0.0,0.0,0.0,0.0,0.0,0.0,0.0,0.0,0.0,0.0,0.0,0.0,0.0,-0.1609,-0.1617,-0.1617,-0.1617,-0.1625,-0.1641,-0.1655,-0.167,-0.1685,-0.1698,-0.1697,-0.1685,-0.1685,-0.1677,0.0,0.0,0.0,-0.1687,-0.1717,-0.1729,-0.1731,-0.1747,-0.1762,-0.1774,-0.133,-0.1114,-0.1009,0.0336,0.1233,0.2017,0.2799,0.336,0.3808,0.4142,0.4257,0.4484,0.4819,0.5043,0.5146,0.5105,0.5104,0.5098,0.5055,0.4939,0.4834,0.4834,0.4834,0.4834,0.4834,0.4834,0.4834,0.4834,0.4834,0.4834,0.4834,0.4834,0.4834,0.4834,0.4937,0.5037,0.514,0.5441,0.5641,0.5739,0.5884,0.5854,0.5755,0.5846,0.5997,0.6047,0.6045,0.6086,0.6086,0.6086,0.6026,0.5904,0.5958,0.5899,0.5735,0.5787,0.5782,-0.2872,-0.3268,-0.369,-0.364,-0.3564,-0.3581,0.0,0.0,0.0,0.0,0.0,0.0,0.0,0.0,0.0,0.0,0.0,0.0,0.0,0.0,0.0,0.0,0.0,0.0,0.0,0.0,0.0,0.0,0.0,0.0,0.0,-0.1594,-0.161,-0.161,-0.1614,-0.1617,-0.1617,-0.1642,-0.1655,-0.1656,-0.168,-0.1678,-0.1655,-0.1655,-0.1641,0.0,0.0,0.0,-0.1657,-0.1686,-0.1591,-0.1485,-0.1596,-0.1612,-0.1307,-0.0653,-0.033,0.0112,0.179,0.3137,0.4148,0.4482,0.4592,0.4704,0.4929,0.4931,0.5043,0.527,0.5382,0.5361,0.5269,0.5175,0.5086,0.4994,0.4902,0.4834,0.4834,0.4834,0.4834,0.4834,0.4834,0.4834,0.4834,0.4834,0.4834,0.4834,0.4834,0.4834,0.4834,0.5138,0.524,0.534,0.5741,0.6042,0.6042,0.6237,0.6331,0.6019,0.624,0.6336,0.6431,0.6246,0.6138,0.6138,0.6121,0.6053,0.5931,0.6015,0.5947,0.5735,0.5833,0.5825,-0.3139,-0.3396,-0.3557,-0.3253,-0.3286,-0.3383,0.0,0.0,0.0,0.0,0.0,0.0,0.0,0.0,0.0,0.0,0.0,0.0,0.0,0.0,0.0,0.0,0.0,0.0,0.0,0.0,0.0,0.0,0.0,0.0,0.0,0.0,-0.1579,-0.1579,-0.1604,-0.1617,-0.1617,-0.1622,-0.1624,-0.1624,-0.1628,-0.1628,-0.1624,-0.1624,-0.1622,0.0,0.0,-0.1624,-0.1626,-0.1656,-0.1251,-0.0625,-0.1376,-0.0853,0.0214,-0.0321,0.0108,0.1318,0.2783,0.403,0.4819,0.5156,0.5268,0.5268,0.527,0.527,0.5382,0.5382,0.5382,0.5361,0.5269,0.5175,0.5086,0.4994,0.4902,0.4834,0.4834,0.4834,0.4834,0.4834,0.4834,0.4834,0.4834,0.4834,0.4834,0.4834,0.5037,0.514,0.514,0.5338,0.5639,0.5842,0.5942,0.6142,0.6337,0.6337,0.6396,0.6301,0.6366,0.6418,0.6434,0.6401,0.6382,0.6382,0.629,0.6181,0.6056,0.5972,0.5863,0.5733,0.5752,0.5838,-0.2919,-0.3142,-0.3235,-0.2852,-0.3002,0.0,0.0,0.0,0.0,0.0,0.0,0.0,0.0,0.0,0.0,0.0,0.0,0.0,0.0,0.0,0.0,0.0,0.0,0.0,0.0,0.0,0.0,0.0,0.0,0.0,0.0,0.0,-0.1547,-0.1547,-0.1577,-0.1592,-0.1592,-0.1609,-0.1617,-0.1617,-0.1617,-0.1617,-0.1617,-0.1617,-0.1617,-0.1617,0.0,-0.1617,-0.1618,-0.1122,-0.0716,-0.0409,-0.0412,0.0104,0.0736,0.106,0.1818,0.3021,0.3952,0.4529,0.4871,0.5254,0.5382,0.5382,0.5382,0.5382,0.5382,0.5382,0.5382,0.5349,0.5208,0.5139,0.5071,0.4932,0.4865,0.4834,0.4834,0.4834,0.4834,0.4834,0.4834,0.4834,0.4834,0.4834,0.4834,0.5037,0.514,0.524,0.5438,0.5639,0.5839,0.5942,0.6139,0.6237,0.6437,0.6437,0.6388,0.6276,0.6255,0.6246,0.6246,0.6246,0.6246,0.6246,0.6198,0.6111,0.5988,0.5931,0.5935,0.5908,0.5908,0.6083,-0.2764,-0.2974,-0.305,0.0,0.0,0.0,0.0,0.0,0.0,0.0,0.0,0.0,0.0,0.0,0.0,0.0,0.0,0.0,0.0,0.0,0.0,0.0,0.0,0.0,0.0,0.0,0.0,0.0,0.0,0.0,0.0,0.0,-0.1515,-0.1515,-0.1545,-0.1561,-0.1561,-0.1591,-0.161,-0.1617,-0.1617,-0.1617,-0.1617,-0.1617,-0.1617,-0.1617,-0.1415,-0.1314,-0.1212,-0.0404,-0.0,0.0303,0.0706,0.1017,0.1444,0.2521,0.3597,0.4351,0.4749,0.4886,0.4897,0.5184,0.5318,0.5322,0.5343,0.5349,0.5349,0.5349,0.5349,0.5316,0.5175,0.5124,0.5067,0.4906,0.4851,0.4834,0.4834,0.4834,0.4834,0.4834,0.4834,0.4834,0.4834,0.4834,0.4937,0.514,0.534,0.5441,0.5636,0.5939,0.6142,0.6142,0.6237,0.6437,0.6437,0.6412,0.6361,0.6274,0.6181,0.6116,0.6086,0.6086,0.6086,0.6086,0.6056,0.5996,0.5904,0.5877,0.5907,0.6083,0.6083,0.6257,-0.3015,-0.3169,-0.3201,0.0,0.0,0.0,0.0,0.0,0.0,0.0,0.0,0.0,0.0,0.0,0.0,0.0,0.0,0.0,0.0,0.0,0.0,0.0,0.0,0.0,0.0,0.0,0.0,0.0,0.0,0.0,0.0,0.0,0.0,-0.1484,-0.1513,-0.1529,-0.1529,-0.156,-0.1589,-0.1617,-0.1617,-0.1617,-0.1617,-0.1617,-0.1617,-0.1516,-0.0808,-0.0505,-0.0404,0.0403,0.1311,0.2118,0.1412,0.1815,0.2832,0.4023,0.4468,0.4584,0.4982,0.5116,0.5118,0.5126,0.5128,0.5143,0.5228,0.5253,0.5253,0.5253,0.5253,0.5251,0.5239,0.5171,0.5084,0.4986,0.4898,0.4834,0.4834,0.4834,0.4834,0.4834,0.4834,0.4834,0.4834,0.5037,0.514,0.524,0.5641,0.5942,0.5942,0.6239,0.6337,0.6337,0.6437,0.6437,0.6437,0.6342,0.6276,0.6268,0.626,0.6203,0.6089,0.6086,0.6086,0.6086,0.5975,0.5912,0.5904,0.5798,0.5827,0.6083,0.6083,0.6349,-0.2501,-0.263,-0.2649,0.0,0.0,0.0,0.0,0.0,0.0,0.0,0.0,0.0,0.0,0.0,0.0,0.0,0.0,0.0,0.0,0.0,0.0,0.0,0.0,0.0,0.0,0.0,0.0,0.0,0.0,0.0,0.0,0.0,0.0,-0.1453,-0.1482,-0.1498,-0.1498,-0.1547,-0.1577,-0.1589,-0.1608,-0.1617,-0.1617,-0.1111,-0.0808,-0.0808,-0.0,0.0404,0.0706,0.1513,0.2117,0.262,0.2822,0.3325,0.3835,0.4269,0.4587,0.48,0.4992,0.5022,0.5032,0.509,0.5108,0.5114,0.5149,0.5159,0.5159,0.5159,0.5159,0.5147,0.509,0.5049,0.5,0.4908,0.4859,0.4834,0.4834,0.4834,0.4834,0.4834,0.4834,0.4834,0.5037,0.514,0.534,0.5641,0.5842,0.6039,0.6239,0.6337,0.6437,0.6437,0.6437,0.6437,0.6437,0.6396,0.6342,0.6274,0.6124,0.6021,0.5975,0.5904,0.5866,0.5866,0.582,0.5798,0.5798,0.593,0.6083,0.6257,0.6438,0.6704,-0.2022,-0.2107,-0.2184,0.0,0.0,0.0,0.0,0.0,0.0,0.0,0.0,0.0,0.0,0.0,0.0,0.0,0.0,0.0,0.0,0.0,0.0,0.0,0.0,0.0,0.0,0.0,0.0,0.0,0.0,0.0,0.0,0.0,0.0,0.0,-0.1455,-0.1466,-0.1466,-0.1517,-0.1543,-0.1543,-0.1286,-0.1206,-0.1212,-0.0606,-0.0202,0.0101,0.0908,0.1411,0.1814,0.2622,0.3025,0.3325,0.4031,0.4334,0.4537,0.4537,0.4636,0.4845,0.4906,0.4928,0.4939,0.5002,0.5022,0.5026,0.5057,0.5065,0.5065,0.5065,0.5065,0.5045,0.4953,0.4949,0.4955,0.4892,0.4855,0.4834,0.4834,0.4834,0.4834,0.4834,0.4834,0.4834,0.514,0.524,0.5438,0.5942,0.6042,0.6239,0.6337,0.6437,0.6437,0.6437,0.6437,0.6437,0.6437,0.6437,0.6404,0.6325,0.6094,0.5945,0.5904,0.5795,0.5733,0.5733,0.5733,0.5733,0.5822,0.5994,0.626,0.652,0.6704,0.6881,-0.1597,-0.1728,0.0,0.0,0.0,0.0,0.0,0.0,0.0,0.0,0.0,0.0,0.0,0.0,0.0,0.0,0.0,0.0,0.0,0.0,0.0,0.0,0.0,0.0,0.0,0.0,0.0,0.0,0.0,0.0,0.0,0.0,0.0,0.0,-0.1436,-0.1436,-0.1436,-0.1466,-0.148,-0.1481,-0.0771,-0.0397,-0.0404,-0.0404,0.0202,0.121,0.2017,0.252,0.292,0.3629,0.4135,0.4438,0.4736,0.4834,0.4834,0.4834,0.4834,0.4834,0.4834,0.4834,0.4834,0.4834,0.4834,0.4851,0.4943,0.4971,0.4971,0.4971,0.4971,0.4949,0.4857,0.4902,0.4971,0.4971,0.4902,0.4834,0.4834,0.4834,0.4834,0.4834,0.4834,0.4935,0.514,0.5436,0.5737,0.5942,0.6239,0.6437,0.6437,0.6437,0.6437,0.6437,0.6437,0.6437,0.6437,0.6437,0.6437,0.6437,0.6217,0.6032,0.5909,0.5795,0.5733,0.5733,0.5733,0.5822,0.6083,0.6083,0.6349,0.6795,0.6795,0.6881,-0.1266,0.0,0.0,0.0,0.0,0.0,0.0,0.0,0.0,0.0,0.0,0.0,0.0,0.0,0.0,0.0,0.0,0.0,0.0,0.0,0.0,0.0,0.0,0.0,0.0,0.0,0.0,0.0,0.0,0.0,0.0,0.0,0.0,0.0,-0.1436,-0.1436,-0.1436,-0.1466,-0.1203,-0.074,-0.0475,-0.0389,-0.0396,0.1003,0.1715,0.2118,0.3126,0.363,0.3932,0.4433,0.4636,0.4736,0.4734,0.4834,0.4834,0.4834,0.4834,0.4834,0.4834,0.4834,0.4834,0.4834,0.4834,0.4841,0.4867,0.4875,0.4875,0.4875,0.4875,0.4869,0.4843,0.4855,0.4875,0.4875,0.4855,0.4834,0.4834,0.4834,0.4834,0.4834,0.4937,0.514,0.5438,0.5739,0.5939,0.6239,0.6337,0.6437,0.6437,0.6437,0.6437,0.6437,0.6437,0.6437,0.6437,0.6437,0.6437,0.6437,0.6295,0.6159,0.6037,0.5839,0.5733,0.5733,0.5908,0.5997,0.6083,0.6438,0.6707,0.6795,0.6966,0.7054,0.0,0.0,0.0,0.0,0.0,0.0,0.0,0.0,0.0,0.0,0.0,0.0,0.0,0.0,0.0,0.0,0.0,0.0,0.0,0.0,0.0,0.0,0.0,0.0,0.0,0.0,0.0,0.0,0.0,0.0,0.0,0.0,0.0,0.0,-0.1436,-0.1436,-0.1436,-0.1453,-0.1279,-0.0823,-0.0467,-0.019,0.0096,0.1662,0.2564,0.3157,0.3976,0.4388,0.4493,0.472,0.4834,0.4834,0.4834,0.4834,0.4834,0.4834,0.4834,0.4834,0.4834,0.4834,0.4834,0.4834,0.4834,0.4834,0.4834,0.4834,0.4834,0.4834,0.4834,0.4834,0.4834,0.4834,0.4834,0.4834,0.4834,0.4834,0.4834,0.4834,0.4834,0.4937,0.514,0.534,0.5739,0.5939,0.6042,0.6337,0.6437,0.6437,0.6437,0.6437,0.6437,0.6437,0.6437,0.6437,0.6437,0.6437,0.6437,0.6437,0.6331,0.6236,0.6162,0.5928,0.5803,0.5893,0.6022,0.6171,0.6349,0.6707,0.6884,0.6881,0.7054,0.7139,0.0,0.0,0.0,0.0,0.0,0.0,0.0,0.0,0.0,0.0,0.0,0.0,0.0,0.0,0.0,0.0,0.0,0.0,0.0,0.0,0.0,0.0,0.0,0.0,0.0,0.0,0.0,0.0,0.0,0.0,0.0,0.0,0.0,-0.143,-0.1431,-0.1432,-0.1436,-0.1436,-0.1345,0.0,-0.0548,0.0185,0.0923,0.1885,0.295,0.4288,0.4562,0.4702,0.4714,0.4792,0.4826,0.4834,0.4834,0.4834,0.4834,0.4834,0.4834,0.4834,0.4834,0.4834,0.4834,0.4834,0.4834,0.4834,0.4834,0.4834,0.4834,0.4834,0.4834,0.4834,0.4834,0.4834,0.4834,0.4834,0.4834,0.4834,0.4834,0.4834,0.4937,0.514,0.524,0.5441,0.5942,0.6042,0.6139,0.6337,0.6437,0.6437,0.6437,0.6437,0.6437,0.6437,0.6437,0.6437,0.6437,0.6437,0.6437,0.6437,0.6339,0.6285,0.6382,0.6051,0.6104,0.6293,0.6256,0.6367,0.6815,0.6799,0.6881,0.7139,0.7139,0.7139,0.0,0.0,0.0,0.0,0.0,0.0,0.0,0.0,0.0,0.0,0.0,0.0,0.0,0.0,0.0,0.0,0.0,0.0,0.0,0.0,0.0,0.0,0.0,0.0,0.0,0.0,0.0,0.0,0.0,0.0,0.0,0.0,0.0,-0.1399,-0.1399,-0.1411,-0.1435,-0.1436,-0.1166,0.0,0.009,0.0993,0.1895,0.2342,0.3333,0.4478,0.4594,0.4643,0.471,0.4728,0.4775,0.4834,0.4834,0.4834,0.4834,0.4834,0.4834,0.4834,0.4834,0.4834,0.4834,0.4834,0.4834,0.4834,0.4834,0.4834,0.4834,0.4834,0.4834,0.4834,0.4834,0.4834,0.4834,0.4834,0.4834,0.4834,0.4834,0.4937,0.514,0.514,0.5541,0.5842,0.5942,0.6139,0.6337,0.6437,0.6437,0.6437,0.6437,0.6437,0.6437,0.6437,0.6437,0.6437,0.6437,0.6437,0.6437,0.6437,0.6415,0.6501,0.6705,0.646,0.6418,0.6418,0.6667,0.6872,0.6966,0.7025,0.7051,0.7139,0.7139,0.7492,0.0,0.0,0.0,0.0,0.0,0.0,0.0,0.0,0.0,0.0,0.0,0.0,0.0,0.0,0.0,0.0,0.0,0.0,0.0,0.0,0.0,0.0,0.0,0.0,0.0,0.0,0.0,0.0,0.0,0.0,0.0,-0.1326,-0.1339,-0.1369,-0.1383,-0.1397,-0.1413,-0.1428,-0.1256,-0.0897,-0.0179,0.0896,0.233,0.3025,0.3702,0.4444,0.4487,0.4534,0.4581,0.4626,0.4696,0.4775,0.4775,0.48,0.4834,0.4834,0.4834,0.4834,0.4834,0.4834,0.4834,0.4834,0.4834,0.4834,0.4834,0.4834,0.4834,0.4834,0.4834,0.4834,0.4834,0.4834,0.4834,0.4834,0.4834,0.4834,0.4937,0.514,0.524,0.5541,0.5842,0.6042,0.6139,0.6337,0.6437,0.6437,0.6437,0.6437,0.6437,0.6437,0.6437,0.6437,0.6437,0.6437,0.6437,0.6437,0.6437,0.6437,0.6539,0.6642,0.6845,0.6911,0.7,0.6933,0.7085,0.7168,0.7191,0.7202,0.7389,0.7753,0.7753,0.8277,0.0,0.0,0.0,0.0,0.0,0.0,0.0,0.0,0.0,0.0,0.0,0.0,0.0,0.0,0.0,0.0,0.0,0.0,0.0,0.0,0.0,0.0,0.0,0.0,0.0,0.0,0.0,0.0,0.0,0.0,-0.1294,-0.1295,-0.1309,-0.1339,-0.1363,-0.138,-0.139,-0.1415,-0.1341,-0.1256,-0.0359,0.0985,0.2688,0.3497,0.4034,0.4304,0.4379,0.442,0.444,0.4518,0.4602,0.4687,0.4702,0.4751,0.4814,0.4828,0.4834,0.4834,0.4834,0.4834,0.4834,0.4834,0.4834,0.4834,0.4834,0.4834,0.4834,0.4834,0.4834,0.4834,0.4834,0.4834,0.4834,0.4834,0.4834,0.4937,0.514,0.524,0.5441,0.5942,0.6042,0.6139,0.6337,0.6437,0.6437,0.6437,0.6437,0.6437,0.6437,0.6437,0.6437,0.6437,0.6437,0.6437,0.6437,0.6437,0.6437,0.6437,0.6642,0.6842,0.6842,0.7344,0.7687,0.7754,0.7488,0.7346,0.7411,0.7538,0.7889,0.8544,0.8627,0.9231,0.0,0.0,0.0,0.0,0.0,0.0,0.0,0.0,0.0,0.0,0.0,0.0,0.0,0.0,0.0,0.0,0.0,0.0,0.0,0.0,0.0,0.0,0.0,0.0,0.0,0.0,0.0,0.0,0.0,0.0,-0.1263,-0.1263,-0.1277,-0.1308,-0.1312,-0.1339,-0.139,-0.1394,-0.1145,-0.0538,0.1075,0.2418,0.3497,0.3767,0.4034,0.43,0.4312,0.4361,0.4436,0.4449,0.4508,0.4598,0.4677,0.4716,0.4734,0.4808,0.4834,0.4834,0.4834,0.4834,0.4834,0.4834,0.4834,0.4834,0.4834,0.4834,0.4834,0.4834,0.4834,0.4834,0.4834,0.4834,0.4834,0.4834,0.4937,0.514,0.524,0.5541,0.5942,0.5942,0.6139,0.6337,0.6437,0.6437,0.6437,0.6437,0.6437,0.6437,0.6437,0.6437,0.6437,0.6437,0.6437,0.6437,0.6437,0.6437,0.6437,0.6437,0.6642,0.6942,0.7138,0.7444,0.8127,0.928,0.8115,0.7587,0.7567,0.811,0.8392,0.854,0.9318,1.0188,0.0,0.0,0.0,0.0,0.0,0.0,0.0,0.0,0.0,0.0,0.0,0.0,0.0,0.0,0.0,0.0,0.0,0.0,0.0,0.0,0.0,0.0,0.0,0.0,0.0,0.0,0.0,0.0,0.0,-0.0628,-0.0236,-0.0236,-0.0395,-0.0718,-0.0808,-0.0986,-0.1341,-0.1358,-0.0777,0.0264,0.1247,0.2418,0.3587,0.3944,0.4212,0.43,0.43,0.4322,0.4359,0.4359,0.4414,0.45,0.4538,0.4618,0.4712,0.4751,0.4794,0.4834,0.4834,0.4834,0.4834,0.4834,0.4834,0.4834,0.4834,0.4834,0.4834,0.4834,0.4834,0.4834,0.4834,0.4834,0.4834,0.5037,0.5238,0.5438,0.5641,0.5842,0.6042,0.6239,0.6337,0.6437,0.6437,0.6437,0.6437,0.6437,0.6437,0.6437,0.6437,0.6437,0.6437,0.6437,0.6499,0.654,0.654,0.654,0.654,0.6746,0.6879,0.7434,0.8326,0.8627,0.9316,1.0489,0.9168,0.871,0.9262,0.9358,0.9698,1.0106,1.0453,1.123,0.0,0.0,0.0,0.0,0.0,0.0,0.0,0.0,0.0,0.0,0.0,0.0,0.0,0.0,0.0,0.0,0.0,0.0,0.0,0.0,0.0,0.0,0.0,0.0,0.0,0.0,0.0,0.0,0.0,-0.0079,0.0392,0.0628,0.0471,-0.0,-0.008,-0.0323,-0.0813,-0.0666,-0.0,0.1042,0.1675,0.2494,0.3587,0.4121,0.43,0.43,0.43,0.43,0.43,0.43,0.4338,0.4402,0.4426,0.4518,0.4643,0.4665,0.4728,0.4804,0.4804,0.4816,0.483,0.481,0.4816,0.483,0.481,0.4818,0.4834,0.4834,0.4834,0.4834,0.4834,0.4834,0.4937,0.514,0.5438,0.5739,0.6039,0.6139,0.6139,0.6337,0.6437,0.6437,0.6437,0.6437,0.6437,0.6437,0.6437,0.6437,0.6437,0.6437,0.6437,0.6437,0.6545,0.6619,0.6724,0.7056,0.7282,0.7595,0.8099,0.8721,0.9677,0.997,1.0511,1.1482,1.0414,1.0148,1.0643,1.0561,1.0793,1.1327,1.1585,1.2015,0.0,0.0,0.0,0.0,0.0,0.0,0.0,0.0,0.0,0.0,0.0,0.0,0.0,0.0,0.0,0.0,0.0,0.0,0.0,0.0,0.0,0.0,0.0,0.0,0.0,0.0,0.0,0.0,0.0,-0.0235,-0.0,0.0549,0.0862,0.0862,0.0863,0.0714,0.0487,0.1163,0.153,0.1651,0.2869,0.3429,0.3587,0.4121,0.43,0.43,0.43,0.43,0.43,0.43,0.4302,0.4314,0.4402,0.444,0.4461,0.4547,0.4636,0.4714,0.4714,0.4767,0.482,0.4741,0.4769,0.482,0.4738,0.4771,0.4834,0.4834,0.4834,0.4834,0.4834,0.5037,0.514,0.524,0.5641,0.6039,0.6337,0.6337,0.6337,0.6437,0.6437,0.6437,0.6437,0.6437,0.6437,0.6437,0.6437,0.6437,0.6437,0.6437,0.6437,0.6437,0.6545,0.6724,0.7038,0.8173,0.8974,0.9283,1.0621,1.1253,1.1066,1.1358,1.1766,1.222,1.1889,1.1395,1.0643,1.1035,1.1246,1.1322,1.2186,1.2619,0.0,0.0,0.0,0.0,0.0,0.0,0.0,0.0,0.0,0.0,0.0,0.0,0.0,0.0,0.0,0.0,0.0,0.0,0.0,0.0,0.0,0.0,0.0,0.0,0.0,0.0,0.0,0.0,0.0,0.0,0.1175,0.1803,0.2038,0.1724,0.1724,0.1495,0.1031,0.1219,0.1569,0.2083,0.2617,0.3158,0.3701,0.4104,0.4218,0.4222,0.4275,0.43,0.43,0.43,0.43,0.4302,0.4334,0.4383,0.4438,0.4471,0.4542,0.463,0.4689,0.4728,0.4757,0.4781,0.4773,0.4749,0.4718,0.473,0.4753,0.4753,0.4792,0.4834,0.5037,0.514,0.524,0.5641,0.6039,0.6237,0.6337,0.6437,0.6437,0.6437,0.6437,0.6437,0.6437,0.6437,0.6437,0.6437,0.6437,0.6437,0.6437,0.6505,0.6554,0.6554,0.7559,0.8325,0.8434,0.9742,1.0615,1.0826,1.1218,1.1654,1.2379,1.2201,1.2459,1.3339,1.2927,1.2534,1.217,1.218,1.2186,1.2186,1.2528,1.279,0.0,0.0,0.0,0.0,0.0,0.0,0.0,0.0,0.0,0.0,0.0,0.0,0.0,0.0,0.0,0.0,0.0,0.0,0.0,0.0,0.0,0.0,0.0,0.0,0.0,0.0,0.0,0.0,0.0,0.0,0.1546,0.2246,0.2644,0.2665,0.251,0.2275,0.1882,0.1832,0.2096,0.2602,0.2804,0.3168,0.3699,0.4012,0.4142,0.4177,0.4232,0.4273,0.43,0.43,0.43,0.43,0.43,0.4336,0.4389,0.4389,0.4449,0.4534,0.4596,0.4657,0.4712,0.4738,0.473,0.4704,0.4671,0.4663,0.4663,0.4663,0.4822,0.4988,0.509,0.5316,0.5541,0.6039,0.6237,0.6437,0.6437,0.6437,0.6437,0.6437,0.6437,0.6437,0.6437,0.6437,0.6437,0.6437,0.6472,0.6597,0.69,0.7012,0.7294,0.7804,0.8962,0.9762,1.0079,1.1305,1.2167,1.2413,1.2495,1.283,1.3467,1.307,1.3065,1.3646,1.3302,1.3079,1.2982,1.2795,1.2705,1.2705,1.279,1.2966,0.0,0.0,0.0,0.0,0.0,0.0,0.0,0.0,0.0,0.0,0.0,0.0,0.0,0.0,0.0,0.0,0.0,0.0,0.0,0.0,0.0,0.0,0.0,0.0,0.0,0.0,0.0,0.0,0.0,0.0221,0.0979,0.1812,0.2598,0.3443,0.3215,0.3141,0.3141,0.3141,0.3178,0.3251,0.3489,0.3611,0.369,0.3946,0.4079,0.4165,0.4167,0.4218,0.4295,0.4297,0.43,0.43,0.43,0.43,0.43,0.43,0.4355,0.4432,0.4434,0.4553,0.4687,0.4604,0.4632,0.4685,0.4598,0.4571,0.4569,0.4569,0.4822,0.509,0.5092,0.556,0.6037,0.6337,0.6437,0.6437,0.6437,0.6437,0.6437,0.6437,0.6437,0.6437,0.6437,0.6437,0.6437,0.6442,0.6543,0.703,0.7856,0.8076,0.8678,1.0128,1.0501,1.0924,1.1764,1.3011,1.3789,1.3776,1.459,1.4835,1.4304,1.4026,1.364,1.3133,1.3115,1.2976,1.2705,1.2705,1.2705,1.2705,1.2966,1.3313,-0.0485,0.0,0.0,0.0,0.0,0.0,0.0,0.0,0.0,0.0,0.0,0.0,0.0,0.0,0.0,0.0,0.0,0.0,0.0,0.0,0.0,0.0,0.0,0.0,0.0,0.0,0.0,0.0,0.0637,0.1146,0.1468,0.2471,0.3186,0.3587,0.3573,0.3608,0.3608,0.3608,0.362,0.3644,0.3722,0.3734,0.376,0.3906,0.395,0.3979,0.4044,0.4124,0.4212,0.4273,0.43,0.43,0.43,0.43,0.43,0.43,0.4314,0.4346,0.4412,0.4469,0.4528,0.4636,0.4598,0.4518,0.4559,0.4622,0.4756,0.4756,0.5009,0.5293,0.556,0.5897,0.6238,0.6418,0.6437,0.6437,0.6437,0.6437,0.6437,0.6437,0.6437,0.6437,0.6437,0.6833,0.7366,0.7468,0.8021,0.8593,0.892,0.9485,0.9961,1.0148,1.1554,1.2496,1.2292,1.3656,1.4306,1.4144,1.4183,1.4171,1.402,1.358,1.3272,1.3127,1.2922,1.2783,1.2705,1.2705,1.2705,1.2705,1.3137,1.3476,0.0,0.0,0.0,0.0,0.0,0.0,0.0,0.0,0.0,0.0,0.0,0.0,0.0,0.0,0.0,0.0,0.0,0.0,0.0,0.0,0.0,0.0,0.0,0.0,0.0,0.0,0.0,0.0275,0.0826,0.1393,0.1929,0.279,0.3426,0.3573,0.3661,0.3705,0.3705,0.3744,0.3763,0.3763,0.3763,0.3763,0.3765,0.3818,0.3865,0.3903,0.3957,0.4053,0.4177,0.4226,0.4267,0.43,0.43,0.43,0.43,0.43,0.43,0.4306,0.4359,0.4404,0.4453,0.4561,0.4522,0.4444,0.4498,0.4637,0.4747,0.4747,0.5092,0.5477,0.587,0.6093,0.6208,0.6274,0.629,0.629,0.629,0.629,0.6317,0.6418,0.6634,0.6933,0.6933,0.7531,0.8158,0.8449,0.8758,0.9295,1.001,1.042,1.0848,1.1447,1.2562,1.3344,1.3265,1.4039,1.4425,1.4153,1.3888,1.3694,1.3586,1.3175,1.2952,1.2952,1.2789,1.279,1.2881,1.279,1.2954,1.3535,1.388,1.4384,-0.0588,0.0,0.0,0.0,0.0,0.0,-0.0693,-0.0649,0.0,0.0,0.0,0.0,0.0,0.0,0.0,0.0,0.0,0.0,0.0,0.0,0.0,0.0,0.0,0.0,0.0,-0.0602,-0.0201,0.0134,0.0672,0.1358,0.2296,0.286,0.3266,0.3485,0.3567,0.3616,0.3626,0.3707,0.3752,0.3763,0.3763,0.3763,0.3763,0.3763,0.3808,0.3885,0.3885,0.3983,0.4142,0.4142,0.4204,0.43,0.43,0.43,0.43,0.43,0.43,0.43,0.43,0.4353,0.4422,0.4432,0.4428,0.4422,0.4432,0.4555,0.475,0.4839,0.5175,0.5642,0.6034,0.6067,0.607,0.6083,0.6086,0.6086,0.6181,0.6181,0.6241,0.6552,0.7087,0.7585,0.7681,0.8375,0.8973,0.9284,0.928,0.978,1.1086,1.1184,1.1755,1.3204,1.3397,1.3657,1.4171,1.4165,1.4051,1.3791,1.3556,1.332,1.3091,1.2837,1.2705,1.2705,1.2784,1.3039,1.3215,1.3039,1.3535,1.4706,1.5039,1.5703,-0.0581,-0.0642,-0.066,0.0,0.0,0.0,0.0,-0.0652,0.0,0.0,0.0,0.0,0.0,0.0,0.0,0.0,0.0,0.0,0.0,0.0,0.0,0.0,0.0,0.0,0.0,-0.026,0.0131,0.1006,0.1681,0.2291,0.2843,0.3059,0.3246,0.3389,0.3479,0.3558,0.3624,0.3644,0.3691,0.3763,0.3763,0.3763,0.3763,0.3763,0.3773,0.3789,0.3789,0.385,0.3952,0.3952,0.4089,0.43,0.43,0.43,0.43,0.43,0.43,0.43,0.43,0.431,0.4338,0.4412,0.4478,0.4613,0.4691,0.501,0.5285,0.5466,0.557,0.5705,0.5907,0.5937,0.5964,0.6062,0.6086,0.6272,0.6835,0.6929,0.713,0.7753,0.7482,0.7482,0.8233,0.8993,0.9708,1.0136,1.0646,1.1293,1.1945,1.236,1.278,1.3064,1.3514,1.3716,1.3393,1.335,1.3236,1.2958,1.2892,1.2837,1.2789,1.2735,1.2705,1.2705,1.362,1.4119,1.4119,1.4119,1.4371,1.4956,1.5779,1.6363,-0.0659,-0.0673,-0.0693,-0.0678,0.0,0.0,0.0,0.0,0.0,0.0,0.0,0.0,0.0,0.0,0.0,0.0,0.0,0.0,0.0,0.0,0.0,0.0,0.0,0.0,0.0,-0.0126,0.0638,0.1841,0.2371,0.2783,0.309,0.3133,0.3225,0.3295,0.3385,0.3452,0.3495,0.3581,0.3648,0.3695,0.374,0.3763,0.3763,0.3763,0.3763,0.3763,0.3763,0.3814,0.3899,0.3899,0.4032,0.4236,0.4236,0.4263,0.43,0.43,0.43,0.43,0.43,0.43,0.4306,0.4353,0.4518,0.467,0.472,0.5058,0.546,0.5644,0.5733,0.5746,0.5803,0.5817,0.5833,0.5896,0.6182,0.6542,0.6904,0.736,0.7815,0.8536,0.8536,0.8504,0.9047,0.9912,1.0598,1.0983,1.1379,1.182,1.221,1.2579,1.2825,1.2878,1.3129,1.32,1.2934,1.2916,1.2856,1.2711,1.2705,1.2705,1.2705,1.2705,1.2954,1.3535,1.4455,1.5039,1.5357,1.5846,1.6175,1.6347,1.6927,1.7504,0.0,0.0,0.0,0.0,0.0,-0.0753,0.0,0.0,0.0,0.0,0.0,0.0,0.0,0.0,0.0,0.0,0.0,0.0,0.0,0.0,0.0,0.0,0.0,0.0,0.0,-0.0182,0.0923,0.2297,0.2591,0.2812,0.3127,0.3199,0.3209,0.3226,0.3299,0.3346,0.3434,0.3503,0.3593,0.3628,0.3701,0.3746,0.3763,0.3763,0.3763,0.3763,0.3763,0.3805,0.3873,0.3873,0.3971,0.4124,0.4159,0.4224,0.43,0.43,0.43,0.43,0.43,0.43,0.4389,0.4389,0.4569,0.4839,0.4839,0.5196,0.5463,0.5644,0.5733,0.5733,0.5733,0.5819,0.5908,0.5908,0.6432,0.7041,0.7217,0.7837,0.8632,0.9323,0.968,0.9883,0.994,1.0635,1.1364,1.1636,1.1663,1.1899,1.2334,1.2412,1.2448,1.2705,1.2705,1.2705,1.2705,1.2705,1.2705,1.2705,1.2705,1.279,1.2875,1.3124,1.3626,1.4531,1.5462,1.6116,1.6683,1.7577,1.7908,1.7747,1.8078,1.8647,0.0,0.0,0.0,0.0,-0.0846,0.0,0.0,0.0,0.0,0.0,0.0,0.0,0.0,0.0,0.0,0.0,0.0,0.0,0.0,0.0,0.0,0.0,0.0,0.0,0.0,0.0,0.0407,0.1479,0.1823,0.2307,0.2898,0.3041,0.3142,0.3224,0.3238,0.3281,0.3432,0.3383,0.3473,0.3626,0.3636,0.3683,0.3763,0.3763,0.3763,0.3763,0.3763,0.3769,0.3779,0.3779,0.3838,0.3946,0.411,0.4224,0.43,0.43,0.43,0.43,0.43,0.4478,0.4661,0.4661,0.4926,0.5371,0.5555,0.5644,0.5644,0.5733,0.5733,0.5733,0.5733,0.6169,0.6691,0.6691,0.7221,0.7918,0.8707,0.8969,0.941,1.0376,1.0738,1.085,1.0814,1.0907,1.1173,1.1603,1.1673,1.1911,1.2324,1.2381,1.2448,1.2705,1.2705,1.2705,1.2705,1.2705,1.2705,1.2705,1.2705,1.296,1.3561,1.4559,1.5144,1.5311,1.6683,1.7496,1.7577,1.8638,1.8727,1.7997,1.8807,1.9222,0.0,0.0,0.0,0.0,0.0,0.0,-0.0788,0.0,-0.0736,0.0,0.0,0.0,0.0,0.0,0.0,0.0,0.0,0.0,0.0,0.0,0.0,0.0,0.0,0.0,0.0,0.0,0.0,0.0,0.0,0.2084,0.2681,0.2971,0.3107,0.3146,0.3199,0.3246,0.3283,0.3338,0.3428,0.3554,0.3603,0.3675,0.3763,0.3763,0.3763,0.3763,0.3763,0.3763,0.3763,0.3763,0.3816,0.3912,0.4042,0.4146,0.4232,0.4281,0.43,0.43,0.43,0.448,0.475,0.5015,0.5282,0.546,0.5644,0.5733,0.5733,0.5733,0.5733,0.5819,0.6257,0.6605,0.6956,0.7489,0.8097,0.8798,0.9331,0.9859,1.0386,1.0824,1.1176,1.144,1.144,1.144,1.144,1.1699,1.1952,1.2203,1.2363,1.2534,1.2619,1.2705,1.2705,1.2705,1.2705,1.2705,1.2875,1.3222,1.3639,1.4139,1.4643,1.5477,1.6214,1.669,1.7764,1.8416,1.8638,1.9054,1.9134,1.8727,1.9134,1.9301,-0.0815,0.0,0.0,0.0,0.0,0.0,0.0,0.0,0.0,0.0,0.0,0.0,0.0,0.0,0.0,0.0,0.0,0.0,0.0,0.0,0.0,0.0,0.0,0.0,0.0,0.0,0.0,0.0,0.0,0.0,0.2486,0.2812,0.304,0.3089,0.3179,0.3226,0.3226,0.3293,0.3373,0.3462,0.355,0.3638,0.3726,0.3752,0.3763,0.3763,0.3763,0.3763,0.3763,0.3763,0.3801,0.3873,0.3991,0.4077,0.4148,0.4259,0.43,0.43,0.4389,0.4659,0.4926,0.5374,0.544,0.5422,0.5633,0.5708,0.5689,0.5725,0.5819,0.608,0.6691,0.7129,0.7658,0.8281,0.9065,0.9676,0.9951,1.0482,1.1008,1.1181,1.144,1.1699,1.1785,1.1785,1.1785,1.1866,1.2198,1.2448,1.2448,1.2619,1.2705,1.2705,1.2705,1.279,1.296,1.296,1.33,1.4062,1.4727,1.5311,1.5718,1.655,1.7286,1.7997,1.8594,1.9002,1.9301,1.9301,1.9301,1.9381,1.9301,1.9301,0.0,0.0,0.0,-0.0837,0.0,0.0,0.0,0.0,-0.0797,0.0,0.0,0.0,0.0,0.0,0.0,0.0,0.0,0.0,0.0,0.0,0.0,0.0,0.0,0.0,0.0,0.0,0.0,0.0,0.0,0.0,0.2284,0.2609,0.2913,0.3085,0.3179,0.3226,0.3226,0.323,0.3277,0.3438,0.346,0.3548,0.3634,0.3724,0.3763,0.3763,0.3763,0.3763,0.3763,0.3763,0.3765,0.3785,0.3965,0.4038,0.4061,0.4234,0.43,0.43,0.4569,0.5018,0.5371,0.5644,0.5566,0.5491,0.5697,0.5651,0.5494,0.57,0.6257,0.6779,0.6779,0.7918,0.9144,0.9148,0.9937,1.0733,1.0916,1.1008,1.1094,1.1613,1.1699,1.1785,1.1957,1.1957,1.2037,1.2369,1.2363,1.2448,1.2705,1.2705,1.2705,1.2705,1.2705,1.296,1.3652,1.3652,1.4062,1.497,1.5718,1.6214,1.6617,1.7772,1.8442,1.8692,1.9073,1.9301,1.9301,1.9301,1.939,1.9557,1.939,1.939,0.0,0.0,-0.0936,-0.0898,0.0,0.0,0.0,0.0,0.0,0.0,0.0,0.0,0.0,0.0,0.0,0.0,0.0,0.0,0.0,0.0,0.0,0.0,0.0,0.0,0.0,0.0,0.0,0.0,0.1279,0.0,0.0,0.2571,0.2881,0.3057,0.3089,0.3166,0.3226,0.3226,0.3273,0.3434,0.3456,0.3544,0.363,0.3722,0.3763,0.3763,0.3763,0.3763,0.3763,0.3763,0.3763,0.3775,0.3897,0.4064,0.4305,0.45,0.4569,0.4659,0.5015,0.5282,0.5447,0.555,0.5497,0.5456,0.5504,0.5521,0.5645,0.6118,0.6536,0.7041,0.8093,0.8794,0.941,1.0207,1.0651,1.0916,1.1176,1.1354,1.1527,1.1699,1.1952,1.2198,1.2283,1.2369,1.2454,1.2448,1.2534,1.2619,1.2705,1.2705,1.2875,1.3307,1.3392,1.3646,1.4321,1.4894,1.5553,1.6124,1.6788,1.7456,1.8031,1.8362,1.8772,1.9073,1.9231,1.9301,1.9301,1.939,1.9784,2.0391,2.045,2.0527,-0.0868,-0.091,0.0,-0.0856,-0.0859,0.0,-0.0831,0.0,0.0,0.0,0.0,0.0,0.0,0.0,0.0,0.0,0.0,0.0,0.0,0.0,0.0,0.0,0.0,0.0,0.0,0.0,0.0496,0.1113,0.1374,0.0,0.0,0.0,0.2832,0.3011,0.3044,0.3134,0.3226,0.3226,0.3256,0.3316,0.3442,0.3528,0.3585,0.3707,0.3763,0.3763,0.3763,0.3763,0.3763,0.3763,0.3763,0.3773,0.3865,0.4117,0.4384,0.4548,0.4807,0.5018,0.5282,0.546,0.5539,0.5553,0.5556,0.548,0.5445,0.5658,0.5978,0.649,0.7149,0.7997,0.899,0.9501,1.0033,1.0829,1.1008,1.1181,1.1267,1.1527,1.1699,1.1785,1.2118,1.2448,1.2448,1.2619,1.2619,1.2534,1.2619,1.279,1.3045,1.3045,1.3307,1.3984,1.4153,1.4482,1.5235,1.6131,1.6796,1.7115,1.77,1.8193,1.8772,1.8772,1.8922,1.9301,1.9301,1.945,1.9835,1.9932,2.0537,2.1431,2.1886,2.2103]},{"header":{"parameterUnit":"m.s-1","parameterCategory":1,"la1":30.6,"la2":29.2853,"lo1":-89.7004,"lo2":-87.6739,"dy":0.0162,"dx":0.0183,"nx":112,"ny":82,"refTime":"2026-03-17T00:00:00:Z","depth":0,"parameterNumber":3,"parameterNumberName":"V-component_of_WINDS"},"data":[0.0,0.0,0.0,0.0,0.0,0.0,0.0,0.0,0.0,0.0,0.0,0.0,0.0,0.0,0.0,0.0,0.0,0.0,0.0,0.0,0.0,0.0,0.0,0.0,0.0,0.0,0.0,0.0,0.0,0.0,0.0,0.0,0.0,0.0,0.0,0.0,0.0,0.0,0.0,0.0,0.0,0.0,0.0,0.0,0.0,0.0,0.0,0.0,0.0,0.0,0.0,0.0,0.0,0.0,0.0,0.0,0.0,0.0,0.0,0.0,0.0,0.0,0.0,0.0,0.0,0.0,0.0,0.0,0.0,0.0,0.0,0.0,0.0,0.0,0.0,0.0,0.0,0.0,0.0,0.0,0.0,0.0,0.0,0.0,0.0,0.0,0.0,0.0,0.0,0.0,-1.4042,-1.6796,-1.9121,-2.0214,-1.9531,-1.9354,-1.8297,-1.5952,0.0,0.0,0.0,0.0,0.0,0.0,0.0,0.0,0.0,0.0,0.0,0.0,0.0,0.0,0.0,0.0,0.0,0.0,0.0,0.0,0.0,0.0,0.0,0.0,0.0,0.0,0.0,0.0,0.0,0.0,0.0,0.0,0.0,0.0,0.0,0.0,0.0,0.0,0.0,0.0,0.0,0.0,0.0,0.0,0.0,0.0,0.0,0.0,0.0,0.0,0.0,0.0,0.0,0.0,0.0,0.0,0.0,0.0,0.0,0.0,0.0,0.0,0.0,0.0,0.0,0.0,0.0,0.0,0.0,0.0,0.0,0.0,0.0,0.0,0.0,0.0,0.0,0.0,0.0,0.0,0.0,0.0,0.0,0.0,0.0,0.0,0.0,0.0,0.0,0.0,0.0,0.0,0.0,0.0,0.0,0.0,0.0,0.0,0.0,0.0,0.0,0.0,0.0,0.0,-1.5174,-1.8473,-1.9823,-2.0449,-2.0332,-1.9648,-1.8749,-1.7667,0.0,0.0,0.0,0.0,0.0,0.0,0.0,0.0,0.0,0.0,0.0,0.0,0.0,0.0,0.0,0.0,0.0,0.0,0.0,0.0,0.0,0.0,0.0,0.0,0.0,0.0,0.0,0.0,0.0,0.0,0.0,0.0,0.0,0.0,0.0,0.0,0.0,0.0,0.0,0.0,0.0,0.0,0.0,0.0,0.0,0.0,0.0,0.0,0.0,0.0,0.0,0.0,0.0,0.0,0.0,0.0,0.0,0.0,0.0,0.0,0.0,0.0,0.0,0.0,0.0,0.0,0.0,0.0,0.0,0.0,0.0,0.0,0.0,0.0,0.0,0.0,0.0,0.0,0.0,0.0,0.0,0.0,0.0,0.0,0.0,0.0,0.0,0.0,0.0,0.0,0.0,0.0,0.0,0.0,0.0,0.0,0.0,0.0,0.0,0.0,0.0,0.0,0.0,-1.4749,-1.6462,-1.8934,-1.9975,-2.0508,-2.0494,-1.9693,-1.886,-1.8046,-1.5547,0.0,0.0,0.0,0.0,0.0,0.0,0.0,0.0,0.0,0.0,0.0,0.0,0.0,0.0,0.0,0.0,0.0,0.0,0.0,0.0,0.0,0.0,0.0,0.0,0.0,0.0,0.0,0.0,0.0,0.0,0.0,0.0,0.0,0.0,0.0,0.0,0.0,0.0,0.0,0.0,0.0,0.0,0.0,0.0,0.0,0.0,0.0,0.0,0.0,0.0,0.0,0.0,0.0,0.0,0.0,0.0,0.0,0.0,0.0,0.0,0.0,0.0,0.0,0.0,0.0,0.0,0.0,0.0,0.0,0.0,0.0,0.0,0.0,0.0,0.0,0.0,0.0,0.0,0.0,0.0,0.0,0.0,0.0,0.0,0.0,0.0,0.0,0.0,0.0,0.0,0.0,0.0,0.0,0.0,0.0,0.0,0.0,0.0,0.0,0.0,0.0,0.0,-1.633,-1.7631,-1.9333,-2.0099,-2.0499,-2.049,-1.9698,-1.8851,-1.8049,-1.5553,0.0,0.0,0.0,0.0,0.0,0.0,0.0,0.0,0.0,0.0,0.0,0.0,0.0,0.0,0.0,0.0,0.0,0.0,0.0,0.0,0.0,0.0,0.0,0.0,0.0,0.0,0.0,0.0,0.0,0.0,0.0,0.0,0.0,0.0,0.0,0.0,0.0,0.0,0.0,0.0,0.0,0.0,0.0,0.0,0.0,0.0,0.0,0.0,0.0,0.0,0.0,0.0,0.0,0.0,0.0,0.0,0.0,0.0,0.0,0.0,0.0,0.0,0.0,0.0,0.0,0.0,0.0,0.0,0.0,0.0,0.0,0.0,0.0,0.0,0.0,0.0,0.0,0.0,0.0,0.0,0.0,0.0,0.0,0.0,0.0,0.0,0.0,0.0,0.0,0.0,0.0,0.0,0.0,0.0,0.0,0.0,0.0,0.0,0.0,0.0,0.0,0.0,-1.6804,-1.8489,-2.0221,-2.0463,-2.0495,-2.0508,-1.969,-1.8867,-1.8057,-1.5559,0.0,0.0,0.0,0.0,0.0,0.0,0.0,0.0,0.0,0.0,0.0,0.0,0.0,0.0,0.0,0.0,0.0,0.0,0.0,0.0,0.0,0.0,0.0,0.0,0.0,0.0,0.0,0.0,0.0,0.0,0.0,0.0,0.0,0.0,0.0,0.0,0.0,0.0,0.0,0.0,0.0,0.0,0.0,0.0,0.0,0.0,0.0,0.0,0.0,0.0,0.0,0.0,0.0,0.0,0.0,0.0,0.0,0.0,0.0,0.0,0.0,0.0,0.0,0.0,0.0,0.0,0.0,0.0,0.0,0.0,0.0,0.0,0.0,0.0,0.0,0.0,0.0,0.0,0.0,0.0,0.0,0.0,0.0,0.0,0.0,0.0,0.0,0.0,0.0,0.0,0.0,0.0,0.0,0.0,0.0,0.0,0.0,0.0,0.0,0.0,0.0,0.0,-1.6386,-1.7975,0.0,-2.0493,-2.0502,-2.0495,-2.0204,-1.92,-1.7315,0.0,0.0,0.0,0.0,0.0,0.0,0.0,0.0,0.0,0.0,0.0,0.0,0.0,0.0,0.0,0.0,0.0,0.0,0.0,0.0,0.0,0.0,0.0,0.0,0.0,0.0,0.0,0.0,0.0,0.0,0.0,0.0,0.0,0.0,0.0,0.0,0.0,0.0,0.0,0.0,0.0,0.0,0.0,0.0,0.0,0.0,0.0,0.0,0.0,0.0,0.0,0.0,0.0,0.0,0.0,0.0,0.0,0.0,0.0,0.0,0.0,0.0,0.0,0.0,0.0,0.0,0.0,0.0,0.0,0.0,0.0,0.0,0.0,0.0,0.0,0.0,0.0,0.0,0.0,0.0,0.0,0.0,0.0,0.0,0.0,0.0,0.0,0.0,0.0,0.0,0.0,0.0,0.0,0.0,0.0,0.0,0.0,0.0,0.0,0.0,0.0,0.0,-1.5103,-1.6576,-1.8107,0.0,-2.008,-1.9988,-1.9705,-1.9418,-1.8391,-1.638,0.0,0.0,0.0,0.0,0.0,0.0,0.0,0.0,0.0,0.0,0.0,0.0,0.0,0.0,0.0,0.0,0.0,0.0,0.0,0.0,0.0,0.0,0.0,0.0,0.0,0.0,0.0,0.0,0.0,0.0,0.0,0.0,0.0,0.0,0.0,0.0,0.0,0.0,0.0,0.0,0.0,0.0,0.0,0.0,0.0,0.0,0.0,0.0,0.0,0.0,0.0,0.0,0.0,0.0,0.0,0.0,0.0,0.0,0.0,0.0,0.0,0.0,0.0,0.0,0.0,0.0,0.0,0.0,0.0,0.0,0.0,0.0,0.0,0.0,0.0,0.0,0.0,0.0,0.0,0.0,0.0,0.0,0.0,0.0,0.0,0.0,0.0,0.0,0.0,0.0,0.0,0.0,0.0,0.0,0.0,0.0,0.0,0.0,0.0,0.0,0.0,0.0,-1.517,-1.7559,-1.9172,-1.9172,-1.9191,-1.8841,-1.7967,-1.7117,-1.6223,0.0,0.0,0.0,0.0,0.0,0.0,0.0,0.0,0.0,0.0,0.0,0.0,0.0,0.0,0.0,0.0,0.0,0.0,0.0,0.0,0.0,0.0,0.0,0.0,0.0,0.0,0.0,0.0,0.0,0.0,0.0,0.0,0.0,0.0,0.0,0.0,0.0,0.0,0.0,0.0,0.0,0.0,0.0,0.0,0.0,0.0,0.0,0.0,0.0,0.0,0.0,0.0,0.0,0.0,0.0,0.0,0.0,0.0,0.0,0.0,0.0,0.0,0.0,0.0,0.0,0.0,0.0,0.0,0.0,0.0,0.0,0.0,0.0,0.0,0.0,0.0,0.0,0.0,0.0,0.0,0.0,0.0,0.0,0.0,0.0,0.0,0.0,0.0,0.0,0.0,0.0,0.0,0.0,0.0,0.0,0.0,0.0,0.0,0.0,0.0,0.0,0.0,0.0,-1.4335,-1.6161,-1.7602,-1.822,-1.8278,-1.8181,-1.7929,-1.7657,-1.6647,-1.4588,0.0,0.0,0.0,0.0,0.0,0.0,0.0,0.0,0.0,0.0,0.0,0.0,0.0,0.0,0.0,0.0,0.0,0.0,0.0,0.0,0.0,0.0,0.0,0.0,0.0,0.0,0.0,0.0,0.0,0.0,0.0,0.0,0.0,0.0,0.0,0.0,0.0,0.0,0.0,0.0,0.0,0.0,0.0,0.0,0.0,0.0,0.0,0.0,0.0,0.0,0.0,0.0,0.0,0.0,0.0,0.0,0.0,0.0,0.0,0.0,0.0,0.0,0.0,0.0,0.0,0.0,0.0,0.0,0.0,0.0,0.0,0.0,0.0,0.0,0.0,0.0,0.0,0.0,0.0,0.0,0.0,0.0,0.0,0.0,0.0,0.0,0.0,0.0,0.0,0.0,0.0,0.0,0.0,0.0,0.0,0.0,0.0,0.0,0.0,0.0,0.0,0.0,-1.4471,-1.6375,-1.7699,-1.789,-1.822,-1.8142,-1.7443,-1.7385,-1.6297,-1.3733,0.0,0.0,0.0,0.0,0.0,0.0,0.0,0.0,0.0,0.0,0.0,0.0,0.0,0.0,0.0,0.0,0.0,0.0,0.0,0.0,0.0,0.0,0.0,0.0,0.0,0.0,0.0,0.0,0.0,0.0,0.0,0.0,0.0,0.0,0.0,0.0,0.0,0.0,0.0,0.0,0.0,0.0,0.0,0.0,0.0,0.0,0.0,0.0,0.0,0.0,0.0,0.0,0.0,0.0,0.0,0.0,0.0,0.0,0.0,0.0,0.0,0.0,0.0,0.0,0.0,0.0,0.0,0.0,0.0,0.0,0.0,0.0,0.0,0.0,0.0,0.0,0.0,0.0,0.0,0.0,0.0,0.0,0.0,0.0,0.0,0.0,0.0,0.0,0.0,0.0,0.0,0.0,0.0,0.0,0.0,0.0,0.0,0.0,0.0,0.0,0.0,0.0,-1.519,-1.7443,-1.8686,-1.7987,-1.8608,-1.8438,-1.6864,-1.665,-1.5582,-1.3173,0.0,0.0,0.0,0.0,0.0,0.0,0.0,0.0,0.0,0.0,0.0,0.0,0.0,0.0,0.0,0.0,0.0,0.0,0.0,0.0,0.0,0.0,0.0,0.0,0.0,0.0,0.0,0.0,0.0,0.0,0.0,0.0,0.0,0.0,0.0,0.0,0.0,0.0,0.0,0.0,0.0,0.0,0.0,0.0,0.0,0.0,0.0,0.0,0.0,0.0,0.0,0.0,0.0,0.0,0.0,0.0,0.0,0.0,0.0,0.0,-1.7088,0.0,0.0,0.0,0.0,0.0,0.0,0.0,0.0,0.0,0.0,0.0,0.0,0.0,0.0,0.0,0.0,0.0,0.0,0.0,0.0,0.0,0.0,0.0,0.0,0.0,0.0,0.0,0.0,0.0,0.0,0.0,0.0,0.0,0.0,0.0,0.0,0.0,0.0,0.0,0.0,0.0,-1.5112,-1.6398,-1.735,-1.7851,-1.8065,-1.8026,-1.7657,-1.7,-1.6087,-1.4843,-1.416,0.0,0.0,0.0,0.0,0.0,0.0,0.0,0.0,0.0,0.0,0.0,0.0,0.0,0.0,0.0,0.0,0.0,0.0,0.0,0.0,0.0,0.0,0.0,0.0,0.0,0.0,0.0,0.0,0.0,0.0,0.0,0.0,0.0,0.0,0.0,0.0,0.0,0.0,0.0,0.0,0.0,0.0,0.0,0.0,0.0,0.0,0.0,0.0,0.0,0.0,0.0,0.0,0.0,0.0,0.0,0.0,0.0,0.0,0.0,0.0,-1.9215,0.0,0.0,0.0,0.0,0.0,0.0,0.0,0.0,0.0,0.0,0.0,0.0,0.0,0.0,0.0,0.0,0.0,0.0,0.0,0.0,0.0,0.0,0.0,0.0,0.0,0.0,0.0,0.0,0.0,0.0,0.0,0.0,0.0,0.0,0.0,0.0,0.0,0.0,0.0,0.0,-1.5757,-1.7058,-1.803,-1.8472,-1.89,-1.8973,-1.857,-1.8103,-1.7117,-1.5403,-1.5306,0.0,0.0,0.0,0.0,0.0,0.0,0.0,0.0,0.0,0.0,0.0,0.0,0.0,0.0,0.0,0.0,0.0,0.0,0.0,0.0,0.0,0.0,0.0,0.0,0.0,0.0,0.0,0.0,0.0,0.0,0.0,0.0,0.0,0.0,0.0,0.0,0.0,0.0,0.0,0.0,0.0,0.0,0.0,0.0,0.0,0.0,0.0,0.0,0.0,0.0,0.0,0.0,0.0,-2.4966,-2.578,-2.6482,-2.6482,-2.6879,-2.7337,-2.3747,-2.2347,-2.2452,0.0,0.0,0.0,0.0,0.0,0.0,0.0,0.0,0.0,0.0,0.0,0.0,0.0,0.0,0.0,0.0,0.0,0.0,0.0,0.0,0.0,0.0,0.0,0.0,0.0,-2.0783,-2.1046,0.0,0.0,0.0,0.0,0.0,0.0,0.0,0.0,0.0,0.0,0.0,0.0,-1.6903,-1.8302,-1.9249,-1.9405,-2.0061,-2.0216,-1.9482,-1.9288,-1.8278,-1.6122,-1.6514,-1.5815,0.0,0.0,0.0,0.0,0.0,0.0,0.0,0.0,0.0,0.0,0.0,0.0,0.0,0.0,0.0,0.0,0.0,0.0,0.0,0.0,0.0,0.0,0.0,0.0,0.0,0.0,0.0,0.0,0.0,0.0,0.0,0.0,-1.7042,-1.6299,0.0,0.0,0.0,0.0,0.0,0.0,0.0,0.0,0.0,0.0,0.0,0.0,0.0,0.0,-2.5,-2.6571,-2.7413,-2.755,-2.9118,-2.9926,-3.003,-3.003,-3.0069,-3.0071,-2.9501,0.0,-2.6026,-2.3529,0.0,0.0,0.0,0.0,0.0,0.0,0.0,0.0,0.0,0.0,0.0,0.0,0.0,0.0,0.0,0.0,0.0,0.0,0.0,0.0,0.0,0.0,-2.2404,-2.2452,-2.2565,-2.2528,0.0,-2.0192,-1.8042,-1.6479,0.0,0.0,0.0,0.0,0.0,0.0,0.0,0.0,-1.8554,-1.9055,-1.9482,-2.0255,-2.043,-2.0449,-2.0332,-1.9638,-1.9055,-1.8706,-1.8084,-1.7249,-1.6145,-1.5485,0.0,0.0,0.0,0.0,0.0,0.0,0.0,0.0,0.0,0.0,0.0,0.0,0.0,0.0,0.0,0.0,0.0,0.0,0.0,0.0,0.0,0.0,0.0,0.0,0.0,0.0,0.0,0.0,0.0,-1.6338,-1.7314,-1.7411,-1.8192,-1.8231,0.0,0.0,0.0,0.0,0.0,0.0,0.0,0.0,0.0,-2.5881,-2.5969,-2.6789,-2.8485,-2.9716,-3.0347,-3.0353,-3.1547,-3.2101,-3.2113,-3.2113,-3.2085,-3.2069,-3.2069,-3.1464,-3.0257,-2.7148,-2.5587,-2.5013,0.0,0.0,0.0,0.0,0.0,-2.4036,-2.4974,-2.4999,0.0,0.0,0.0,0.0,0.0,0.0,0.0,0.0,0.0,0.0,0.0,0.0,0.0,-2.513,-2.5452,-2.5453,-2.4517,-2.3828,-2.2443,0.0,-1.9114,-1.8619,-1.5967,0.0,0.0,0.0,0.0,-1.9152,-1.9832,-2.0745,-2.1483,-2.1852,-2.1464,-2.1167,-2.1167,-2.041,-1.9716,-1.923,-1.9308,-1.874,-1.7385,-1.7424,-1.6627,0.0,0.0,0.0,0.0,0.0,0.0,0.0,0.0,0.0,0.0,0.0,0.0,0.0,0.0,0.0,0.0,0.0,0.0,0.0,0.0,0.0,0.0,0.0,0.0,0.0,0.0,0.0,0.0,-1.7938,-1.8504,-1.8953,-2.0144,-2.0339,0.0,0.0,0.0,0.0,0.0,0.0,-2.4375,-2.5248,-2.6774,-2.9129,-2.9171,-2.9985,-3.1676,-3.2543,-3.3087,-3.3315,-3.414,-3.4531,-3.4531,-3.4531,-3.4531,-3.4531,-3.4531,-3.4423,-3.3992,-3.0508,-2.8696,-2.8016,-2.7194,-2.6883,-2.698,-2.7854,-2.777,-2.7382,-2.8663,-2.8709,-2.799,-2.6683,0.0,-2.5168,-2.2838,0.0,0.0,0.0,0.0,-2.542,-2.6067,-2.6722,-2.7168,-2.714,-2.7571,-2.7652,-2.637,-2.68,-2.6183,0.0,-2.1762,-2.1425,-1.8418,0.0,0.0,0.0,0.0,-2.1561,-2.1187,-2.2221,-2.2998,-2.2998,-2.2416,-2.2027,-2.2027,-2.1483,-2.0764,-1.989,-2.0454,-2.0022,-1.8298,-1.8861,-1.8084,-1.5679,0.0,0.0,0.0,0.0,0.0,0.0,0.0,0.0,0.0,0.0,0.0,0.0,0.0,0.0,0.0,0.0,0.0,0.0,0.0,0.0,0.0,0.0,0.0,0.0,0.0,0.0,0.0,0.0,0.0,-2.1782,-2.3872,0.0,0.0,0.0,0.0,-2.2974,-2.5299,-2.7122,-2.7988,-2.8803,-3.0055,-3.1859,-3.1843,-3.2642,-3.4384,-3.5205,-3.6012,-3.6848,-3.7722,-3.813,-3.813,-3.813,-3.813,-3.813,-3.813,-3.7664,-3.6634,-3.3161,-3.1678,-3.1554,-3.0684,-3.0347,-3.0451,-3.134,-3.162,-3.16,-3.1751,-3.1778,-3.1739,-3.1635,-3.0496,-2.8826,-2.7097,-2.6611,0.0,0.0,-2.733,-2.7926,-2.7964,-2.7957,-2.7966,-2.8009,-2.8027,-2.7985,-2.797,-2.8644,-2.7977,0.0,-2.3527,-2.3595,-2.1755,0.0,-2.1541,-2.1464,-2.16,-2.1988,-2.2765,-2.294,-2.2998,-2.2998,-2.2959,-2.2921,-2.2921,-2.2901,-2.2493,-2.1639,-2.1619,-2.09,-1.9191,-1.9172,-1.836,-1.6573,-1.5718,0.0,0.0,0.0,0.0,0.0,0.0,0.0,0.0,0.0,0.0,0.0,0.0,0.0,0.0,0.0,0.0,0.0,0.0,0.0,0.0,0.0,0.0,0.0,0.0,0.0,0.0,0.0,0.0,-2.4302,-2.5648,0.0,0.0,-2.5219,-2.6175,-2.6429,-2.8312,-2.9822,-3.0702,-3.1555,-3.2798,-3.4486,-3.4521,-3.5332,-3.7036,-3.737,-3.7678,-3.8001,-3.8322,-3.8454,-3.8454,-3.8454,-3.8454,-3.8454,-3.8454,-3.8298,-3.7908,-3.6668,-3.512,-3.3499,-3.2656,-3.2346,-3.2384,-3.2703,-3.28,-3.28,-3.2827,-3.2846,-3.2749,-3.2186,-3.1195,-3.0224,-3.0185,-3.0185,-3.0302,-3.0865,-3.1234,-3.1448,-3.1448,-3.1433,-3.1425,-3.1441,-3.1006,-3.0436,-2.9887,-2.9583,-2.8761,-2.6663,-2.6094,-2.5426,-2.3673,-2.3362,-2.3187,-2.2629,-2.3484,-2.4125,-2.3872,-2.4339,-2.4669,-2.4669,-2.4164,-2.3834,-2.3834,-2.3328,-2.2629,-2.1755,-2.1697,-2.1211,-2.008,-2.0041,-1.9482,-1.8302,-1.7967,-1.6685,0.0,0.0,0.0,0.0,0.0,0.0,0.0,0.0,0.0,0.0,0.0,0.0,0.0,0.0,0.0,0.0,0.0,0.0,0.0,0.0,0.0,0.0,0.0,0.0,0.0,0.0,-2.5609,-2.6468,-2.7854,-2.8264,-2.7132,-2.8323,-2.9279,-2.9552,-3.1163,-3.2496,-3.3378,-3.4212,-3.5324,-3.6735,-3.677,-3.7454,-3.8858,-3.8924,-3.9075,-3.9349,-3.9348,-3.9334,-3.9334,-3.9334,-3.9334,-3.9334,-3.9334,-3.9334,-3.9315,-3.9045,-3.7873,-3.6163,-3.5337,-3.503,-3.5022,-3.5022,-3.5022,-3.5022,-3.5022,-3.5022,-3.4886,-3.3992,-3.3332,-3.2866,-3.2846,-3.2846,-3.2905,-3.3215,-3.3293,-3.3293,-3.3293,-3.3293,-3.3293,-3.3293,-3.2866,-3.2283,-3.17,-3.0884,-3.0108,-2.9518,-2.8262,-2.6941,-2.577,-2.5576,-2.5382,-2.4805,-2.5698,-2.6242,-2.5653,-2.6081,-2.6339,-2.6067,-2.5523,-2.5057,-2.476,-2.4203,-2.3387,-2.2202,-2.2144,-2.1658,-2.0546,-2.0507,-2.008,-1.9211,-1.89,-1.7909,-1.6161,0.0,0.0,0.0,0.0,0.0,0.0,0.0,0.0,0.0,0.0,0.0,0.0,0.0,0.0,0.0,0.0,0.0,0.0,0.0,0.0,0.0,0.0,0.0,-2.4475,-2.6,-2.7444,-2.8323,-3.0626,-3.1504,-2.9884,-3.1973,-3.3105,-3.2285,-3.3807,-3.5164,-3.6033,-3.6813,-3.7645,-3.8506,-3.8537,-3.8978,-3.9861,-3.9884,-4.0294,-4.1072,-4.1072,-4.1072,-4.1072,-4.1072,-4.1072,-4.1072,-4.1052,-4.1052,-4.1013,-4.0216,-3.9848,-3.9691,-3.8765,-3.8408,-3.841,-3.8402,-3.8402,-3.8402,-3.8402,-3.8402,-3.8266,-3.7411,-3.7139,-3.6828,-3.5119,-3.4614,-3.4459,-3.3682,-3.3468,-3.3448,-3.3429,-3.3429,-3.341,-3.3371,-3.3351,-3.3332,-3.3332,-3.2652,-3.2043,-3.2043,-3.0003,-2.8236,-2.8139,-2.812,-2.81,-2.81,-2.81,0.0,-2.81,-2.81,-2.7796,-2.7019,-2.6941,-2.6592,-2.5718,-2.564,-2.4882,-2.3115,-2.2998,-2.226,-2.0604,-2.0546,-2.0138,-1.9288,-1.8395,-1.7948,-1.7948,0.0,0.0,0.0,0.0,0.0,0.0,0.0,0.0,0.0,0.0,0.0,0.0,0.0,0.0,0.0,0.0,0.0,0.0,0.0,0.0,0.0,0.0,-2.6293,-2.6293,-2.8283,-3.0079,-3.0958,-3.2226,-3.2851,-3.2402,-3.3554,-3.451,-3.4901,-3.5955,-3.6972,-3.7836,-3.8045,-3.8535,-3.9413,-3.9433,-4.0133,-4.1607,-4.166,-4.2107,-4.2969,-4.2966,-4.2964,-4.2964,-4.2964,-4.2964,-4.2923,-4.2298,-4.2376,-4.2886,-4.2031,-4.1679,-4.1437,-3.9248,-3.8396,-3.8408,-3.8391,-3.8402,-3.8402,-3.8402,-3.8402,-3.8363,-3.811,-3.8033,-3.7955,-3.7469,-3.7333,-3.7275,-3.7061,-3.7003,-3.6848,-3.6226,-3.6051,-3.5896,-3.5255,-3.4633,-3.4167,-3.4167,-3.3526,-3.2943,-3.2943,-3.2361,-3.1273,-2.9369,-2.8508,-2.81,-2.81,-2.81,0.0,-2.81,-2.81,-2.8023,-2.7796,-2.7777,-2.7446,-2.6611,-2.6533,-2.5523,-2.3154,-2.2998,-2.2513,-2.142,-2.1362,-2.127,-2.1017,-1.958,-1.8841,0.0,0.0,0.0,0.0,0.0,0.0,0.0,0.0,0.0,0.0,0.0,0.0,0.0,0.0,0.0,0.0,0.0,0.0,0.0,0.0,0.0,0.0,-2.6663,-2.8713,-2.9086,-3.0411,-3.1797,-3.3046,-3.3964,-3.4627,-3.4998,-3.5818,-3.654,-3.7048,-3.7867,-3.857,-3.9078,-3.9406,-3.9822,-4.0327,-4.0701,-4.1366,-4.2324,-4.2741,-4.3202,-4.3702,-4.369,-4.3704,-4.3704,-4.3704,-4.3704,0.0,-4.3157,-4.3235,-4.3668,-4.3152,-4.2945,0.0,0.0,0.0,0.0,0.0,-3.946,-3.9451,-3.9451,-3.9451,-3.9451,-3.9451,-3.9451,-3.9373,-3.9043,-3.8946,-3.8868,-3.8499,-3.8402,-3.8285,-3.778,-3.7644,-3.7411,-3.6556,-3.5954,-3.5488,-3.5119,-3.4381,-3.3798,-3.3798,-3.3526,0.0,-3.1292,-3.0321,-2.9732,-2.9732,-2.9428,-2.9195,-2.9195,-2.9195,-2.9059,-2.869,-2.8644,-2.832,-2.7466,-2.7097,0.0,0.0,0.0,-2.3154,-2.228,-2.2241,0.0,0.0,0.0,0.0,0.0,0.0,0.0,0.0,-1.8123,-1.7797,0.0,0.0,0.0,0.0,0.0,0.0,0.0,0.0,0.0,0.0,0.0,0.0,0.0,0.0,0.0,0.0,-2.8928,-3.1407,-3.2265,-3.2558,-3.3222,-3.4666,-3.5623,-3.6482,-3.736,-3.8238,-3.8746,-3.8746,-3.9488,-3.9956,-3.9956,0.0,0.0,0.0,0.0,-4.2589,-4.2689,-4.345,-4.3899,-4.3997,-4.3997,-4.3997,-4.3997,-4.3997,-4.3997,-4.3997,-4.3879,-4.3899,-4.3997,-4.3879,-4.3852,-4.3747,-4.2809,-4.1963,-4.1295,-4.1283,-4.1263,-4.1198,-4.1189,0.0,0.0,-4.1199,-4.1199,-4.1043,-4.0228,-3.9975,-3.98,-3.8926,-3.8674,-3.8654,-3.8576,-3.8538,-3.8324,-3.745,-3.7256,-3.7003,-3.6129,-3.5333,-3.475,-3.4672,-3.407,-3.3584,-3.3584,-3.2788,-3.2147,-3.2147,-3.1409,-3.0846,-3.0846,-3.0749,-3.0399,-2.9622,0.0,0.0,-2.8314,-2.7608,-2.6779,-2.5807,-2.501,-2.4252,-2.348,-2.3436,-2.3795,-2.4585,-2.4508,-2.4449,-2.4449,-2.4449,-2.4508,-2.4527,-2.1289,-2.0629,0.0,0.0,0.0,0.0,0.0,0.0,0.0,0.0,0.0,0.0,0.0,0.0,0.0,0.0,0.0,-2.8596,-3.1114,-3.3202,-3.4061,-3.5408,-3.6169,-3.5798,-3.6521,-3.7399,-3.8258,-3.9097,-3.9566,-3.9566,-4.0366,-4.0854,-4.0854,-4.1677,0.0,-4.2142,-4.2988,-4.3788,-4.4484,-4.466,-4.5109,-4.5792,0.0,0.0,-4.5792,-4.5792,-4.5792,-4.5753,-4.5051,-4.5148,-4.5734,-4.5031,-4.4742,-4.4653,-4.3729,-4.3244,-4.3095,-4.3109,-4.3059,-4.2992,-4.3002,-4.3005,-4.3005,-4.3005,-4.3005,-4.285,-4.1976,-4.1723,0.0,-4.0655,-4.0422,-4.0266,-3.9625,-3.9451,-3.9237,-3.8363,-3.8149,-3.7916,-3.7042,-3.6712,-3.6382,-3.5702,-3.543,-3.5333,-3.5333,-3.407,-3.306,-3.306,-3.2302,-3.1759,-3.1759,-3.1137,-3.0632,-3.0477,-3.0457,-3.0108,-2.9214,-2.9049,-2.832,-2.6747,-2.6482,-2.633,-2.6147,-2.615,-2.6234,-2.6398,-2.5718,-2.5349,-2.5349,-2.5349,-2.5718,-2.6339,-2.428,-2.3872,0.0,0.0,0.0,0.0,0.0,0.0,0.0,0.0,0.0,0.0,0.0,-2.3529,0.0,0.0,-2.9474,-3.1211,-3.2949,-3.451,-3.5818,-3.6755,-3.7145,-3.6696,-3.7789,-3.8726,-3.9156,-3.9956,-4.0444,-4.0444,-4.1264,-4.1752,-4.1752,-4.2572,-4.304,-4.304,-4.3899,-4.4563,-4.4992,-4.5421,-4.587,-4.63,-4.63,-4.63,-4.63,-4.63,-4.63,-4.628,-4.5831,-4.5909,-4.6261,-4.5831,-4.5656,-4.56,-4.5131,-4.4414,-4.3647,-4.3606,-4.3578,-4.3559,-4.3518,-4.3489,-4.351,-4.3491,-4.351,-4.3413,-4.2986,-4.285,-4.2753,-4.2325,-4.1898,-4.1451,-4.1063,-4.0635,-4.0092,-3.9256,-3.9043,-3.881,-3.7935,-3.7741,-3.7625,-3.7197,-3.6751,-3.6459,-3.6459,-3.5391,-3.44,-3.3973,-3.3196,-3.2652,-3.2652,-3.2264,-3.1836,-3.1409,-3.1351,-3.0996,-3.0113,-2.9706,-2.8931,-2.7627,-2.7552,-2.7546,-2.755,-2.7541,-2.7551,-2.7562,-2.7083,-2.6844,-2.6844,-2.6844,-2.731,-2.8146,-2.7718,-2.7272,0.0,0.0,0.0,0.0,0.0,0.0,0.0,0.0,-2.157,-2.3435,-2.4701,-2.6145,-2.8191,-3.0204,-3.2001,-3.3406,-3.4524,-3.5701,-3.7106,-3.7575,-3.7789,-3.7789,-3.898,-3.9878,-4.0034,-4.0698,-4.1166,-4.1342,-4.2006,-4.2474,-4.265,-4.3489,-4.3957,-4.3957,-4.4797,-4.5246,-4.5246,-4.5948,-4.63,-4.63,-4.63,-4.63,-4.63,-4.63,-4.63,-4.63,-4.63,-4.63,-4.63,-4.63,-4.63,-4.63,-4.63,-4.5436,-4.4198,-4.4138,-4.412,-4.4109,-4.405,-4.4014,-4.402,-4.4005,-4.4005,-4.3994,-4.3802,-4.3762,-4.3741,-4.3569,-4.3005,-4.2451,-4.2461,-4.181,-4.0985,-4.0344,-4.0053,-3.9703,-3.8829,-3.8654,-3.8596,-3.8421,-3.7819,-3.7353,-3.7353,-3.6634,-3.576,-3.4886,-3.4051,-3.3526,-3.3526,-3.339,-3.3021,-3.2341,-3.2259,-3.1909,-3.104,-3.0389,-2.9622,-2.8766,-2.8706,-2.8719,-2.8703,-2.8704,-2.8695,-2.8693,-2.8625,-2.869,-2.8858,-2.8858,-2.9311,-3.0166,-3.0884,-3.036,-2.191,-2.0859,0.0,-2.0905,-2.0614,-2.1131,0.0,0.0,-2.4387,-2.6908,-2.8683,-2.9918,-3.0253,-3.2441,-3.4238,-3.4433,-3.5896,-3.7087,-3.7262,-3.859,-3.9527,-3.9527,-3.9683,-4.0093,-4.0873,-4.103,-4.142,-4.2201,-4.2337,-4.2747,-4.3509,-4.4387,-4.4855,-4.4855,-4.5695,-4.6144,-4.6144,-4.6241,-4.63,-4.63,-4.63,-4.63,-4.63,-4.63,-4.63,-4.63,-4.63,-4.63,-4.63,-4.63,-4.63,-4.63,-4.63,-4.6186,-4.6017,-4.5993,-4.5957,-4.5916,-4.5905,-4.5909,-4.5894,-4.5832,-4.585,-4.5748,-4.492,-4.4702,-4.4577,-4.3802,-4.3491,-4.335,-4.3344,-4.2714,-4.2034,-4.1937,-4.1335,-4.0538,-3.9723,-3.9548,-3.9334,-3.8538,-3.8324,-3.8246,-3.8246,-3.7528,-3.6653,-3.5799,-3.4925,-3.4361,-3.4361,-3.374,-3.3254,-3.3157,-3.3141,-3.2822,-3.201,-3.1855,-3.1445,-3.0554,-3.0504,-3.0508,-3.0507,-3.0506,-3.0474,-3.0424,-3.0405,-3.0801,-3.1557,-3.1557,-3.2011,-3.2866,-3.2963,-3.2497,-2.4592,0.0,0.0,0.0,-2.3784,-2.437,-2.6147,-2.6783,-2.7468,-2.9079,-3.0394,-3.1555,-3.258,-3.3705,-3.4828,0.0,-3.6689,-3.755,-3.8606,-3.9351,-3.98,-3.98,-4.0249,-4.0698,-4.1049,-4.1108,-4.1459,-4.2337,-4.2864,-4.3548,-4.4406,-4.5285,-4.5753,-4.5753,-4.6105,-4.63,-4.63,-4.6807,-4.6807,-4.63,-4.7295,-4.751,-4.7061,-4.7549,-4.7744,-4.7744,-4.7744,-4.7744,-4.7744,-4.7744,-4.7744,-4.7744,-4.7744,-4.7744,-4.7647,-4.6664,-4.6284,-4.6249,-4.621,-4.6202,-4.6209,-4.6171,-4.6171,-4.612,-4.5738,-4.5636,-4.5574,-4.5211,-4.4724,-4.43,-4.4304,-4.3669,-4.2895,-4.2381,-4.196,-4.1431,-4.0577,-4.0402,-4.0286,-3.9936,-3.947,-3.9159,-3.9159,-3.8421,-3.7722,-3.7372,-3.6148,-3.5255,-3.5255,-3.4964,-3.4571,-3.4114,-3.3629,-3.3218,-3.2891,-3.2868,-3.2704,-3.2343,-3.2311,-3.2318,-3.2303,-3.2303,-3.2309,-3.2268,-3.2221,-3.2382,-3.2764,-3.2757,-3.2943,-3.3313,-3.3779,-3.3798,-2.583,0.0,0.0,-2.5558,-2.6205,-2.6929,-2.714,-2.8357,-2.9687,-3.0552,-3.1642,-3.2828,-3.4055,-3.4526,0.0,-3.6798,-3.7287,-3.801,-3.9544,-3.9793,-3.98,-3.98,-4.0151,-4.0503,-4.0717,-4.0952,-4.1557,-4.2669,-4.3333,-4.4192,-4.5304,-4.5968,-4.63,-4.63,-4.6534,-4.6651,-4.6651,-4.751,-4.7608,-4.7002,-4.8213,-4.8486,-4.7959,-4.8525,-4.8798,-4.8798,-4.8798,-4.8798,-4.8798,-4.8798,-4.8798,-4.8798,-4.8798,-4.8798,-4.8642,-4.7432,-4.6859,-4.6655,-4.6599,-4.6426,-4.6228,-4.6221,-4.6221,-4.6223,-4.6215,-4.6217,-4.6223,-4.6215,-4.5746,-4.5258,-4.5252,-4.461,-4.3807,-4.3173,-4.2792,-4.2349,-4.1474,-4.1282,-4.1216,-4.0965,-4.0441,-4.0033,-4.0033,-3.9315,-3.8751,-3.8751,-3.7475,-3.6425,-3.6187,-3.5951,-3.5593,-3.503,-3.4446,-3.4004,-3.3787,-3.3758,-3.3651,-3.3417,-3.3398,-3.3402,-3.3392,-3.3396,-3.3398,-3.3398,-3.3353,-3.3434,-3.366,-3.3665,-3.3767,-3.3992,-3.4595,-3.4866,0.0,0.0,-2.6469,-2.6469,-2.7125,-2.7953,-2.8746,-2.9627,-3.0496,-3.1373,-3.2936,-3.4135,-3.4193,-3.4959,-3.5869,-3.6759,-3.7728,-3.8681,-3.9571,-3.9754,-3.98,-3.98,-3.9136,-3.898,0.0,-4.06,-4.181,-4.3528,-4.3684,-4.4445,-4.6163,-4.628,-4.63,-4.63,-4.712,-4.7569,-4.7569,-4.8369,-4.8759,-4.872,-4.8779,-4.8798,-4.8759,-4.8798,-4.8798,-4.8798,-4.8798,-4.8798,-4.8798,-4.8798,-4.8798,-4.8798,-4.8798,-4.8798,-4.8798,-4.874,-4.8232,-4.7569,-4.7569,-4.7002,-4.6306,-4.6305,-4.63,-4.6273,-4.6229,-4.6249,-4.6273,-4.6229,-4.619,-4.6152,-4.6161,-4.5506,-4.4855,-4.4836,-4.4175,-4.331,-4.2451,-4.2259,-4.202,-4.1155,-4.0926,-4.0869,-4.0869,-4.0189,-3.9664,-3.9664,-3.8902,-3.8014,-3.7167,-3.6372,-3.5888,-3.5859,-3.584,-3.5506,-3.4727,-3.4666,-3.4295,-3.3456,-3.3398,-3.3398,-3.3398,-3.3392,-3.3397,-3.3398,-3.34,-3.3774,-3.4564,-3.4555,-3.4967,-3.5721,-3.576,-3.576,0.0,0.0,-2.7427,-2.7963,-2.8352,-2.8951,-3.033,-3.0919,-3.1411,-3.2282,-3.2923,-3.3333,-3.3333,-3.4064,-3.5164,-3.6726,-3.7747,-3.8864,-4.0418,-4.0652,-4.0249,-3.9136,-3.9741,0.0,0.0,0.0,0.0,-4.3528,-4.3704,-4.4465,-4.6202,-4.63,-4.63,-4.63,-4.7159,-4.7608,-4.7608,-4.8974,-4.9364,-4.8818,-4.9384,-4.9969,-5.0535,-5.0535,-5.0535,-5.0535,-5.0535,-5.0535,-5.0535,-5.0535,-5.0535,-5.0535,-5.0535,-5.0535,-5.0535,-5.0535,-4.9989,-4.9189,-4.8603,-4.8193,-4.7962,-4.7969,-4.7966,-4.7943,-4.7938,-4.7562,-4.7162,-4.7137,-4.671,-4.6278,-4.6264,-4.6054,-4.5663,-4.5057,-4.4681,-4.422,-4.3349,-4.3166,-4.2908,-4.2032,-4.1832,-4.1652,-4.1067,-4.0746,-4.037,-3.9786,-3.8474,-3.7459,-3.7206,-3.644,-3.5893,-3.5898,-3.5933,-3.5867,-3.5584,-3.5564,-3.5447,-3.5132,-3.5132,-3.5132,-3.5132,-3.514,-3.5133,-3.5135,-3.5086,-3.519,-3.5451,-3.5417,-3.5543,-3.5818,-3.6401,-3.6653,0.0,-2.7426,-2.8408,-2.9541,-2.9855,-3.0188,-3.1259,-3.1761,-3.2026,-3.1987,-3.2474,-3.2801,-3.2494,-3.316,-3.4333,-3.6182,-3.7221,-3.8447,-4.029,-4.0569,-4.0216,-3.9156,-3.9722,0.0,0.0,0.0,0.0,-4.3509,-4.3704,-4.4465,-4.6202,-4.63,-4.63,-4.63,-4.7412,-4.8037,-4.8037,-4.9716,-5.0282,-4.9735,-5.0301,-5.0867,-5.1394,-5.1394,-5.1394,-5.1394,-5.1394,-5.1394,-5.1394,-5.1394,-5.1394,-5.1394,-5.1394,-5.1394,-5.1394,-5.1394,-5.1043,-5.0438,-4.9579,-4.9052,-4.8798,-4.8798,-4.8798,-4.8798,-4.8798,-4.8447,-4.8037,-4.8037,-4.7412,-4.6768,-4.6768,-4.6527,-4.6145,-4.5541,-4.541,-4.5156,-4.4293,-4.4075,-4.382,-4.2932,-4.2753,-4.2497,-4.1618,-4.1211,-4.0812,-4.0281,-3.897,-3.7962,-3.7706,-3.7186,-3.6836,-3.6853,-3.6901,-3.6794,-3.6482,-3.6462,-3.6325,-3.601,-3.5991,-3.5991,-3.5991,-3.5991,-3.6003,-3.5996,-3.5954,-3.5913,-3.5894,-3.6158,-3.625,-3.6284,-3.7159,-3.7566,-2.7426,-2.8376,-2.9426,-3.1102,-3.1503,-3.1503,-3.156,-3.2101,-3.2168,-3.0617,-3.1552,-3.2378,0.0,0.0,-3.3333,-3.5084,-3.6245,-3.754,-3.9353,-3.9707,-3.9769,0.0,0.0,0.0,0.0,0.0,0.0,-4.3587,0.0,-4.4465,-4.6202,-4.63,-4.63,-4.63,-4.792,-4.8798,-4.8798,-5.0535,-5.1394,-5.1394,-5.1394,-5.1394,-5.1394,-5.1394,-5.1394,-5.1394,-5.1394,-5.1394,-5.1394,-5.1394,-5.1394,-5.1394,-5.1394,-5.1394,-5.1394,-5.1394,-5.1394,-5.1277,-5.0457,-4.9638,-4.8935,-4.8935,-4.8935,-4.8935,-4.8935,-4.8896,-4.8876,-4.8876,-4.8271,-4.7647,-4.7608,-4.6983,-4.6358,-4.63,-4.63,-4.6072,-4.5249,-4.5018,-4.4707,-4.3841,-4.364,-4.3342,-4.2519,-4.1641,-4.1082,-4.1152,-4.0429,-3.9551,-3.8671,-3.8535,-3.8533,-3.8595,-3.8593,-3.8277,-3.7438,-3.7379,-3.7009,-3.6189,-3.613,-3.613,-3.613,-3.613,-3.613,-3.613,-3.6133,-3.6083,-3.603,-3.6799,-3.7179,-3.7197,-3.8052,-3.846,-2.8131,-2.9655,-3.0892,-3.1389,-3.1503,-3.1656,-3.2267,-3.115,-3.001,-3.0202,-2.9621,-2.9029,0.0,0.0,0.0,-3.3429,-3.5553,0.0,-3.9409,-4.0287,0.0,0.0,0.0,-4.1264,-4.0815,-4.1947,0.0,0.0,-4.4075,-4.4465,-4.6202,-4.63,-4.63,-4.63,-4.792,-4.8798,-4.8798,-5.0535,-5.1394,-5.1394,-5.1394,-5.1394,-5.1394,-5.1394,-5.1394,-5.1394,-5.1394,-5.1394,-5.1394,-5.1394,-5.1394,-5.1394,-5.1394,-5.1394,-5.1394,-5.1394,-5.1394,-5.1375,-5.116,-5.0926,-5.0731,-5.0731,-5.0731,-5.0731,-5.0731,-5.0282,-4.9774,-4.9774,-4.915,-4.8369,-4.7764,-4.7432,-4.71,-4.6456,-4.63,-4.6248,-4.6012,-4.5955,-4.5683,-4.4804,-4.4118,-4.3609,-4.3379,-4.2615,-4.2046,-4.2069,-4.1322,-4.0455,-3.9576,-3.8951,-3.8578,-3.8593,-3.8593,-3.8514,-3.8297,-3.8277,-3.816,-3.7946,-3.7946,-3.7946,-3.7946,-3.7946,-3.7914,-3.7865,-3.7851,-3.7834,-3.7756,-3.7975,-3.8074,-3.8091,-3.8965,-3.9373,-2.9041,-3.0452,-3.1541,-3.1943,-3.2038,-3.1962,-3.1675,-3.0524,-2.9333,-2.8664,-2.8152,0.0,0.0,0.0,0.0,0.0,0.0,0.0,-3.8831,-4.0212,-4.0894,0.0,-4.1576,0.0,-4.1713,-4.2903,-4.4055,0.0,-4.4543,-4.4855,-4.6222,-4.63,-4.63,-4.63,-4.792,-4.9169,-4.993,-5.0906,-5.1394,-5.1394,-5.1394,-5.1394,-5.1394,-5.1394,-5.1394,-5.1394,0.0,-5.1394,-5.1394,-5.1394,-5.1394,-5.1394,-5.1394,-5.1394,-5.1394,-5.1394,-5.1394,-5.1394,-5.1394,-5.1394,-5.1394,-5.1394,-5.1394,-5.1394,-5.1394,-5.1063,-5.0672,-5.0672,-5.0048,-4.9267,-4.8818,-4.8408,-4.792,-4.7061,-4.6866,-4.6775,-4.6383,-4.6288,-4.6113,-4.5624,-4.4842,-4.4269,-4.4275,-4.3542,-4.2965,-4.2978,-4.2229,-4.1498,-4.101,-4.021,-3.9702,-3.9702,-3.9702,-3.9546,-3.9156,-3.9136,-3.898,-3.8612,-3.8593,-3.8593,-3.8593,-3.8593,-3.8576,-3.8545,-3.8515,-3.8481,-3.8432,-3.8793,-3.8968,-3.8984,-3.983,-4.0228,-2.9913,-3.0835,-3.1675,-3.2348,-3.2443,-3.2,-3.0529,-2.986,-2.8905,-2.6689,0.0,0.0,-2.6316,0.0,-2.9506,-3.1256,0.0,-3.6115,-3.8022,-3.9779,-4.0905,-4.1085,-4.1967,-4.2572,-4.2572,-4.3469,-4.4367,-4.5129,-4.5168,-4.55,-4.6261,-4.63,-4.6397,-4.6612,-4.8037,-4.9638,-5.1375,-5.1394,-5.1394,-5.1394,-5.1394,-5.1394,-5.1394,-5.1394,-5.1394,-5.1394,0.0,0.0,-5.1394,-5.1394,-5.1394,-5.1394,-5.1394,-5.1394,-5.1394,-5.1394,-5.1394,-5.1394,-5.1394,-5.1394,-5.1394,-5.1394,-5.1394,-5.1394,-5.1394,-5.1394,-5.1394,-5.1394,-5.0867,-5.0243,-5.0126,-4.954,-4.8779,-4.7959,-4.7686,-4.738,-4.6619,-4.6328,-4.6208,-4.6192,-4.5622,-4.5156,-4.5155,-4.4444,-4.3863,-4.386,-4.3138,-4.2533,-4.2415,-4.1635,-4.1108,-4.1108,-4.1108,-4.0795,-4.0034,-3.9976,-3.9663,-3.8983,-3.8924,-3.8924,-3.8924,-3.8924,-3.8924,-3.8924,-3.8867,-3.8836,-3.8824,-3.9532,-3.9863,-3.9888,-4.0568,-4.0897,-2.9865,-3.0835,-3.1522,-3.1599,-3.114,-3.0567,-3.0261,-2.8058,0.0,0.0,0.0,-2.4609,-2.4465,-2.6446,0.0,-3.0352,0.0,0.0,0.0,0.0,-4.0281,0.0,0.0,0.0,0.0,0.0,0.0,0.0,0.0,0.0,-4.628,-4.63,-4.6924,-4.831,-4.8642,-4.9638,-5.1375,-5.1394,-5.1394,-5.1394,-5.1394,-5.1394,-5.1394,-5.1394,-5.1394,-5.1394,-5.1394,0.0,-5.1394,-5.1394,-5.1394,-5.1394,-5.1394,-5.1394,-5.1394,-5.1394,-5.1394,-5.1394,-5.1394,-5.1394,-5.1394,-5.1394,-5.1394,-5.1394,-5.1394,-5.1394,-5.1394,-5.1394,-5.1297,-5.1004,-5.0282,-4.9989,-4.9657,-4.8798,-4.8076,-4.7542,-4.7343,-4.6719,-4.6182,-4.6128,-4.6046,-4.5991,-4.5996,-4.5311,-4.4778,-4.4761,-4.4036,-4.3216,-4.2494,-4.1635,-4.1108,-4.1108,-4.1108,-4.103,-4.0893,-4.0873,-4.0815,-4.0678,-4.0678,-4.0678,-4.0678,-4.0678,-4.0678,-4.0678,-4.0644,-4.0615,-4.0561,-4.0721,-4.0749,-4.0694,-4.0829,-4.0877,-3.0452,-3.1178,-3.1484,-3.1427,-3.0796,-2.9975,-2.9096,0.0,0.0,0.0,0.0,-2.3458,-2.3919,0.0,0.0,0.0,0.0,0.0,0.0,0.0,0.0,0.0,0.0,0.0,0.0,0.0,0.0,0.0,0.0,0.0,-4.63,-4.63,-4.7061,-4.8759,-4.8798,-4.9638,-5.1375,-5.1394,-5.1394,-5.1394,-5.1394,-5.1394,-5.1394,-5.1394,-5.1394,-5.1394,-5.1394,0.0,-5.1394,-5.1394,-5.1394,-5.1394,-5.1394,-5.1394,-5.1394,-5.1394,-5.1394,-5.1394,-5.1394,-5.1394,-5.1394,-5.1394,-5.1394,-5.1394,-5.1394,-5.1394,-5.1394,-5.1394,-5.1394,-5.1297,-5.0887,-5.0789,-5.0559,-4.9673,-4.8495,-4.742,-4.692,-4.6494,-4.6183,-4.6115,-4.6131,-4.6152,-4.6192,-4.5872,-4.5624,-4.5624,-4.4882,-4.4197,-4.38,-4.2999,-4.2117,-4.1208,-4.1108,-4.1108,-4.1108,-4.1108,-4.1108,-4.1108,-4.1108,-4.1094,-4.1103,-4.1103,-4.1107,-4.1092,-4.1107,-4.1065,-4.1007,-4.0954,-4.0926,-4.0897,-4.0856,-4.0834,-3.0581,-3.1083,-3.1217,-3.1159,-3.0529,-2.9535,-2.8045,-2.6249,0.0,0.0,0.0,-2.271,-2.3583,0.0,0.0,0.0,0.0,0.0,0.0,0.0,0.0,0.0,0.0,0.0,0.0,0.0,0.0,0.0,0.0,0.0,-4.63,-4.63,-4.7061,-4.8759,-4.8798,-4.9638,-5.1375,-5.1394,-5.1394,-5.1394,-5.1394,-5.1394,-5.1394,-5.1394,-5.1394,-5.1394,-5.1394,0.0,0.0,-5.1394,-5.1394,-5.1394,-5.1394,-5.1394,-5.1394,-5.1394,-5.1394,-5.1394,-5.1394,-5.1394,-5.1394,-5.1394,-5.1394,-5.1394,-5.1394,-5.1394,-5.1394,-5.1394,-5.1394,-5.1394,-5.1394,-5.1398,-5.1135,-5.0075,-4.8783,-4.7487,-4.6436,-4.6201,-4.6174,-4.6114,-4.6096,-4.6111,-4.6162,-4.6191,-4.6189,-4.62,-4.5614,-4.513,-4.5,-4.4374,-4.3376,-4.1822,-4.1482,-4.1303,-4.1127,-4.1108,-4.1108,-4.1108,-4.1094,-4.1101,-4.1108,-4.1092,-4.1094,-4.111,-4.1088,-4.1057,-4.0986,-4.0937,-4.0888,-4.0886,-4.0823,-4.0788,-2.9251,-2.9726,-3.0319,-3.03,-2.9669,-2.8777,-2.7912,0.0,0.0,0.0,-2.2163,-2.1884,-2.2746,0.0,0.0,0.0,0.0,0.0,0.0,0.0,0.0,0.0,0.0,0.0,0.0,0.0,0.0,0.0,0.0,0.0,0.0,-4.63,-4.7061,-4.8759,-4.8798,-4.9638,-5.1375,-5.1394,-5.1394,-5.1394,-5.1394,-5.1394,-5.1394,-5.1394,-5.1394,-5.1394,-5.1394,0.0,0.0,-5.1394,-5.1394,-5.1394,-5.1394,-5.1394,-5.1394,-5.1394,-5.1394,-5.1394,-5.1394,-5.1394,-5.1394,-5.1394,-5.1394,-5.1394,-5.1394,-5.1394,-5.1394,-5.1394,-5.1394,-5.1394,-5.1394,-5.1394,-5.0973,-4.9314,-4.8808,-4.8213,-4.6557,-4.6201,-4.6177,-4.6104,-4.6096,-4.6105,-4.6111,-4.6111,-4.6128,-4.6183,-4.6128,-4.5799,-4.5004,-4.4841,-4.4453,-4.3553,-4.2741,-4.1967,-4.1166,-4.1108,-4.1108,-4.1108,-4.1105,-4.1107,-4.1094,-4.1094,-4.1091,-4.1094,-4.1042,-4.0986,-4.0915,-4.0906,-4.0867,-4.08,-4.08,-4.0808,-2.8646,-2.914,-2.9421,-2.9421,-2.879,-2.7835,-2.6498,0.0,0.0,-2.2144,-2.1309,-2.1152,-2.2543,0.0,0.0,0.0,0.0,0.0,0.0,0.0,0.0,0.0,0.0,0.0,0.0,0.0,0.0,0.0,0.0,0.0,0.0,-4.63,-4.6846,-4.8037,-4.8545,-4.9384,-5.0614,-5.1141,-5.1394,-5.1394,-5.1394,-5.1394,-5.1394,-5.1394,-5.1394,-5.1394,-5.1394,0.0,0.0,-5.1394,-5.1394,-5.1394,-5.1394,-5.1394,-5.1394,-5.1394,-5.1394,-5.1394,-5.1394,-5.1394,-5.1394,-5.1394,-5.1394,-5.1394,-5.1394,-5.1394,-5.1394,-5.1394,-5.1394,-5.1398,-5.1394,-5.1405,-5.0956,-4.9218,-4.8806,-4.831,-4.6528,-4.617,-4.6189,-4.6114,-4.6093,-4.6099,-4.6096,-4.6107,-4.6107,-4.6144,-4.6151,-4.6008,-4.5665,-4.5668,-4.5353,-4.4506,-4.3671,-4.304,-4.2689,-4.2181,-4.1871,-4.1875,-4.1386,-4.1094,-4.109,-4.1099,-4.1081,-4.1037,-4.1019,-4.0964,-4.0906,-4.0849,-4.0815,-4.08,-4.0796,-4.0803,-2.7496,-2.8166,-2.8548,-2.8548,-2.8122,-2.7255,0.0,0.0,-2.2776,-2.1722,-2.0809,-2.0661,-2.2139,-2.212,-2.2831,0.0,0.0,0.0,0.0,0.0,0.0,0.0,0.0,0.0,0.0,0.0,0.0,0.0,0.0,0.0,0.0,-4.63,-4.669,-4.7569,-4.8154,-4.8974,-5.0087,-5.0711,-5.1141,-5.1394,-5.1394,-5.1394,-5.1394,-5.1394,-5.1394,-5.1394,0.0,0.0,0.0,-5.1394,-5.1394,-5.1394,-5.1394,-5.1394,-5.1394,-5.1394,-5.1394,-5.1394,-5.1394,-5.1394,-5.1394,-5.1394,-5.1394,-5.1394,-5.1405,-5.1402,-5.1394,-5.1405,-5.1408,-5.1394,-5.1386,-5.1382,-5.0951,-4.9217,-4.8772,-4.8284,-4.6482,-4.6144,-4.6154,-4.6114,-4.6095,-4.6093,-4.6104,-4.6085,-4.6076,-4.6075,-4.6075,-4.6074,-4.6111,-4.6138,-4.5933,-4.5316,-4.4753,-4.4216,-4.371,-4.289,-4.2382,-4.2373,-4.1559,-4.1066,-4.1062,-4.1057,-4.1019,-4.0976,-4.0952,-4.0927,-4.0876,-4.0815,-4.0812,-4.0808,-4.0803,-4.079,-2.5459,-2.644,-2.772,-2.772,-2.7714,-2.7261,0.0,-2.4566,-2.3505,-2.1845,-2.0798,-2.0469,-2.1342,-2.2216,-2.3331,0.0,0.0,0.0,0.0,0.0,0.0,0.0,0.0,0.0,0.0,0.0,0.0,0.0,0.0,0.0,0.0,-4.63,-4.669,-4.7569,-4.7608,-4.8408,-5.0087,-5.0106,-5.0555,-5.1394,-5.1394,-5.1394,-5.1394,-5.1394,-5.1394,0.0,0.0,0.0,0.0,-5.1394,-5.1394,-5.1394,-5.1394,-5.1394,-5.1394,-5.1394,-5.1394,-5.1394,-5.1394,-5.1394,-5.1394,-5.1394,-5.1394,-5.1398,-5.1402,-5.1396,-5.1402,-5.1402,-5.1404,-5.1387,-5.132,-5.1343,-5.0964,-4.922,-4.8752,-4.8215,-4.6482,-4.6105,-4.6105,-4.6095,-4.6099,-4.6103,-4.6095,-4.6037,-4.5997,-4.5997,-4.5997,-4.6026,-4.6095,-4.6099,-4.6105,-4.6086,-4.6086,-4.5406,-4.3749,-4.2861,-4.2373,-4.2307,-4.1484,-4.1007,-4.0991,-4.0948,-4.0902,-4.0898,-4.0849,-4.0796,-4.08,-4.0815,-4.079,-4.079,-4.079,-4.079,-2.4354,-2.5122,-2.5848,-2.5256,-2.5547,-2.5398,-2.311,-2.2901,-2.269,-2.0971,-2.043,-2.0515,-2.135,-2.1273,-2.2023,-2.4841,0.0,0.0,0.0,0.0,0.0,0.0,0.0,0.0,0.0,0.0,0.0,0.0,0.0,0.0,0.0,-4.63,-4.6436,-4.669,-4.7295,-4.8115,-4.9208,-4.9794,-5.0535,-5.1394,-5.1394,-5.1394,-5.1394,-5.1394,0.0,0.0,0.0,0.0,0.0,-5.1394,-5.1394,-5.1394,-5.1394,-5.1394,-5.1394,-5.1394,-5.1394,-5.1394,-5.1394,-5.1394,-5.1394,-5.1394,-5.1394,-5.1405,-5.1406,-5.1406,-5.1402,-5.1406,-5.1374,-5.134,-5.1304,-5.0859,-5.0157,-4.8989,-4.8262,-4.7509,-4.6352,-4.6099,-4.6099,-4.6105,-4.6095,-4.6104,-4.6105,-4.6037,-4.5997,-4.5997,-4.5997,-4.6007,-4.6037,-4.6066,-4.6093,-4.6102,-4.6099,-4.5896,-4.5348,-4.4026,-4.3217,-4.3182,-4.1799,-4.098,-4.0935,-4.0921,-4.0888,-4.082,-4.0809,-4.0804,-4.0803,-4.0803,-4.079,-4.079,-4.079,-4.1081,0.0,-2.3586,-2.4132,-2.3567,-2.3866,-2.3783,-2.1857,-2.1894,-2.1929,-2.0526,-2.0265,-2.0446,-2.0946,-2.0889,-2.1543,-2.3966,0.0,0.0,0.0,0.0,0.0,0.0,0.0,0.0,0.0,0.0,0.0,0.0,0.0,0.0,0.0,0.0,-4.63,-4.63,-4.6827,-4.751,-4.8349,-4.9189,-5.0048,-5.0906,-5.1238,-5.1238,-5.0906,-5.0906,0.0,0.0,0.0,0.0,0.0,-5.1258,-5.1394,-5.1394,-5.1394,-5.1394,-5.1394,-5.1394,-5.1394,-5.1394,-5.1408,-5.1391,-5.1391,-5.1398,-5.1384,-5.1367,-5.1352,-5.1352,-5.1359,-5.1363,-5.1338,-5.1291,-5.1263,-5.0635,-4.9781,-4.8904,-4.802,-4.7167,-4.6289,-4.6085,-4.6066,-4.6066,-4.6066,-4.6066,-4.6066,-4.6026,-4.5997,-4.5997,-4.5997,-4.5997,-4.5997,-4.6037,-4.6066,-4.6066,-4.6047,-4.6056,-4.606,-4.483,-4.4036,-4.4024,-4.2388,-4.1535,-4.184,-4.1208,-4.0992,-4.1257,-4.0947,-4.08,-4.079,-4.11,-4.11,-4.081,-4.11,-4.1351,0.0,-2.1771,-2.2441,-2.2441,-2.2518,-2.2392,-2.1585,-2.1468,0.0,-2.0465,-2.0312,-2.035,-2.0465,-2.1043,-2.1831,0.0,0.0,0.0,0.0,0.0,0.0,0.0,0.0,0.0,0.0,0.0,0.0,0.0,0.0,0.0,0.0,0.0,-4.63,-4.63,-4.63,-4.6729,-4.7588,-4.8349,-4.915,-5.0028,-5.0828,-5.0789,-5.0008,-5.0008,0.0,0.0,0.0,0.0,0.0,-5.0945,-5.1316,-5.1316,-5.1375,-5.1394,-5.1394,-5.1394,-5.1394,-5.1398,-5.1402,-5.1405,-5.1406,-5.1382,-5.1343,-5.1294,-5.1297,-5.1291,-5.131,-5.1291,-5.1284,-5.1269,-5.123,-5.0549,-4.9693,-4.8886,-4.7981,-4.7087,-4.627,-4.6037,-4.5997,-4.5997,-4.5997,-4.5997,-4.5997,-4.5997,-4.5997,-4.5997,-4.5997,-4.5997,-4.5997,-4.5997,-4.5997,-4.5997,-4.5994,-4.5991,-4.5991,-4.5258,-4.4773,-4.4695,-4.313,-4.2554,-4.3354,-4.1838,-4.1318,-4.2086,-4.1351,-4.0945,-4.0887,-4.1641,-4.1583,-4.081,-4.1564,-4.1506,-1.8212,0.0,-1.9797,-1.9797,-2.0321,-2.0768,0.0,-2.1026,0.0,0.0,0.0,0.0,0.0,0.0,0.0,0.0,0.0,0.0,0.0,0.0,0.0,0.0,0.0,0.0,0.0,0.0,0.0,0.0,0.0,0.0,0.0,0.0,-4.63,-4.63,-4.63,-4.6729,-4.7588,-4.7783,-4.8291,-4.9111,-4.9306,-4.9306,-4.9111,-4.9111,0.0,0.0,0.0,0.0,-4.9169,-5.0048,-5.0418,-5.0477,-5.1141,-5.1394,-5.1394,-5.1394,-5.1394,-5.1398,-5.1402,-5.1406,-5.1386,-5.1333,-5.1303,-5.1284,-5.1245,-5.1261,-5.1284,-5.1248,-5.122,-5.123,-5.121,-5.0081,-4.8874,-4.8679,-4.7455,-4.626,-4.6065,-4.6007,-4.5997,-4.5997,-4.5997,-4.5997,-4.5997,-4.5997,-4.5997,-4.5997,-4.5997,-4.5997,-4.5997,-4.5997,-4.5997,-4.6014,-4.6003,-4.5991,-4.5917,-4.5192,-4.4707,-4.4707,-4.3645,-4.3109,-4.333,-4.2925,-4.2802,-4.2995,-4.2802,-4.2376,-4.1719,-4.1912,-4.1583,-4.079,-4.0984,-4.0984,-1.6373,-1.7972,-1.9495,-1.9495,-1.9876,-2.0334,0.0,0.0,0.0,0.0,0.0,0.0,0.0,0.0,0.0,0.0,0.0,0.0,0.0,0.0,0.0,0.0,0.0,0.0,0.0,0.0,0.0,0.0,0.0,0.0,0.0,-4.6085,-4.63,-4.63,-4.63,-4.6534,-4.7002,-4.7393,-4.7822,-4.8252,-4.8623,-4.8603,-4.8252,-4.8252,-4.8037,0.0,0.0,0.0,-4.831,-4.9169,-4.9501,-4.956,-5.0028,-5.0457,-5.0789,-5.0803,-5.1062,-5.1396,-5.1366,-5.1352,-5.1347,-5.1271,-5.1257,-5.1245,-5.12,-5.123,-5.1249,-5.1219,-5.1197,-5.1109,-5.0701,-4.9601,-4.8502,-4.8094,-4.6987,-4.5997,-4.5997,-4.5997,-4.5997,-4.5997,-4.5997,-4.5997,-4.5997,-4.5997,-4.5997,-4.5997,-4.5997,-4.5997,-4.5997,-4.6005,-4.5994,-4.6003,-4.5968,-4.5944,-4.5912,-4.5461,-4.5228,-4.5241,-4.4402,-4.4066,-4.4434,-4.3705,-4.3305,-4.3305,-4.3305,-4.2879,-4.2009,-4.2396,-4.197,-4.081,-4.1177,-4.1139,-1.5498,-1.7848,-2.0153,-1.9884,-1.9958,-2.0312,0.0,0.0,0.0,0.0,0.0,0.0,0.0,0.0,0.0,0.0,0.0,0.0,0.0,0.0,0.0,0.0,0.0,0.0,0.0,0.0,0.0,0.0,0.0,0.0,0.0,-4.5636,-4.6105,-4.6105,-4.6222,-4.63,-4.63,-4.7022,-4.7393,-4.7412,-4.8096,-4.8057,-4.7393,-4.7393,-4.7002,0.0,0.0,0.0,-4.7451,-4.8271,-4.8607,-4.861,-4.8743,-4.9251,-4.9905,-4.9898,-5.0448,-5.1191,-5.1258,-5.1291,-5.1278,-5.123,-5.1201,-5.119,-5.1189,-5.1208,-5.1197,-5.1214,-5.1202,-5.1008,-5.0134,-4.924,-4.8386,-4.7512,-4.6638,-4.5997,-4.5997,-4.5997,-4.5997,-4.5997,-4.5997,-4.5997,-4.5997,-4.5997,-4.5997,-4.5997,-4.5997,-4.5997,-4.5997,-4.5983,-4.5991,-4.598,-4.5932,-4.5893,-4.5893,-4.5827,-4.5775,-4.5719,-4.5117,-4.5084,-4.5761,-4.4446,-4.3672,-4.3672,-4.3556,-4.3073,-4.2202,-4.2802,-4.2318,-4.081,-4.1506,-4.1448,-1.6938,-1.8777,-1.9919,-1.8446,-1.8638,-1.9434,0.0,0.0,0.0,0.0,0.0,0.0,0.0,0.0,0.0,0.0,0.0,0.0,0.0,0.0,0.0,0.0,0.0,0.0,0.0,0.0,0.0,0.0,0.0,0.0,0.0,0.0,-4.5207,-4.5207,-4.5929,-4.63,-4.63,-4.6436,-4.6495,-4.6495,-4.6612,-4.6612,-4.6495,-4.6495,-4.6436,0.0,0.0,-4.6495,-4.6573,-4.7432,-4.7757,-4.7769,-4.8516,-4.8879,-4.9003,-4.9003,-4.9511,-5.0315,-5.0979,-5.1209,-5.1219,-5.1206,-5.1194,-5.1194,-5.1214,-5.1214,-5.1202,-5.1202,-5.1202,-5.1008,-5.0134,-4.924,-4.8386,-4.7512,-4.6638,-4.5997,-4.5997,-4.5997,-4.5997,-4.5997,-4.5997,-4.5997,-4.5997,-4.5997,-4.5997,-4.5997,-4.5994,-4.6003,-4.6003,-4.596,-4.5925,-4.5919,-4.5906,-4.588,-4.5814,-4.5814,-4.551,-4.4833,-4.5297,-4.5664,-4.578,-4.5548,-4.5413,-4.5413,-4.4755,-4.3982,-4.3092,-4.2492,-4.1719,-4.079,-4.0926,-4.0894,-1.6144,-1.7593,-1.8826,-1.8532,-1.9793,0.0,0.0,0.0,0.0,0.0,0.0,0.0,0.0,0.0,0.0,0.0,0.0,0.0,0.0,0.0,0.0,0.0,0.0,0.0,0.0,0.0,0.0,0.0,0.0,0.0,0.0,0.0,-4.4309,-4.4309,-4.5148,-4.5597,-4.5597,-4.6066,-4.63,-4.63,-4.63,-4.63,-4.63,-4.63,-4.63,-4.63,0.0,-4.63,-4.6319,-4.6725,-4.6889,-4.6893,-4.7244,-4.7676,-4.8158,-4.8582,-4.899,-4.94,-5.0216,-5.05,-5.0586,-5.1058,-5.1202,-5.1202,-5.1202,-5.1202,-5.1202,-5.1202,-5.1202,-5.0891,-4.9551,-4.8891,-4.825,-4.6929,-4.6288,-4.5997,-4.5997,-4.5997,-4.5997,-4.5997,-4.5997,-4.5997,-4.5997,-4.5997,-4.5997,-4.5994,-4.6003,-4.5991,-4.5949,-4.5925,-4.5899,-4.5906,-4.586,-4.5827,-4.58,-4.58,-4.5452,-4.4659,-4.4504,-4.4446,-4.4446,-4.4446,-4.4446,-4.4446,-4.4098,-4.3479,-4.2609,-4.2202,-4.1571,-4.0746,-4.0746,-4.07,-1.5676,-1.6869,-1.8223,0.0,0.0,0.0,0.0,0.0,0.0,0.0,0.0,0.0,0.0,0.0,0.0,0.0,0.0,0.0,0.0,0.0,0.0,0.0,0.0,0.0,0.0,0.0,0.0,0.0,0.0,0.0,0.0,0.0,-4.3391,-4.3391,-4.4231,-4.4699,-4.4699,-4.5558,-4.6105,-4.63,-4.63,-4.63,-4.63,-4.63,-4.63,-4.63,-4.6306,-4.6309,-4.6293,-4.6287,-4.6289,-4.6268,-4.6225,-4.661,-4.7263,-4.8098,-4.8402,-4.8516,-4.9323,-4.9604,-4.972,-5.0378,-5.06,-5.0639,-5.0833,-5.0891,-5.0891,-5.0891,-5.0891,-5.0581,-4.924,-4.8755,-4.8211,-4.6676,-4.6152,-4.5997,-4.5997,-4.5997,-4.5997,-4.5997,-4.5997,-4.5997,-4.5997,-4.5997,-4.6005,-4.6003,-4.598,-4.5968,-4.5905,-4.5887,-4.588,-4.588,-4.5827,-4.58,-4.58,-4.5626,-4.5258,-4.4639,-4.3982,-4.3518,-4.3305,-4.3305,-4.3305,-4.3305,-4.3092,-4.2667,-4.2009,-4.1816,-4.1377,-4.07,-4.07,-4.0654,-1.7099,-1.8203,-1.9129,0.0,0.0,0.0,0.0,0.0,0.0,0.0,0.0,0.0,0.0,0.0,0.0,0.0,0.0,0.0,0.0,0.0,0.0,0.0,0.0,0.0,0.0,0.0,0.0,0.0,0.0,0.0,0.0,0.0,0.0,-4.2494,-4.3333,-4.3782,-4.3782,-4.466,-4.55,-4.63,-4.63,-4.63,-4.63,-4.63,-4.63,-4.6303,-4.6301,-4.6306,-4.6307,-4.6229,-4.6212,-4.6201,-4.6209,-4.6195,-4.63,-4.7172,-4.7485,-4.7612,-4.8416,-4.8677,-4.8696,-4.8774,-4.8794,-4.893,-4.9745,-4.9978,-4.9978,-4.9978,-4.9978,-4.9959,-4.9843,-4.9202,-4.8366,-4.7434,-4.6599,-4.5997,-4.5997,-4.5997,-4.5997,-4.5997,-4.5997,-4.5997,-4.5997,-4.5994,-4.6003,-4.5991,-4.5944,-4.5906,-4.5906,-4.5847,-4.5814,-4.5814,-4.58,-4.58,-4.58,-4.5123,-4.4659,-4.4601,-4.4543,-4.4136,-4.3324,-4.3305,-4.3305,-4.3305,-4.2512,-4.2067,-4.2009,-4.1255,-4.0817,-4.07,-4.07,-4.066,-1.6017,-1.7597,-1.9154,0.0,0.0,0.0,0.0,0.0,0.0,0.0,0.0,0.0,0.0,0.0,0.0,0.0,0.0,0.0,0.0,0.0,0.0,0.0,0.0,0.0,0.0,0.0,0.0,0.0,0.0,0.0,0.0,0.0,0.0,-4.1596,-4.2435,-4.2884,-4.2884,-4.4289,-4.5168,-4.55,-4.6046,-4.63,-4.63,-4.6295,-4.6301,-4.6301,-4.6269,-4.6248,-4.6245,-4.6206,-4.6182,-4.6137,-4.6144,-4.6111,-4.6149,-4.6464,-4.6571,-4.6648,-4.7492,-4.7784,-4.7881,-4.8425,-4.8599,-4.8658,-4.8988,-4.9085,-4.9085,-4.9085,-4.9085,-4.8968,-4.8425,-4.8036,-4.757,-4.6696,-4.623,-4.5997,-4.5997,-4.5997,-4.5997,-4.5997,-4.5997,-4.5997,-4.5994,-4.6003,-4.598,-4.5944,-4.5919,-4.5874,-4.5847,-4.5814,-4.58,-4.58,-4.58,-4.58,-4.58,-4.551,-4.5123,-4.4639,-4.3576,-4.2841,-4.2512,-4.2009,-4.1738,-4.1738,-4.1409,-4.1255,-4.1255,-4.09,-4.07,-4.0654,-4.0646,-4.0603,-1.5356,-1.7156,-1.9173,0.0,0.0,0.0,0.0,0.0,0.0,0.0,0.0,0.0,0.0,0.0,0.0,0.0,0.0,0.0,0.0,0.0,0.0,0.0,0.0,0.0,0.0,0.0,0.0,0.0,0.0,0.0,0.0,0.0,0.0,0.0,-4.1674,-4.1986,-4.1986,-4.345,-4.4172,-4.4192,-4.5333,-4.6039,-4.6293,-4.6305,-4.6289,-4.6269,-4.6221,-4.6189,-4.6175,-4.6176,-4.6151,-4.6111,-4.6074,-4.6066,-4.6066,-4.6066,-4.6037,-4.6094,-4.6676,-4.689,-4.6987,-4.7589,-4.7784,-4.7822,-4.8114,-4.8191,-4.8191,-4.8191,-4.8191,-4.7997,-4.7123,-4.7084,-4.7143,-4.654,-4.6191,-4.5997,-4.5997,-4.5997,-4.5997,-4.5997,-4.5997,-4.5997,-4.6003,-4.5991,-4.5949,-4.5906,-4.5893,-4.5847,-4.5814,-4.58,-4.58,-4.58,-4.58,-4.58,-4.58,-4.58,-4.5568,-4.5007,-4.3363,-4.2299,-4.2009,-4.1235,-4.079,-4.079,-4.079,-4.079,-4.0778,-4.0713,-4.0673,-4.0593,-4.0603,-4.0573,-1.5523,-1.7159,0.0,0.0,0.0,0.0,0.0,0.0,0.0,0.0,0.0,0.0,0.0,0.0,0.0,0.0,0.0,0.0,0.0,0.0,0.0,0.0,0.0,0.0,0.0,0.0,0.0,0.0,0.0,0.0,0.0,0.0,0.0,0.0,-4.1108,-4.1108,-4.1108,-4.1967,-4.2396,-4.2415,-4.4153,-4.5447,-4.6287,-4.6307,-4.6269,-4.6195,-4.6206,-4.6162,-4.6099,-4.6107,-4.6104,-4.6095,-4.6026,-4.5997,-4.5997,-4.5997,-4.5997,-4.5997,-4.5997,-4.5997,-4.5997,-4.5997,-4.5997,-4.6152,-4.7026,-4.7298,-4.7298,-4.7298,-4.7298,-4.7084,-4.621,-4.6638,-4.7298,-4.7298,-4.6638,-4.5997,-4.5997,-4.5997,-4.5997,-4.5997,-4.5997,-4.5986,-4.6003,-4.5929,-4.5893,-4.5906,-4.5847,-4.58,-4.58,-4.58,-4.58,-4.58,-4.58,-4.58,-4.58,-4.58,-4.58,-4.58,-4.4233,-4.2918,-4.2048,-4.1235,-4.079,-4.079,-4.079,-4.0778,-4.07,-4.07,-4.066,-4.0607,-4.0607,-4.0573,-1.4848,0.0,0.0,0.0,0.0,0.0,0.0,0.0,0.0,0.0,0.0,0.0,0.0,0.0,0.0,0.0,0.0,0.0,0.0,0.0,0.0,0.0,0.0,0.0,0.0,0.0,0.0,0.0,0.0,0.0,0.0,0.0,0.0,0.0,-4.1108,-4.1108,-4.1108,-4.1967,-4.2405,-4.2415,-4.3552,-4.4549,-4.5408,-4.5966,-4.6218,-4.6201,-4.6144,-4.6127,-4.6102,-4.6037,-4.6037,-4.6026,-4.6007,-4.5997,-4.5997,-4.5997,-4.5997,-4.5997,-4.5997,-4.5997,-4.5997,-4.5997,-4.5997,-4.6055,-4.6307,-4.6385,-4.6385,-4.6385,-4.6385,-4.6327,-4.6074,-4.6191,-4.6385,-4.6385,-4.6191,-4.5997,-4.5997,-4.5997,-4.5997,-4.5997,-4.6005,-4.6003,-4.5949,-4.5912,-4.5887,-4.5847,-4.5814,-4.58,-4.58,-4.58,-4.58,-4.58,-4.58,-4.58,-4.58,-4.58,-4.58,-4.58,-4.4794,-4.3827,-4.2957,-4.1545,-4.079,-4.079,-4.0746,-4.0733,-4.07,-4.0646,-4.0622,-4.0607,-4.0539,-4.0523,0.0,0.0,0.0,0.0,0.0,0.0,0.0,0.0,0.0,0.0,0.0,0.0,0.0,0.0,0.0,0.0,0.0,0.0,0.0,0.0,0.0,0.0,0.0,0.0,0.0,0.0,0.0,0.0,0.0,0.0,0.0,0.0,0.0,0.0,-4.1108,-4.1108,-4.1108,-4.1615,-4.1875,-4.1886,-4.2771,-4.3457,-4.3984,-4.4793,-4.5162,-4.5144,-4.5451,-4.557,-4.5619,-4.5871,-4.5997,-4.5997,-4.5997,-4.5997,-4.5997,-4.5997,-4.5997,-4.5997,-4.5997,-4.5997,-4.5997,-4.5997,-4.5997,-4.5997,-4.5997,-4.5997,-4.5997,-4.5997,-4.5997,-4.5997,-4.5997,-4.5997,-4.5997,-4.5997,-4.5997,-4.5997,-4.5997,-4.5997,-4.5997,-4.6005,-4.6003,-4.598,-4.5912,-4.5887,-4.5893,-4.5814,-4.58,-4.58,-4.58,-4.58,-4.58,-4.58,-4.58,-4.58,-4.58,-4.58,-4.58,-4.58,-4.5045,-4.4369,-4.3846,-4.2183,-4.1293,-4.1281,-4.0907,-4.0687,-4.066,-4.0622,-4.0592,-4.0573,-4.0523,-4.0489,0.0,0.0,0.0,0.0,0.0,0.0,0.0,0.0,0.0,0.0,0.0,0.0,0.0,0.0,0.0,0.0,0.0,0.0,0.0,0.0,0.0,0.0,0.0,0.0,0.0,0.0,0.0,0.0,0.0,0.0,0.0,0.0,0.0,-4.0952,-4.0971,-4.101,-4.1108,-4.1108,-4.1091,0.0,-4.1891,-4.2285,-4.2295,-4.3181,-4.3552,-4.3539,-4.4336,-4.4734,-4.4851,-4.5589,-4.5919,-4.5997,-4.5997,-4.5997,-4.5997,-4.5997,-4.5997,-4.5997,-4.5997,-4.5997,-4.5997,-4.5997,-4.5997,-4.5997,-4.5997,-4.5997,-4.5997,-4.5997,-4.5997,-4.5997,-4.5997,-4.5997,-4.5997,-4.5997,-4.5997,-4.5997,-4.5997,-4.5997,-4.6005,-4.6003,-4.5991,-4.5968,-4.5906,-4.5893,-4.586,-4.5814,-4.58,-4.58,-4.58,-4.58,-4.58,-4.58,-4.58,-4.58,-4.58,-4.58,-4.58,-4.58,-4.5104,-4.4717,-4.4703,-4.3053,-4.2099,-4.211,-4.1247,-4.0775,-4.0723,-4.0626,-4.0573,-4.0489,-4.0489,-4.0489,0.0,0.0,0.0,0.0,0.0,0.0,0.0,0.0,0.0,0.0,0.0,0.0,0.0,0.0,0.0,0.0,0.0,0.0,0.0,0.0,0.0,0.0,0.0,0.0,0.0,0.0,0.0,0.0,0.0,0.0,0.0,0.0,0.0,-4.0054,-4.0073,-4.0405,-4.1088,-4.1108,-4.1097,0.0,-4.1289,-4.1355,-4.1343,-4.2905,-4.3564,-4.352,-4.3704,-4.4171,-4.4812,-4.4986,-4.5433,-4.5997,-4.5997,-4.5997,-4.5997,-4.5997,-4.5997,-4.5997,-4.5997,-4.5997,-4.5997,-4.5997,-4.5997,-4.5997,-4.5997,-4.5997,-4.5997,-4.5997,-4.5997,-4.5997,-4.5997,-4.5997,-4.5997,-4.5997,-4.5997,-4.5997,-4.5997,-4.6005,-4.6003,-4.6003,-4.5956,-4.5919,-4.5906,-4.586,-4.5814,-4.58,-4.58,-4.58,-4.58,-4.58,-4.58,-4.58,-4.58,-4.58,-4.58,-4.58,-4.58,-4.58,-4.5645,-4.5534,-4.5544,-4.3882,-4.2941,-4.2941,-4.2092,-4.1624,-4.1628,-4.0885,-4.0504,-4.0489,-4.0489,-4.0425,0.0,0.0,0.0,0.0,0.0,0.0,0.0,0.0,0.0,0.0,0.0,0.0,0.0,0.0,0.0,0.0,0.0,0.0,0.0,0.0,0.0,0.0,0.0,0.0,0.0,0.0,0.0,0.0,0.0,0.0,0.0,-3.7985,-3.8355,-3.9195,-3.9605,-4.0015,-4.0464,-4.0893,-4.1094,-4.1103,-4.1093,-4.1064,-4.1028,-4.1942,-4.2319,-4.2287,-4.2694,-4.3141,-4.3588,-4.4015,-4.4676,-4.5433,-4.5433,-4.5666,-4.5997,-4.5997,-4.5997,-4.5997,-4.5997,-4.5997,-4.5997,-4.5997,-4.5997,-4.5997,-4.5997,-4.5997,-4.5997,-4.5997,-4.5997,-4.5997,-4.5997,-4.5997,-4.5997,-4.5997,-4.5997,-4.5997,-4.6005,-4.6003,-4.5991,-4.5956,-4.5919,-4.5893,-4.586,-4.5814,-4.58,-4.58,-4.58,-4.58,-4.58,-4.58,-4.58,-4.58,-4.58,-4.58,-4.58,-4.58,-4.58,-4.58,-4.5805,-4.581,-4.58,-4.4901,-4.4195,-4.3771,-4.2915,-4.2268,-4.1848,-4.137,-4.0861,-4.0356,-4.0356,-4.0232,0.0,0.0,0.0,0.0,0.0,0.0,0.0,0.0,0.0,0.0,0.0,0.0,0.0,0.0,0.0,0.0,0.0,0.0,0.0,0.0,0.0,0.0,0.0,0.0,0.0,0.0,0.0,0.0,0.0,0.0,-3.7048,-3.7087,-3.7477,-3.8355,-3.9019,-3.9507,-3.98,-4.0522,-4.0955,-4.1094,-4.1092,-4.1043,-4.1006,-4.1003,-4.0954,-4.0946,-4.1665,-4.2053,-4.2248,-4.2986,-4.3782,-4.4598,-4.4734,-4.52,-4.5802,-4.5938,-4.5997,-4.5997,-4.5997,-4.5997,-4.5997,-4.5997,-4.5997,-4.5997,-4.5997,-4.5997,-4.5997,-4.5997,-4.5997,-4.5997,-4.5997,-4.5997,-4.5997,-4.5997,-4.5997,-4.6005,-4.6003,-4.5991,-4.5968,-4.5906,-4.5893,-4.586,-4.5814,-4.58,-4.58,-4.58,-4.58,-4.58,-4.58,-4.58,-4.58,-4.58,-4.58,-4.58,-4.58,-4.58,-4.58,-4.58,-4.581,-4.5781,-4.5781,-4.5722,-4.5329,-4.4545,-4.358,-4.2752,-4.2027,-4.1687,-4.1065,-4.0196,-4.0158,-3.9983,0.0,0.0,0.0,0.0,0.0,0.0,0.0,0.0,0.0,0.0,0.0,0.0,0.0,0.0,0.0,0.0,0.0,0.0,0.0,0.0,0.0,0.0,0.0,0.0,0.0,0.0,0.0,0.0,0.0,0.0,-3.6169,-3.6169,-3.6579,-3.7458,-3.7575,-3.8336,-3.98,-3.9917,-4.0355,-4.109,-4.1041,-4.1003,-4.1003,-4.0999,-4.0954,-4.0907,-4.1024,-4.149,-4.2209,-4.2325,-4.2889,-4.3743,-4.4501,-4.487,-4.5045,-4.5744,-4.5997,-4.5997,-4.5997,-4.5997,-4.5997,-4.5997,-4.5997,-4.5997,-4.5997,-4.5997,-4.5997,-4.5997,-4.5997,-4.5997,-4.5997,-4.5997,-4.5997,-4.5997,-4.6005,-4.6003,-4.5991,-4.5956,-4.5906,-4.5906,-4.586,-4.5814,-4.58,-4.58,-4.58,-4.58,-4.58,-4.58,-4.58,-4.58,-4.58,-4.58,-4.58,-4.58,-4.58,-4.58,-4.58,-4.58,-4.581,-4.5765,-4.5715,-4.5706,-4.551,-4.511,-4.3785,-4.3028,-4.2912,-4.1241,-4.0347,-4.0177,-3.9963,-3.975,0.0,0.0,0.0,0.0,0.0,0.0,0.0,0.0,0.0,0.0,0.0,0.0,0.0,0.0,0.0,0.0,0.0,0.0,0.0,0.0,0.0,0.0,0.0,0.0,0.0,0.0,0.0,0.0,0.0,-3.5991,-3.5995,-3.5995,-3.6189,-3.6555,-3.7042,-3.7643,-3.8394,-3.8882,-3.9543,-4.039,-4.0801,-4.1003,-4.0996,-4.0963,-4.0936,-4.0907,-4.0907,-4.1121,-4.1471,-4.1471,-4.1995,-4.2811,-4.318,-4.3938,-4.4831,-4.52,-4.5608,-4.5997,-4.5997,-4.5997,-4.5997,-4.5997,-4.5997,-4.5997,-4.5997,-4.5997,-4.5997,-4.5997,-4.5997,-4.5997,-4.5997,-4.5997,-4.5997,-4.5994,-4.5972,-4.5949,-4.5944,-4.5919,-4.5893,-4.5847,-4.5814,-4.58,-4.58,-4.58,-4.58,-4.58,-4.58,-4.58,-4.58,-4.58,-4.58,-4.58,-4.6245,-4.6535,-4.6535,-4.6535,-4.6535,-4.6525,-4.6032,-4.5648,-4.5475,-4.5438,-4.5282,-4.4985,-4.4076,-4.3293,-4.2658,-4.1357,-4.0395,-3.9791,-3.9702,-3.9489,0.0,0.0,0.0,0.0,0.0,0.0,0.0,0.0,0.0,0.0,0.0,0.0,0.0,0.0,0.0,0.0,0.0,0.0,0.0,0.0,0.0,0.0,0.0,0.0,0.0,0.0,0.0,0.0,0.0,-3.5996,-3.5974,-3.5971,-3.5973,-3.5976,-3.6601,-3.7049,-3.7276,-3.8139,-3.8984,-3.981,-4.0395,-4.0783,-4.0996,-4.0926,-4.0907,-4.0907,-4.0907,-4.0907,-4.0907,-4.0907,-4.1276,-4.1879,-4.2112,-4.2986,-4.4171,-4.4384,-4.4986,-4.5705,-4.5705,-4.5822,-4.5958,-4.5763,-4.5822,-4.5958,-4.5763,-4.5841,-4.5997,-4.5997,-4.5997,-4.5997,-4.5997,-4.5997,-4.6005,-4.6003,-4.5949,-4.5912,-4.5874,-4.586,-4.586,-4.5814,-4.58,-4.58,-4.58,-4.58,-4.58,-4.58,-4.58,-4.58,-4.58,-4.58,-4.58,-4.58,-4.6573,-4.7096,-4.71,-4.721,-4.7314,-4.7284,-4.6527,-4.5937,-4.5526,-4.5442,-4.508,-4.4399,-4.3798,-4.3099,-4.2295,-4.1207,-4.0278,-3.9502,-3.9427,-3.9298,0.0,0.0,0.0,0.0,0.0,0.0,0.0,0.0,0.0,0.0,0.0,0.0,0.0,0.0,0.0,0.0,0.0,0.0,0.0,0.0,0.0,0.0,0.0,0.0,0.0,0.0,0.0,0.0,0.0,-3.5976,-3.5918,-3.5914,-3.5908,-3.5908,-3.5947,-3.638,-3.7204,-3.8068,-3.8935,-3.9809,-3.9779,-4.0205,-4.0996,-4.0926,-4.0907,-4.0907,-4.0907,-4.0907,-4.0907,-4.0907,-4.0927,-4.1043,-4.1879,-4.2248,-4.2442,-4.3258,-4.4112,-4.4851,-4.4851,-4.5356,-4.5861,-4.5103,-4.5375,-4.5861,-4.5084,-4.5394,-4.5997,-4.5997,-4.5997,-4.5997,-4.5997,-4.5994,-4.6003,-4.5991,-4.5944,-4.5874,-4.5814,-4.5814,-4.5814,-4.58,-4.58,-4.58,-4.58,-4.58,-4.58,-4.58,-4.58,-4.58,-4.58,-4.58,-4.58,-4.58,-4.6573,-4.71,-4.7094,-4.7565,-4.7837,-4.7758,-4.7419,-4.6871,-4.6093,-4.5981,-4.5092,-4.3329,-4.2509,-4.2159,-4.2295,-4.0476,-3.9545,-3.9483,-3.9245,-3.9129,0.0,0.0,0.0,0.0,0.0,0.0,0.0,0.0,0.0,0.0,0.0,0.0,0.0,0.0,0.0,0.0,0.0,0.0,0.0,0.0,0.0,0.0,0.0,0.0,0.0,0.0,0.0,0.0,0.0,0.0,-3.5879,-3.5892,-3.5899,-3.5896,-3.5896,-3.6043,-3.6352,-3.7226,-3.7819,-3.8146,-3.8642,-3.9033,-3.9338,-3.9887,-4.013,-4.0169,-4.0674,-4.0907,-4.0907,-4.0907,-4.0907,-4.0927,-4.1238,-4.1704,-4.2228,-4.2539,-4.3219,-4.4054,-4.4617,-4.4986,-4.5258,-4.5491,-4.5414,-4.5181,-4.4889,-4.5006,-4.522,-4.522,-4.5589,-4.5997,-4.5994,-4.6003,-4.5991,-4.5944,-4.5874,-4.5827,-4.5814,-4.58,-4.58,-4.58,-4.58,-4.58,-4.58,-4.58,-4.58,-4.58,-4.58,-4.58,-4.58,-4.6283,-4.6631,-4.6631,-4.7725,-4.845,-4.8451,-4.8424,-4.838,-4.8334,-4.7181,-4.631,-4.5798,-4.4753,-4.381,-4.2957,-4.1633,-4.0998,-4.1087,-3.984,-3.9245,-3.9245,-3.9137,-3.9073,0.0,0.0,0.0,0.0,0.0,0.0,0.0,0.0,0.0,0.0,0.0,0.0,0.0,0.0,0.0,0.0,0.0,0.0,0.0,0.0,0.0,0.0,0.0,0.0,0.0,0.0,0.0,0.0,0.0,0.0,-3.5415,-3.5456,-3.5585,-3.5858,-3.5889,-3.5904,-3.5908,-3.6477,-3.6913,-3.7214,-3.7728,-3.813,-3.8416,-3.8993,-3.9412,-3.9742,-4.0266,-4.0655,-4.0907,-4.0907,-4.0907,-4.0907,-4.0907,-4.1257,-4.1762,-4.1762,-4.2325,-4.3141,-4.3724,-4.4307,-4.4831,-4.5084,-4.5006,-4.4753,-4.4443,-4.4365,-4.4365,-4.4365,-4.4937,-4.5548,-4.5556,-4.5766,-4.5956,-4.5874,-4.5827,-4.58,-4.58,-4.58,-4.58,-4.58,-4.58,-4.58,-4.58,-4.58,-4.58,-4.58,-4.6051,-4.6211,-4.6167,-4.692,-4.7391,-4.727,-4.8356,-4.9077,-4.8993,-4.8966,-4.8799,-4.8434,-4.7041,-4.5876,-4.5103,-4.3774,-4.2735,-4.1999,-4.094,-4.0253,-3.9955,-3.938,-3.9101,-3.9101,-3.9073,-3.9036,0.0,0.0,0.0,0.0,0.0,0.0,0.0,0.0,0.0,0.0,0.0,0.0,0.0,0.0,0.0,0.0,0.0,0.0,0.0,0.0,0.0,0.0,0.0,0.0,0.0,0.0,0.0,0.0,0.0,-3.371,-3.4517,-3.4581,-3.4962,-3.5753,-3.5852,-3.5898,-3.5898,-3.5898,-3.6326,-3.7163,-3.7082,-3.7502,-3.8319,-3.8352,-3.881,-3.9625,-3.9645,-4.013,-4.0869,-4.0888,-4.0907,-4.0907,-4.0907,-4.0907,-4.0907,-4.0907,-4.1432,-4.217,-4.2189,-4.3316,-4.4598,-4.3802,-4.4074,-4.4579,-4.3743,-4.3491,-4.3471,-4.3471,-4.4033,-4.4672,-4.4691,-4.5285,-4.5854,-4.5814,-4.58,-4.58,-4.58,-4.58,-4.58,-4.58,-4.58,-4.58,-4.58,-4.58,-4.58,-4.5838,-4.6554,-4.7036,-4.6945,-4.7621,-4.7991,-4.7646,-4.8365,-4.8772,-4.8536,-4.8985,-4.8893,-4.8044,-4.6986,-4.5658,-4.4023,-4.3169,-4.198,-4.042,-4.0364,-3.9937,-3.9101,-3.9101,-3.9101,-3.9101,-3.9036,-3.8939,-1.4816,0.0,0.0,0.0,0.0,0.0,0.0,0.0,0.0,0.0,0.0,0.0,0.0,0.0,0.0,0.0,0.0,0.0,0.0,0.0,0.0,0.0,0.0,0.0,0.0,0.0,0.0,0.0,-3.2455,-3.2812,-3.362,-3.4266,-3.4678,-3.4855,-3.5485,-3.5834,-3.5834,-3.5834,-3.5951,-3.6184,-3.6176,-3.6293,-3.6545,-3.7159,-3.7586,-3.7858,-3.8479,-3.9237,-4.0072,-4.0655,-4.0907,-4.0907,-4.0907,-4.0907,-4.0907,-4.0907,-4.1043,-4.1354,-4.1976,-4.252,-4.3083,-4.4112,-4.3743,-4.2986,-4.3374,-4.3073,-4.2567,-4.2567,-4.3128,-4.3901,-4.4478,-4.4789,-4.5098,-4.5664,-4.58,-4.58,-4.58,-4.58,-4.58,-4.58,-4.58,-4.58,-4.58,-4.5723,-4.5857,-4.6494,-4.6679,-4.6935,-4.7549,-4.8236,-4.8419,-4.7742,-4.8125,-4.7888,-4.669,-4.6473,-4.6072,-4.5202,-4.4309,-4.3615,-4.315,-4.1794,-4.0847,-4.0401,-3.977,-3.9342,-3.9101,-3.9101,-3.9101,-3.9101,-3.8979,-3.8862,0.0,0.0,0.0,0.0,0.0,0.0,0.0,0.0,0.0,0.0,0.0,0.0,0.0,0.0,0.0,0.0,0.0,0.0,0.0,0.0,0.0,0.0,0.0,0.0,0.0,0.0,0.0,-3.1522,-3.1552,-3.1903,-3.2717,-3.3576,-3.4027,-3.3992,-3.4828,-3.5255,-3.5255,-3.5624,-3.5799,-3.5799,-3.5799,-3.5799,-3.5818,-3.6323,-3.677,-3.7139,-3.7644,-3.8557,-3.9742,-4.0208,-4.0597,-4.0907,-4.0907,-4.0907,-4.0907,-4.0907,-4.0907,-4.0966,-4.1471,-4.1898,-4.2364,-4.3394,-4.3025,-4.2287,-4.2792,-4.2344,-4.1664,-4.1664,-4.2233,-4.3051,-4.3847,-4.4053,-4.4175,-4.4639,-4.4755,-4.4755,-4.4755,-4.4755,-4.4949,-4.5664,-4.5752,-4.5708,-4.5708,-4.5613,-4.5683,-4.6147,-4.6129,-4.6203,-4.6593,-4.7003,-4.6987,-4.6341,-4.6477,-4.6157,-4.5142,-4.4867,-4.4395,-4.3559,-4.2742,-4.2147,-4.1813,-4.055,-3.9863,-3.9863,-3.9361,-3.9073,-3.9064,-3.9073,-3.8998,-3.8759,-3.8658,-3.8473,-1.6845,0.0,0.0,0.0,0.0,0.0,-1.9832,-1.8582,0.0,0.0,0.0,0.0,0.0,0.0,0.0,0.0,0.0,0.0,0.0,0.0,0.0,0.0,0.0,0.0,0.0,-3.0658,-3.0702,-3.0781,-3.0793,-3.1103,-3.1831,-3.2688,-3.316,-3.3157,-3.3934,-3.44,-3.4497,-3.5274,-3.5702,-3.5799,-3.5799,-3.5799,-3.5799,-3.5799,-3.6226,-3.6964,-3.6964,-3.7897,-3.9412,-3.9412,-3.9994,-4.0907,-4.0907,-4.0907,-4.0907,-4.0907,-4.0907,-4.0907,-4.0907,-4.1412,-4.2073,-4.217,-4.2131,-4.2073,-4.217,-4.1587,-4.0897,-4.0886,-4.1396,-4.2143,-4.2937,-4.3169,-4.3189,-4.3285,-4.3305,-4.3305,-4.3291,-4.3291,-4.3717,-4.5191,-4.5387,-4.5327,-4.5291,-4.5187,-4.5112,-4.5129,-4.511,-4.5044,-4.4881,-4.4857,-4.465,-4.4223,-4.4165,-4.3983,-4.3615,-4.3596,-4.3243,-4.2445,-4.172,-4.0996,-4.029,-3.951,-3.9101,-3.9101,-3.9055,-3.897,-3.8931,-3.897,-3.8759,-3.831,-3.818,-3.7911,-1.7744,-1.8387,-1.8914,0.0,0.0,0.0,0.0,-1.866,0.0,0.0,0.0,0.0,0.0,0.0,0.0,0.0,0.0,0.0,0.0,0.0,0.0,0.0,0.0,0.0,0.0,-2.9745,-3.0039,-3.0745,-3.0794,-3.0833,-3.0944,-3.1767,-3.2239,-3.2244,-3.3099,-3.3856,-3.4478,-3.4672,-3.5119,-3.5799,-3.5799,-3.5799,-3.5799,-3.5799,-3.5896,-3.6051,-3.6051,-3.6634,-3.7605,-3.7605,-3.8907,-4.0907,-4.0907,-4.0907,-4.0907,-4.0907,-4.0907,-4.0907,-4.0907,-4.1005,-4.1276,-4.1976,-4.1733,-4.1286,-4.1985,-4.1554,-4.0831,-4.0827,-4.0931,-4.1248,-4.2028,-4.2241,-4.2434,-4.3131,-4.3305,-4.3258,-4.3153,-4.3138,-4.3185,-4.3415,-4.3541,-4.3541,-4.3366,-4.3235,-4.334,-4.3904,-4.3923,-4.4064,-4.458,-4.4568,-4.4205,-4.3409,-4.3189,-4.253,-4.1219,-4.1089,-4.0736,-3.9881,-3.9677,-3.951,-3.9361,-3.9194,-3.9101,-3.9101,-3.873,-3.853,-3.853,-3.853,-3.8436,-3.8212,-3.7859,-3.7632,-1.8875,-1.9285,-1.9832,-1.9402,0.0,0.0,0.0,0.0,0.0,0.0,0.0,0.0,0.0,0.0,0.0,0.0,0.0,0.0,0.0,0.0,0.0,0.0,0.0,0.0,0.0,-2.8906,-2.9251,-3.01,-3.0122,-3.0283,-3.0685,-3.1112,-3.1338,-3.1351,-3.2205,-3.2846,-3.3254,-3.407,-3.4711,-3.5158,-3.5585,-3.5799,-3.5799,-3.5799,-3.5799,-3.5799,-3.5799,-3.6284,-3.71,-3.71,-3.8363,-4.0305,-4.0305,-4.0558,-4.0907,-4.0907,-4.0907,-4.0907,-4.0907,-4.0907,-4.0966,-4.1412,-4.1257,-4.0985,-4.1431,-4.1194,-4.0788,-4.0803,-4.079,-4.0887,-4.1293,-4.139,-4.1506,-4.1951,-4.1989,-4.1895,-4.1817,-4.1739,-4.1656,-4.1494,-4.1494,-4.18,-4.2565,-4.2512,-4.2507,-4.2853,-4.2467,-4.2265,-4.2581,-4.2127,-4.1624,-4.1157,-4.1016,-4.0624,-3.9807,-3.9751,-3.9565,-3.912,-3.9101,-3.9101,-3.9101,-3.9101,-3.8998,-3.8759,-3.8405,-3.818,-3.8011,-3.7789,-3.7649,-3.7596,-3.736,-3.7114,0.0,0.0,0.0,0.0,0.0,-2.0298,0.0,0.0,0.0,0.0,0.0,0.0,0.0,0.0,0.0,0.0,0.0,0.0,0.0,0.0,0.0,0.0,0.0,0.0,0.0,-2.7792,-2.8207,-2.9187,-2.8888,-2.9201,-3.0386,-3.0438,-3.0535,-3.069,-3.139,-3.1836,-3.2004,-3.3332,-3.4187,-3.4517,-3.5216,-3.5643,-3.5799,-3.5799,-3.5799,-3.5799,-3.5799,-3.6207,-3.6848,-3.6848,-3.778,-3.9237,-3.9567,-4.0189,-4.0907,-4.0907,-4.0907,-4.0907,-4.0907,-4.0907,-4.0898,-4.0898,-4.0898,-4.0886,-4.0886,-4.0843,-4.0808,-4.0803,-4.079,-4.079,-4.079,-4.0759,-4.0746,-4.0746,-4.0607,-4.0446,-4.0415,-4.0319,-4.0177,-3.9982,-3.9937,-4.039,-4.1803,-4.1874,-4.1682,-4.1606,-4.101,-4.0495,-4.0344,-3.9666,-3.9183,-3.9101,-3.9101,-3.9101,-3.9101,-3.9101,-3.9101,-3.9101,-3.9101,-3.9073,-3.9045,-3.8942,-3.8748,-3.8355,-3.8032,-3.7738,-3.747,-3.7058,-3.6921,-3.6999,-3.686,-3.6597,0.0,0.0,0.0,0.0,-2.2797,0.0,0.0,0.0,0.0,0.0,0.0,0.0,0.0,0.0,0.0,0.0,0.0,0.0,0.0,0.0,0.0,0.0,0.0,0.0,0.0,0.0,-2.6657,-2.8223,-2.6911,-2.705,-2.9428,-2.9551,-2.9894,-3.0671,-3.0807,-3.1215,-3.1984,-3.2186,-3.3041,-3.4497,-3.4595,-3.5041,-3.5799,-3.5799,-3.5799,-3.5799,-3.5799,-3.5857,-3.5954,-3.5954,-3.6518,-3.7547,-3.9101,-4.0189,-4.0907,-4.0907,-4.0907,-4.0907,-4.0907,-4.0888,-4.0907,-4.0907,-4.0856,-4.08,-4.0815,-4.0803,-4.0803,-4.079,-4.079,-4.079,-4.079,-4.0668,-4.0526,-4.0526,-4.0434,-4.0264,-4.0101,-4.0043,-3.9962,-3.9762,-3.9727,-3.9797,-4.001,-4.0005,-3.9951,-3.9808,-3.9727,-3.9575,-3.9386,-3.9266,-3.9183,-3.9101,-3.9101,-3.9101,-3.9101,-3.9101,-3.9101,-3.9101,-3.9101,-3.9017,-3.8833,-3.8428,-3.8201,-3.8135,-3.747,-3.7097,-3.7058,-3.658,-3.6557,-3.69,-3.6516,-3.6343,0.0,0.0,0.0,0.0,0.0,0.0,-2.1235,0.0,-2.1081,0.0,0.0,0.0,0.0,0.0,0.0,0.0,0.0,0.0,0.0,0.0,0.0,0.0,0.0,0.0,0.0,0.0,0.0,0.0,0.0,-2.5756,-2.784,-2.8871,-2.9564,-2.9933,-3.0438,-3.0884,-3.1234,-3.1759,-3.2613,-3.3818,-3.4284,-3.4964,-3.5799,-3.5799,-3.5799,-3.5799,-3.5799,-3.5799,-3.5799,-3.5799,-3.6304,-3.7217,-3.846,-3.9451,-4.0266,-4.0733,-4.0907,-4.0907,-4.0907,-4.0908,-4.0897,-4.0846,-4.0812,-4.0788,-4.0803,-4.079,-4.079,-4.079,-4.079,-4.0759,-4.0654,-4.0559,-4.0481,-4.0406,-4.0248,-4.0101,-4.002,-3.9914,-3.98,-3.9703,-3.9626,-3.9571,-3.9571,-3.9571,-3.9571,-3.9495,-3.9399,-3.9301,-3.921,-3.9156,-3.9129,-3.9101,-3.9101,-3.9101,-3.9101,-3.9101,-3.9045,-3.895,-3.8785,-3.8585,-3.8396,-3.8068,-3.7739,-3.7487,-3.7034,-3.6736,-3.658,-3.6409,-3.6367,-3.6557,-3.6367,-3.6301,-2.3345,0.0,0.0,0.0,0.0,0.0,0.0,0.0,0.0,0.0,0.0,0.0,0.0,0.0,0.0,0.0,0.0,0.0,0.0,0.0,0.0,0.0,0.0,0.0,0.0,0.0,0.0,0.0,0.0,0.0,-2.6426,-2.7925,-2.8923,-2.9389,-3.0243,-3.069,-3.069,-3.1331,-3.2089,-3.2943,-3.3779,-3.4614,-3.5449,-3.5702,-3.5799,-3.5799,-3.5799,-3.5799,-3.5799,-3.5799,-3.6168,-3.6848,-3.7974,-3.879,-3.947,-4.0519,-4.0907,-4.0907,-4.0898,-4.0888,-4.0856,-4.082,-4.0633,-4.0498,-4.0725,-4.0616,-4.0481,-4.0732,-4.0759,-4.0681,-4.0526,-4.0431,-4.0334,-4.0251,-4.0061,-3.9918,-3.9911,-3.9815,-3.9693,-3.9645,-3.9571,-3.9495,-3.9469,-3.9469,-3.9469,-3.9425,-3.9283,-3.9183,-3.9183,-3.9129,-3.9101,-3.9101,-3.9101,-3.9073,-3.9017,-3.9017,-3.8902,-3.8634,-3.8364,-3.8135,-3.7948,-3.7613,-3.7281,-3.69,-3.669,-3.6502,-3.6301,-3.6301,-3.6301,-3.6259,-3.6301,-3.6301,0.0,0.0,0.0,-2.2563,0.0,0.0,0.0,0.0,-2.2818,0.0,0.0,0.0,0.0,0.0,0.0,0.0,0.0,0.0,0.0,0.0,0.0,0.0,0.0,0.0,0.0,0.0,0.0,0.0,0.0,0.0,-2.5464,-2.6493,-2.7718,-2.935,-3.0243,-3.069,-3.069,-3.0729,-3.1176,-3.2043,-3.2924,-3.3759,-3.4575,-3.543,-3.5799,-3.5799,-3.5799,-3.5799,-3.5799,-3.5799,-3.5818,-3.6012,-3.7722,-3.8421,-3.8635,-4.0286,-4.0907,-4.0907,-4.0898,-4.0865,-4.08,-4.0803,-4.0242,-3.97,-4.0539,-4.021,-3.9719,-4.0558,-4.0654,-4.0511,-4.0511,-4.0264,-4.0003,-4.0022,-3.9854,-3.9708,-3.9698,-3.9693,-3.9669,-3.952,-3.9495,-3.9469,-3.9418,-3.9418,-3.9373,-3.9229,-3.921,-3.9183,-3.9101,-3.9101,-3.9101,-3.9101,-3.9101,-3.9017,-3.8822,-3.8822,-3.8634,-3.8249,-3.7948,-3.7739,-3.7542,-3.7052,-3.6788,-3.6684,-3.6444,-3.6301,-3.6301,-3.6301,-3.6276,-3.6208,-3.6276,-3.6276,0.0,0.0,-2.68,-2.4202,0.0,0.0,0.0,0.0,0.0,0.0,0.0,0.0,0.0,0.0,0.0,0.0,0.0,0.0,0.0,0.0,0.0,0.0,0.0,0.0,0.0,0.0,0.0,0.0,-2.1681,0.0,0.0,-2.6104,-2.7408,-2.8489,-2.9389,-3.0127,-3.069,-3.069,-3.1137,-3.2004,-3.2885,-3.372,-3.4536,-3.541,-3.5799,-3.5799,-3.5799,-3.5799,-3.5799,-3.5799,-3.5799,-3.5915,-3.7081,-3.7868,-3.853,-4.0277,-4.0898,-4.0888,-4.0846,-4.0812,-4.0692,-4.0126,-3.9739,-3.9449,-3.9166,-3.9282,-3.954,-3.9747,-4.0135,-4.0446,-4.0229,-4.0082,-3.9962,-3.9826,-3.975,-3.9698,-3.9626,-3.9596,-3.9546,-3.9495,-3.9399,-3.9283,-3.9256,-3.9229,-3.9202,-3.9183,-3.9156,-3.9129,-3.9101,-3.9101,-3.9045,-3.8921,-3.8892,-3.8803,-3.8559,-3.83,-3.8016,-3.7756,-3.7487,-3.7223,-3.697,-3.6829,-3.6643,-3.6444,-3.636,-3.6301,-3.6301,-3.6276,-3.6062,-3.5677,-3.5599,-3.5554,-2.4868,-2.6058,0.0,-2.4516,-2.4594,0.0,-2.2406,0.0,0.0,0.0,0.0,0.0,0.0,0.0,0.0,0.0,0.0,0.0,0.0,0.0,0.0,0.0,0.0,0.0,0.0,0.0,-2.0678,-2.216,-2.1695,0.0,0.0,0.0,-2.6941,-2.8061,-2.8961,-2.9816,-3.069,-3.069,-3.0982,-3.1545,-3.2749,-3.3565,-3.4109,-3.5274,-3.5799,-3.5799,-3.5799,-3.5799,-3.5799,-3.5799,-3.5799,-3.5896,-3.677,-3.7588,-3.8481,-3.9917,-4.0615,-4.0865,-4.0812,-4.0788,-4.0699,-4.0145,-3.9533,-3.8992,-3.874,-3.9025,-3.9412,-3.9311,-4.0031,-4.0666,-4.0138,-3.996,-3.987,-3.9722,-3.9693,-3.9645,-3.962,-3.9546,-3.9495,-3.9469,-3.9328,-3.9183,-3.9183,-3.9129,-3.9129,-3.9156,-3.9129,-3.9073,-3.8989,-3.8989,-3.8921,-3.8683,-3.8621,-3.8478,-3.8186,-3.7774,-3.7504,-3.7339,-3.7108,-3.6891,-3.6643,-3.6643,-3.6544,-3.6301,-3.6301,-3.6199,-3.5968,-3.5958,-3.5571,-3.4971,-3.4688,-3.4528]}]]